GFSSGP_500_spd_000.txt.gz
Wind_Speed
18 17 18 21 21 15 13 20 29 20 23 20 21 19 18 17 17 16 14 13 12 11 9 8 7 7 5 4 6 5 3 2 2 2 3 5 9 11 11 10 10 12 16 15 15 16 17 17 18
19 18 19 22 17 15 19 20 15 23 25 21 22 20 19 18 17 16 14 13 12 9 9 7 8 7 5 4 4 3 2 3 4 4 4 7 10 12 12 11 12 15 16 16 17 18 19 19 19
20 18 18 18 15 20 20 16 21 25 24 25 23 23 23 20 18 17 14 12 11 8 9 8 8 8 4 6 7 6 5 5 6 8 7 9 11 13 14 15 17 18 18 20 21 22 22 24 22
21 18 17 14 18 21 21 21 25 21 26 26 26 25 24 21 18 17 15 12 12 9 10 9 9 8 6 8 9 8 7 7 8 10 9 11 13 15 16 17 19 20 21 22 24 26 29 28 26
21 17 15 16 23 25 19 12 20 22 22 32 26 26 21 20 18 17 16 13 11 10 10 9 9 8 7 10 11 9 9 10 10 10 11 12 14 16 16 18 19 22 25 27 28 31 32 31 28
22 17 16 20 22 24 20 20 13 20 25 25 27 25 19 19 18 17 16 14 12 12 12 10 10 9 10 11 12 11 10 11 11 11 11 13 16 17 17 19 20 24 26 28 30 32 31 28 27
22 17 20 26 29 27 23 21 20 23 24 23 26 26 18 17 16 16 16 15 14 14 13 13 11 10 12 12 11 11 9 9 9 11 13 15 18 17 17 17 20 23 22 25 25 25 25 25 25
24 17 24 21 21 21 20 26 21 29 28 24 21 27 13 18 15 16 16 16 15 15 15 15 13 13 13 12 11 11 10 10 10 11 13 16 17 17 17 18 22 20 23 25 26 26 26 27 26
25 18 27 22 22 23 29 22 22 23 27 23 24 21 16 17 16 16 16 16 16 15 15 16 15 15 15 13 13 14 14 12 12 12 15 17 18 19 19 20 21 21 25 28 28 28 27 27 27
26 21 29 27 30 28 19 18 24 21 21 20 22 22 17 17 19 18 16 17 17 15 17 17 16 17 16 15 16 16 17 17 17 17 19 20 21 22 21 22 21 22 26 28 29 29 29 30 29
28 23 31 29 27 23 22 20 21 19 20 22 25 25 21 20 21 19 17 17 18 18 17 17 16 16 17 17 17 17 19 20 22 23 24 23 24 24 23 23 22 24 25 26 27 28 28 28 29
31 25 30 31 25 24 25 23 20 20 20 23 25 29 25 24 22 20 16 18 19 18 18 19 18 18 19 19 18 18 19 20 23 26 27 28 27 26 25 25 25 26 27 27 29 29 31 32 30
32 28 28 30 30 25 25 23 25 23 24 30 27 32 28 25 23 21 17 18 20 18 19 19 21 20 21 22 24 24 23 24 27 31 33 34 31 29 28 28 29 30 30 32 32 33 34 35 35
34 30 29 26 27 31 31 30 30 24 26 32 32 32 33 26 24 21 20 20 19 19 18 19 22 22 24 27 28 29 29 30 35 37 38 37 35 33 30 31 32 32 34 35 36 38 39 39 40
35 32 31 29 27 30 29 18 17 24 23 29 32 32 32 28 24 21 20 19 22 20 20 21 23 26 31 32 31 30 32 34 34 35 35 37 34 32 31 33 35 35 36 37 39 41 42 43 44
35 34 31 29 31 31 29 27 24 23 23 27 28 28 30 24 23 18 19 20 20 21 24 27 30 32 31 31 29 28 28 29 31 33 35 36 34 33 33 35 37 38 38 38 40 43 44 45 45
36 32 31 29 30 32 26 26 31 23 24 24 22 23 22 21 20 18 17 20 23 25 30 34 33 30 29 30 29 27 28 30 30 31 32 35 35 36 36 37 39 41 40 40 44 45 46 46 47
36 33 30 29 30 28 25 22 26 26 22 24 25 23 20 18 17 19 22 25 28 32 35 34 33 31 29 29 29 29 29 31 34 35 34 37 38 40 40 41 43 44 44 45 48 48 49 49 50
36 33 28 30 30 25 26 25 27 24 23 24 23 21 18 20 22 25 27 30 33 35 34 33 32 30 28 26 28 29 31 33 35 36 37 38 40 42 42 44 47 48 47 48 50 52 51 52 53
34 28 27 30 29 24 25 24 25 24 20 22 21 22 23 25 27 29 31 32 32 31 29 28 28 29 28 29 31 33 35 36 38 40 41 42 43 45 46 47 48 49 52 51 53 56 56 54 55
35 30 29 30 29 25 25 25 25 24 22 21 22 24 27 30 31 31 30 27 27 27 28 28 28 29 30 31 31 34 36 36 38 40 40 41 42 43 45 47 49 50 51 52 53 54 57 58 57
34 30 29 29 27 26 25 27 25 25 26 25 28 30 31 30 28 26 24 25 26 26 25 26 28 29 30 31 31 33 34 35 37 38 39 40 40 41 43 46 49 52 54 55 57 58 59 62 63
26 28 31 29 25 23 24 25 25 25 26 26 28 28 26 25 22 23 24 24 25 26 26 28 30 32 34 36 38 39 40 42 44 46 47 48 49 48 50 53 56 58 60 59 60 62 64 65 67
26 27 28 25 22 25 23 24 25 25 26 22 20 19 19 20 23 24 26 27 28 29 31 34 36 38 40 42 44 45 46 48 50 52 53 54 55 56 57 59 60 62 64 65 64 65 65 66 67
23 24 23 21 20 21 21 23 26 23 21 20 18 20 21 23 25 27 30 32 33 35 38 39 41 43 45 47 50 51 53 54 55 56 56 56 57 59 60 61 62 62 63 64 65 67 68 66 68
20 22 23 23 22 21 19 19 22 22 23 21 22 23 26 28 31 33 35 36 38 40 42 44 45 47 47 48 48 49 51 53 54 56 58 61 63 64 66 67 67 66 67 68 68 69 68 67 68
21 19 18 18 18 17 18 19 23 21 23 27 29 30 32 35 37 38 39 40 41 41 43 44 45 47 49 51 52 55 57 59 61 63 65 66 68 68 69 69 69 68 68 67 68 69 69 70 71
18 17 16 17 17 18 18 19 25 25 27 30 32 34 33 36 37 38 38 39 40 43 46 48 50 52 54 56 58 59 60 61 63 64 65 65 66 65 62 62 65 66 67 70 72 74 73 75 75
17 16 16 16 18 20 21 19 25 29 30 31 34 34 35 35 38 40 41 42 43 47 49 51 52 55 57 58 58 59 59 60 60 61 62 62 63 64 66 69 71 74 74 74 76 77 76 78 79
18 17 18 20 19 23 25 20 25 28 29 33 35 35 35 35 41 45 45 47 49 51 51 51 53 55 56 57 58 59 61 62 64 64 65 67 69 70 71 72 73 75 77 79 79 79 81 82 84

GFSSGP_500_spd_003.txt.gz
Wind_Speed
20 18 16 15 14 11 11 17 30 28 23 13 19 19 16 15 15 16 14 11 10 9 8 7 6 7 5 3 3 5 6 7 6 5 5 4 4 6 8 9 10 11 13 14 15 16 18 19 21
22 19 16 15 13 10 13 21 29 32 14 19 19 20 17 16 17 17 16 12 7 9 6 6 7 7 4 4 2 3 5 5 6 7 7 5 5 7 9 11 12 14 15 16 19 21 23 24 25
22 20 17 14 12 7 21 29 18 19 17 21 22 21 19 18 19 19 16 12 5 7 7 6 6 7 6 4 5 5 7 8 7 8 8 8 7 9 11 13 14 16 18 19 21 24 26 27 28
23 20 16 13 8 22 27 17 18 17 23 22 24 23 20 21 19 18 15 13 6 6 7 7 6 5 6 7 8 9 11 10 9 9 9 9 9 11 13 14 16 17 19 23 23 25 26 29 30
24 20 16 11 15 25 27 24 18 16 21 25 25 24 22 20 18 18 15 14 8 7 7 9 9 7 6 7 9 12 14 12 11 10 10 10 11 13 16 15 15 16 20 19 22 24 25 25 25
24 21 15 11 24 28 28 20 16 22 24 24 28 27 24 19 17 16 14 14 10 9 9 10 10 9 8 8 10 13 15 13 11 10 9 11 13 15 17 15 14 16 17 19 21 23 23 22 21
24 21 15 14 26 26 27 25 21 23 23 19 24 25 21 20 17 14 14 14 13 12 12 12 11 11 9 9 11 12 13 11 9 8 9 11 13 15 17 15 14 17 16 18 20 21 21 21 22
23 21 18 18 26 20 30 29 20 18 22 24 25 25 17 20 16 13 14 14 15 13 14 15 14 12 12 10 11 11 12 11 10 9 10 12 15 16 17 17 17 16 16 18 21 21 20 20 22
24 23 19 22 30 37 37 32 22 21 25 28 25 25 17 14 15 15 15 16 16 16 14 15 15 13 14 13 13 13 14 14 14 13 13 15 16 18 19 20 20 18 18 19 20 20 20 21 22
27 24 21 29 32 35 32 23 16 23 28 26 21 22 17 14 14 17 16 16 18 18 16 15 15 14 15 16 15 16 16 17 18 19 20 20 21 21 23 23 23 22 23 21 22 23 23 24 24
29 25 24 32 33 32 24 18 18 18 19 21 21 21 19 18 18 17 17 17 18 18 16 16 16 17 14 17 17 18 18 20 20 21 23 24 24 24 26 27 27 26 26 26 26 26 26 27 28
30 27 26 34 35 29 24 23 19 17 19 19 21 22 20 22 22 20 20 17 21 19 17 16 16 18 18 17 18 19 21 21 22 23 24 27 28 30 32 31 31 30 28 29 30 30 30 31 31
30 29 28 33 34 28 28 24 23 17 18 22 23 26 25 23 25 24 23 21 20 20 16 16 18 20 20 21 21 21 23 26 28 29 31 34 37 39 39 38 36 33 32 32 33 34 35 36 35
31 31 28 30 32 28 27 23 23 18 22 24 27 30 30 29 27 26 28 24 22 19 16 16 19 20 20 22 24 26 30 31 34 35 38 39 42 42 40 40 37 35 35 35 36 37 36 38 38
34 31 29 28 27 31 29 24 23 27 26 26 32 32 34 34 32 30 32 27 23 19 16 19 19 22 23 26 30 34 32 31 33 34 36 38 39 38 37 37 37 37 37 38 38 38 39 41 42
33 29 31 33 29 26 31 23 21 23 24 22 27 33 32 33 37 34 28 22 19 19 21 22 23 25 30 32 30 28 27 27 28 30 31 33 35 37 38 37 36 38 39 41 43 42 42 44 46
32 32 35 35 31 29 26 23 31 28 23 22 25 31 28 24 24 23 19 18 17 20 24 27 29 30 31 32 30 26 27 27 29 30 33 34 34 36 36 37 38 39 41 44 46 45 47 48 50
35 34 36 35 31 27 25 24 32 30 23 21 27 21 19 18 18 18 18 19 21 25 30 34 35 33 30 29 29 27 25 28 29 31 33 35 36 37 38 39 41 43 43 45 49 50 52 53 53
36 35 36 35 29 25 25 24 27 24 21 21 22 18 17 18 17 19 22 27 30 32 34 34 32 30 26 25 26 28 29 29 31 33 36 38 39 40 41 42 42 44 44 45 47 50 51 52 53
37 36 35 31 27 26 24 21 23 25 23 16 15 18 18 19 21 24 27 31 33 34 31 28 26 25 25 24 24 26 28 29 32 35 36 38 39 39 40 41 42 43 46 46 46 48 50 52 54
35 34 31 26 25 26 24 22 24 23 20 15 15 16 18 22 25 28 30 31 31 29 27 26 26 27 27 27 27 27 30 31 34 37 38 41 42 43 44 45 46 45 47 48 48 50 53 54 56
35 31 30 27 26 24 23 24 24 22 18 17 18 19 24 28 31 32 31 29 27 26 25 26 27 28 30 31 32 33 35 37 40 42 44 45 47 49 50 52 54 55 56 56 58 59 61 63 62
32 28 30 29 28 25 24 25 24 22 18 18 20 24 28 31 31 30 26 23 24 25 26 28 29 31 34 36 39 41 43 45 47 50 52 53 55 57 57 58 58 60 61 62 62 64 65 65 66
30 30 30 31 32 29 24 27 23 21 18 21 25 27 27 26 24 24 23 24 25 27 30 32 35 38 40 42 45 47 49 50 51 52 53 54 55 57 59 60 61 62 64 66 68 70 70 70 70
30 31 30 32 32 25 27 29 24 22 19 22 23 22 22 24 23 23 25 28 30 32 34 37 39 42 43 45 46 47 49 51 53 55 57 59 60 63 65 67 69 69 69 70 71 73 73 72 68
31 29 31 31 27 25 29 27 22 21 20 20 21 20 20 24 25 27 29 32 34 35 36 37 39 41 43 46 48 51 53 56 58 59 61 62 63 65 66 68 69 70 70 69 69 69 68 67 65
28 25 26 23 21 19 21 23 20 19 17 19 19 21 23 27 30 30 30 30 30 33 35 37 40 43 46 49 52 54 56 58 59 60 62 62 63 64 65 66 66 67 69 69 69 69 70 72 72
24 23 19 16 19 19 17 18 18 16 19 23 25 24 25 27 28 29 30 32 33 35 37 41 44 47 49 52 53 54 55 57 59 61 62 64 65 67 69 71 72 73 74 75 77 77 76 78 78
21 17 16 17 18 16 14 17 17 21 23 24 25 26 25 25 28 31 35 36 36 38 40 43 45 46 48 52 55 57 59 60 63 64 65 66 68 69 71 73 75 76 78 79 80 80 80 80 80
20 19 17 18 16 15 14 17 21 22 25 28 28 26 25 27 30 34 37 39 39 40 43 47 50 52 56 60 62 64 65 67 68 68 70 71 72 73 75 76 77 78 78 78 78 78 79 81 81

GFSSGP_500_spd_006.txt.gz
Wind_Speed
21 20 18 15 11 7 9 16 25 24 18 16 22 16 16 13 13 13 15 15 12 10 7 8 7 8 6 5 5 8 8 8 8 8 9 8 7 7 7 7 9 10 12 14 15 18 20 22 23
23 21 19 16 10 8 14 23 27 23 25 26 20 16 15 13 14 14 15 14 11 9 7 8 7 7 6 5 4 6 7 7 7 9 9 8 7 7 8 9 10 12 12 13 16 19 21 24 27
24 22 19 15 10 11 20 26 24 25 27 19 20 16 16 15 17 18 14 12 12 10 7 8 7 7 7 6 6 7 9 8 8 9 11 11 11 10 10 10 12 12 12 14 15 18 21 21 23
24 23 19 16 14 17 23 26 23 22 31 21 21 17 20 17 19 17 15 13 12 12 8 9 8 8 7 7 8 11 11 11 11 11 10 10 12 11 13 13 14 13 12 13 15 19 21 22 22
22 22 19 15 16 20 23 17 23 20 24 23 21 20 21 20 17 14 13 13 12 13 10 10 10 9 8 7 7 9 13 13 13 13 12 10 11 12 15 16 16 13 13 12 16 18 21 21 20
21 20 19 16 17 19 25 27 23 20 22 25 23 23 23 21 18 13 12 12 12 13 12 11 11 11 11 10 8 8 12 14 14 14 11 10 12 13 16 17 15 14 13 13 15 17 19 19 18
23 20 19 17 18 22 25 29 22 22 24 25 26 26 23 22 19 15 13 11 12 13 14 12 14 14 14 11 10 9 10 13 14 13 12 13 13 14 16 16 16 15 15 15 15 15 15 17 17
25 21 19 19 21 28 28 29 27 25 29 30 27 25 21 21 21 17 14 11 12 13 14 15 14 16 15 13 12 11 11 12 14 15 15 15 16 16 16 16 17 18 18 17 19 16 16 17 18
25 23 21 21 23 29 29 34 31 22 26 24 24 23 20 19 15 17 15 12 14 14 14 16 15 16 17 17 14 14 14 15 17 18 18 19 21 21 20 20 20 22 22 21 22 22 21 21 22
25 24 22 23 24 27 30 34 28 18 19 24 24 21 19 17 15 17 13 13 15 15 15 16 17 16 17 17 17 17 18 19 20 22 23 24 26 26 25 24 24 25 26 27 26 26 27 27 26
23 26 24 25 26 25 32 29 25 19 22 26 26 21 21 18 19 17 14 14 16 17 15 17 17 18 18 18 18 19 20 21 23 25 25 27 28 29 30 29 28 30 30 32 31 31 32 32 31
24 27 25 26 26 25 31 26 25 22 21 26 19 17 19 20 21 20 17 16 17 19 19 17 17 18 19 20 20 20 21 23 26 28 28 29 31 31 33 35 37 39 36 35 36 37 36 35 35
23 26 28 27 26 24 29 27 22 20 18 21 16 16 18 20 23 22 21 19 19 21 22 19 17 19 19 20 22 23 25 26 27 29 32 34 36 38 39 41 43 43 39 39 40 41 41 40 38
23 27 28 26 28 24 29 28 25 22 26 22 19 21 23 24 26 26 25 25 24 24 24 21 18 18 19 22 25 26 27 29 33 37 38 40 42 43 45 46 45 42 41 42 41 42 43 43 43
26 24 30 26 29 25 30 26 28 27 23 21 22 23 27 28 28 30 30 27 28 26 24 23 20 19 22 25 27 29 31 34 36 36 36 36 37 38 40 40 40 41 42 43 42 43 45 47 47
27 26 29 29 27 25 27 27 28 27 25 24 27 31 29 28 30 31 30 28 28 24 21 21 22 24 26 30 33 35 35 34 35 35 35 36 36 36 38 38 40 41 42 42 43 44 46 48 51
29 25 28 29 27 24 24 29 27 26 26 25 27 29 32 30 29 26 27 24 20 21 22 23 25 29 32 35 35 34 32 31 31 32 33 34 35 36 36 37 38 39 41 42 44 46 48 49 51
24 29 30 28 26 24 24 24 27 26 22 23 23 23 24 23 22 22 21 19 19 21 25 28 31 34 36 35 32 28 25 24 27 29 31 32 34 36 37 38 40 43 45 46 47 49 51 52 53
34 29 30 27 26 26 28 27 27 29 22 23 21 22 22 21 19 18 19 20 22 25 29 32 33 33 31 29 28 26 26 25 26 29 31 32 33 35 36 36 37 39 40 42 42 44 46 47 51
35 32 27 27 26 26 28 29 26 24 21 20 19 19 19 19 18 18 21 24 27 31 34 34 33 29 26 25 25 26 27 29 30 32 33 35 37 40 41 43 44 45 47 49 50 51 52 52 54
35 32 28 27 25 26 31 26 22 21 22 16 16 18 17 17 18 20 24 28 32 35 36 35 30 28 27 27 27 28 29 31 34 37 39 42 44 46 49 50 52 54 54 55 55 56 58 59 59
31 29 30 28 26 29 30 25 23 23 20 16 17 19 18 19 21 25 28 32 34 35 33 29 29 30 29 30 31 34 36 37 39 41 44 46 48 49 51 52 54 55 57 58 60 61 62 63 64
25 28 29 28 25 28 28 24 22 20 19 18 19 21 22 23 25 28 31 32 30 28 27 27 28 30 32 34 36 38 39 40 41 42 45 47 49 52 54 55 58 60 62 64 67 68 70 71 72
28 28 30 28 27 29 29 26 19 19 20 21 23 25 26 27 29 28 25 24 24 25 27 29 30 31 32 34 36 37 39 42 44 47 49 52 55 57 60 61 63 64 66 67 69 70 70 70 71
30 32 33 31 30 29 30 29 23 23 23 24 27 28 28 27 26 24 24 24 25 26 27 28 30 32 34 36 38 41 44 47 49 52 54 55 56 57 58 59 61 63 64 65 66 67 67 68 69
30 33 32 29 29 30 29 30 25 24 24 27 28 29 26 25 25 23 22 23 23 26 29 31 33 36 38 40 43 46 48 50 51 52 54 57 59 61 63 65 67 69 71 72 73 74 74 75 76
34 32 30 29 29 29 29 28 24 22 24 25 23 23 23 24 22 22 24 25 27 31 33 34 36 39 42 43 44 45 47 51 54 58 60 62 63 65 67 69 71 72 74 75 76 77 78 79 80
32 30 29 28 28 28 27 23 19 18 19 19 19 20 22 23 23 26 27 30 32 34 36 37 39 40 41 45 48 50 54 57 58 59 61 64 68 71 74 77 78 80 82 83 84 83 83 84 85
30 28 26 26 25 20 19 15 15 16 18 20 20 22 23 25 26 28 31 34 36 38 39 39 40 44 49 53 56 59 61 63 65 66 69 72 75 78 81 83 85 86 88 88 89 88 88 88 87
28 27 26 22 18 15 13 14 18 20 23 23 23 22 22 23 27 31 33 34 35 37 40 44 49 52 55 59 62 64 66 68 70 74 77 80 83 86 89 91 93 93 92 90 89 88 88 87 86

GFSSGP_500_spd_009.txt.gz
Wind_Speed
22 21 18 15 13 8 12 19 24 27 21 21 18 14 15 15 11 10 13 14 15 13 12 11 10 9 10 10 9 10 12 11 9 8 8 8 9 8 10 11 11 11 12 13 14 15 17 18 20
24 23 20 16 12 11 15 22 22 27 24 21 18 19 18 18 12 11 14 13 13 12 11 12 10 10 10 10 9 9 11 10 10 9 9 9 10 10 12 13 14 14 14 12 13 13 16 19 21
25 25 21 18 13 13 17 21 22 26 26 25 23 17 17 18 13 12 13 11 12 12 12 13 11 10 10 10 9 9 11 10 11 10 11 11 14 13 13 14 16 15 14 11 13 15 19 21 22
25 24 23 19 15 18 20 21 26 26 27 26 21 19 20 19 15 11 9 10 11 13 12 13 13 11 10 10 10 12 13 13 13 13 12 13 15 15 14 16 18 16 15 12 13 16 19 19 20
25 21 23 19 18 22 20 24 22 24 23 25 23 17 19 20 17 11 6 9 11 13 12 14 14 12 12 11 9 10 15 15 16 15 15 15 15 15 15 17 18 17 15 14 14 15 17 16 17
27 21 21 19 21 24 23 20 17 22 21 23 24 20 20 22 19 13 8 9 12 13 13 14 14 14 13 12 12 11 12 15 16 18 17 17 15 15 17 17 18 16 15 16 16 16 16 14 15
27 25 20 20 23 24 22 20 19 24 25 23 22 22 24 24 20 15 12 11 13 13 12 15 14 14 15 14 14 14 12 13 15 19 18 17 17 17 18 17 16 16 18 19 19 19 18 16 16
28 27 20 20 25 23 20 20 18 29 25 21 21 23 27 23 20 17 16 14 13 13 13 14 15 15 17 17 17 16 15 14 14 18 18 19 19 19 19 18 18 19 20 22 23 24 23 23 21
26 25 22 22 24 22 21 20 21 32 19 19 23 24 27 22 19 15 16 14 12 13 13 15 16 16 18 19 19 20 18 19 18 20 20 21 23 23 24 24 24 24 24 25 27 29 29 29 29
27 25 24 23 23 22 22 21 22 24 14 15 23 25 27 18 16 14 15 13 11 13 14 15 16 18 18 20 20 21 22 22 21 23 25 26 27 28 29 29 30 28 28 28 30 32 34 36 36
28 24 26 24 24 23 22 22 21 22 19 19 21 25 24 21 15 17 16 14 12 14 15 17 17 18 18 20 21 21 23 22 24 26 27 29 30 31 31 31 34 33 32 36 37 39 38 40 41
27 25 26 28 25 24 21 22 22 20 27 24 20 21 25 24 18 19 17 17 14 16 16 17 17 19 19 20 21 23 23 24 26 28 29 31 32 34 35 37 38 40 41 45 45 45 44 43 44
30 27 26 29 26 24 22 20 23 20 25 25 21 20 23 22 19 20 19 18 18 20 20 20 20 20 20 20 21 22 24 26 28 30 32 34 36 38 40 42 44 45 47 48 49 47 44 44 45
32 28 25 25 27 23 22 21 25 19 28 21 20 17 17 19 20 20 21 22 23 25 25 26 22 19 20 21 21 23 26 28 31 34 36 40 43 45 45 44 45 46 47 46 45 45 45 47 47
30 28 24 19 29 23 23 20 23 29 23 21 19 18 20 21 23 25 26 26 25 26 27 27 21 21 20 22 23 26 29 32 37 41 43 43 43 43 41 40 40 41 42 43 44 46 47 48 48
31 29 24 25 24 25 24 17 27 27 26 24 20 20 22 25 26 31 31 31 29 24 25 23 21 21 22 24 27 31 34 38 42 42 41 41 40 39 38 37 38 38 39 41 42 44 46 47 49
35 27 24 27 23 26 24 22 23 26 23 23 22 23 24 24 27 30 31 31 29 22 22 21 22 24 26 29 32 35 38 37 35 33 33 34 35 34 34 35 37 38 39 40 41 41 43 44 45
30 23 27 25 24 24 22 21 19 21 20 17 17 21 25 26 26 29 33 29 22 20 19 21 24 29 32 34 36 37 36 34 31 30 31 32 32 32 32 32 34 36 37 39 40 42 44 46 48
31 30 26 25 24 22 22 21 19 16 17 19 21 27 28 22 25 21 22 21 20 21 22 25 29 32 36 38 38 36 33 32 31 30 29 30 31 33 34 36 38 40 42 44 46 48 50 50 52
33 31 25 26 25 23 22 23 23 21 22 20 25 25 22 21 21 20 19 20 21 23 26 29 32 34 36 36 34 32 31 29 29 31 32 34 36 38 39 41 43 45 47 49 51 53 55 56 57
32 28 25 24 23 23 23 23 22 23 20 20 21 23 20 20 20 20 20 22 24 27 31 33 34 35 33 30 29 28 29 30 31 33 35 36 38 40 43 45 46 49 51 53 56 58 61 63 64
33 25 28 29 24 23 24 22 20 19 20 22 21 21 19 19 17 20 22 26 30 32 34 35 33 30 27 27 28 30 30 32 33 35 37 40 42 45 48 51 53 56 58 60 61 63 64 65 66
18 23 28 29 28 27 22 24 19 20 22 24 21 21 20 21 20 24 28 31 34 35 33 28 26 26 28 29 31 32 33 34 36 39 42 45 48 50 53 54 55 55 57 58 60 61 64 66 68
27 26 29 29 29 28 20 24 17 18 22 22 22 22 24 25 24 27 31 34 34 30 28 27 27 29 30 32 34 35 38 39 41 44 47 49 50 50 52 55 57 59 61 62 63 65 67 68 69
34 31 29 28 30 23 21 24 16 21 23 25 25 25 28 29 29 31 34 31 28 27 28 29 30 32 34 36 38 40 42 44 45 45 46 49 53 56 58 59 61 62 64 68 71 73 75 77 78
33 31 28 28 28 25 25 23 20 22 24 27 29 29 31 32 32 32 31 26 28 30 31 32 34 36 37 40 42 42 40 43 46 49 53 57 59 60 62 64 67 70 73 76 78 80 82 84 86
35 33 29 30 29 28 27 22 21 24 25 29 31 32 31 31 31 29 27 28 30 33 34 35 37 39 40 42 41 42 48 52 54 58 61 64 65 67 69 72 74 78 81 84 87 89 91 92 93
39 33 34 32 29 28 27 22 22 22 24 27 26 26 27 27 25 26 27 30 33 35 35 37 38 38 38 40 45 50 53 57 61 64 67 68 70 72 75 78 81 84 88 91 94 97 99 101 101
34 34 34 30 30 25 23 21 17 18 20 20 21 23 24 27 28 28 29 32 34 35 35 35 37 39 43 47 51 55 59 63 66 67 68 71 75 78 80 83 86 90 96 100 103 105 105 104 102
35 33 32 31 25 24 20 16 15 17 21 23 24 25 26 28 27 27 30 33 34 34 36 39 42 46 49 53 58 62 65 67 68 71 74 78 80 83 86 88 94 98 101 103 104 104 102 99 93

GFSSGP_500_spd_012.txt.gz
Wind_Speed
23 21 20 20 17 12 15 19 21 23 24 23 21 16 13 15 12 12 12 12 13 14 12 12 12 12 12 13 13 13 13 14 13 12 10 11 10 10 11 12 12 13 15 15 13 12 13 14 18
25 22 22 19 15 13 15 17 16 21 25 23 22 17 14 11 15 14 11 12 12 12 11 11 12 12 13 14 14 13 12 14 15 12 11 12 12 11 10 12 13 15 17 16 15 14 14 16 20
26 23 23 21 17 15 17 18 20 19 24 24 22 19 12 13 16 16 11 9 8 10 11 11 12 13 13 13 14 12 12 13 14 13 11 14 14 12 13 14 16 17 17 17 15 14 14 17 20
27 24 23 23 19 19 20 23 17 19 23 25 21 20 15 14 17 17 10 6 8 11 11 12 13 13 14 13 12 12 13 14 15 15 12 15 15 13 14 18 18 19 18 19 17 16 15 17 17
27 26 21 22 23 24 24 22 19 20 21 22 19 21 18 16 19 18 11 7 8 10 11 12 13 12 15 14 13 12 13 17 18 18 17 16 16 15 16 18 19 20 20 19 18 18 19 18 17
28 28 23 21 24 27 25 22 20 20 22 21 19 22 20 19 21 20 14 8 10 11 12 12 14 12 14 15 15 14 13 15 19 22 21 19 18 18 17 19 20 20 19 17 19 21 21 21 20
29 28 26 22 25 26 22 19 18 20 22 22 17 18 21 21 21 22 13 11 12 12 12 12 14 14 13 16 16 17 16 16 16 20 21 20 20 20 19 20 20 20 19 19 20 22 23 25 26
28 29 28 26 25 23 22 18 16 17 21 18 16 15 19 19 19 22 15 14 14 13 13 13 13 15 15 16 18 18 20 19 18 18 19 20 21 21 21 22 23 24 24 23 24 26 26 27 29
30 28 27 27 23 22 22 19 14 14 17 11 13 18 16 19 19 20 18 16 15 14 13 13 14 15 16 18 19 21 22 23 22 22 21 22 22 25 25 26 29 31 31 30 28 30 31 30 32
31 27 27 30 24 23 21 19 14 12 14 20 12 12 18 19 18 18 15 16 15 14 13 13 14 15 16 19 21 23 24 26 26 25 25 26 26 28 29 31 32 34 34 34 34 34 36 39 40
32 26 29 30 29 24 22 20 14 11 11 20 14 13 13 19 17 16 17 17 16 15 16 16 15 16 17 19 21 23 25 26 26 27 28 28 29 31 32 33 35 36 37 37 39 42 43 45 45
32 30 29 29 30 23 23 20 17 11 14 21 20 17 16 15 17 18 19 18 17 18 18 18 18 19 19 20 21 22 24 25 26 28 28 29 31 33 35 36 38 39 42 44 45 47 48 50 51
33 31 32 31 29 24 21 22 20 11 13 21 27 21 17 16 16 18 18 20 20 21 21 21 22 22 19 21 20 20 22 23 25 28 29 31 33 36 38 41 43 46 47 47 47 46 45 45 44
35 35 34 29 27 26 24 20 17 11 20 19 18 18 12 13 13 14 17 20 22 23 23 24 24 23 21 20 20 21 23 24 26 29 31 34 38 43 46 46 44 43 42 40 40 40 41 42 43
39 36 32 26 26 29 26 17 20 21 18 14 15 16 15 15 16 17 20 22 23 26 26 24 25 23 22 20 21 22 25 28 31 33 36 40 45 46 45 43 41 41 41 40 39 40 41 42 44
38 35 30 27 32 28 24 13 24 21 16 18 17 17 17 16 18 20 23 27 28 28 29 29 24 25 23 21 23 25 29 31 34 37 39 40 39 38 35 35 36 37 38 39 39 40 39 39 41
40 32 29 30 32 26 24 15 19 18 18 19 19 19 18 19 18 19 23 26 29 31 30 28 23 24 22 23 27 30 33 36 37 38 36 35 35 34 32 32 32 33 33 35 37 39 41 42 44
30 30 30 31 31 27 22 19 20 17 17 19 18 19 17 17 21 26 29 28 27 26 33 25 23 23 24 27 30 33 36 37 37 36 34 32 32 31 30 31 33 36 37 39 41 43 45 46 48
34 37 32 32 33 26 23 21 20 17 14 17 17 16 17 20 26 29 26 23 23 22 24 22 23 27 30 32 34 36 37 36 35 34 32 31 32 34 35 36 38 40 41 43 46 48 49 52 55
37 35 30 31 30 25 22 19 20 18 16 17 18 19 21 22 22 23 22 23 21 20 22 24 27 31 34 37 37 36 33 31 30 31 32 34 36 38 39 41 43 45 47 49 52 55 56 57 58
32 31 30 29 29 23 24 20 21 20 20 20 18 18 18 18 18 22 23 21 19 21 23 26 30 35 37 37 33 30 29 30 31 33 36 38 39 41 43 46 48 50 52 52 54 56 59 59 60
29 28 30 30 28 23 24 21 19 20 22 22 20 19 19 16 17 22 23 22 21 22 27 31 34 35 33 30 29 30 31 33 35 37 39 41 44 46 47 47 47 49 52 54 56 58 60 61 61
23 29 27 29 26 25 19 21 14 20 24 24 23 20 19 18 19 23 24 26 27 28 31 34 35 31 30 30 32 33 35 37 38 40 42 43 43 43 45 47 51 55 57 59 60 61 63 67 69
27 28 26 27 28 28 20 22 11 21 23 21 20 21 20 20 22 25 26 29 32 33 32 32 31 31 32 35 37 37 39 40 42 42 41 41 45 49 52 55 59 62 64 66 68 70 73 75 77
37 27 24 24 24 18 22 25 13 19 21 20 20 21 21 23 25 27 30 32 34 34 33 31 32 35 37 39 40 41 42 41 40 39 44 47 51 55 59 62 66 69 70 72 74 76 79 80 82
30 26 21 21 20 22 21 22 16 19 23 23 23 23 25 26 28 30 31 32 35 35 32 34 36 39 40 42 43 42 40 39 42 46 50 54 58 62 66 68 70 71 74 75 77 78 80 83 87
34 31 25 24 23 22 22 20 19 19 22 24 24 26 29 29 29 27 28 32 33 33 36 38 40 41 42 41 40 40 42 46 50 55 59 64 67 70 72 72 74 75 77 80 82 85 89 95 98
36 31 30 29 27 23 21 20 19 20 22 23 25 27 28 27 26 26 29 32 34 35 38 39 39 39 40 40 41 44 48 52 55 60 64 68 71 73 75 76 78 81 84 88 91 95 98 100 103
35 34 31 30 30 27 22 22 20 20 22 24 23 23 25 24 24 28 31 32 35 37 36 36 38 38 39 41 44 47 51 55 59 64 67 71 74 76 78 81 83 86 89 93 95 100 104 105 104
39 37 33 32 32 27 24 20 20 19 22 24 23 24 25 26 28 31 31 33 36 37 35 36 36 38 40 44 49 53 57 61 65 68 71 72 75 77 79 82 86 89 94 100 102 104 104 101 96

GFSSGP_500_spd_015.txt.gz
Wind_Speed
25 22 21 20 22 20 19 20 23 25 23 22 19 16 14 15 13 13 15 14 14 14 13 13 12 13 13 13 14 14 13 15 15 16 15 13 11 10 11 11 12 13 15 15 16 15 16 16 14
26 22 21 21 19 19 19 21 22 20 18 18 19 15 14 12 16 15 15 14 13 11 11 11 12 12 13 14 14 14 13 13 16 17 16 14 13 12 13 13 11 13 17 17 16 16 17 17 16
27 26 21 23 20 20 22 24 17 16 16 17 17 15 12 16 16 16 17 14 10 10 10 9 11 12 14 14 13 14 13 12 15 17 17 15 14 11 16 17 14 15 18 19 18 18 18 17 17
29 28 22 23 24 24 25 23 16 17 17 19 18 15 14 15 15 16 16 12 8 9 11 10 11 13 14 15 14 13 12 13 15 17 17 16 16 14 16 18 17 17 20 21 19 20 20 19 18
29 28 25 22 25 26 26 23 18 17 17 19 20 16 17 21 18 20 17 12 10 9 11 10 11 13 14 15 15 14 13 13 16 19 19 19 19 19 19 19 19 19 20 21 20 20 20 20 21
29 29 28 23 24 27 26 23 20 18 18 20 19 15 19 22 18 20 18 13 10 9 12 12 11 13 14 15 16 16 14 14 13 17 21 23 23 24 21 21 20 19 20 21 19 19 21 22 22
31 30 30 27 25 25 24 23 19 18 18 19 13 14 15 23 18 19 18 15 12 11 13 13 12 13 15 15 17 18 17 16 16 16 17 21 23 24 24 22 21 21 22 22 22 23 23 24 24
33 31 30 30 26 24 21 20 18 17 17 15 11 12 10 11 18 17 15 18 14 14 14 14 13 13 15 16 17 19 21 20 19 20 20 20 21 22 24 22 23 24 25 27 28 28 29 30 29
35 32 29 31 29 25 20 19 18 16 15 9 9 10 10 9 12 14 15 18 16 15 15 13 14 14 14 16 18 19 21 23 23 23 23 24 24 24 24 25 26 28 29 31 33 33 33 32 33
37 32 29 33 32 26 20 19 18 16 11 10 11 8 9 7 11 14 19 20 17 15 16 14 15 15 14 16 18 21 23 23 26 27 26 26 27 27 28 28 29 31 33 34 35 36 36 38 38
37 31 31 32 32 28 23 21 18 13 10 13 18 13 10 12 15 17 18 16 15 17 18 17 16 17 16 17 17 19 22 23 25 27 27 27 28 28 29 30 32 34 36 37 38 40 42 44 46
35 33 32 29 30 28 26 21 19 10 14 15 20 20 15 14 17 18 17 17 17 18 19 19 19 20 20 20 19 20 19 20 22 24 25 26 27 28 31 32 34 36 39 41 44 45 46 45 44
36 35 33 31 29 27 27 22 17 12 14 19 22 23 17 14 16 16 17 17 18 20 21 20 20 22 23 22 21 21 21 19 20 22 23 25 27 30 33 35 39 43 45 44 43 42 41 40 41
36 39 35 32 32 28 26 24 17 18 20 22 16 23 20 17 16 15 15 17 18 19 21 22 21 22 23 23 22 22 21 21 22 24 26 29 31 35 37 39 41 43 42 40 40 40 39 39 40
41 42 37 31 32 28 27 22 25 23 16 16 12 15 19 18 16 15 15 16 18 19 19 21 23 25 24 24 21 21 21 23 24 27 29 31 33 35 37 37 36 35 34 33 34 35 35 35 36
45 41 35 30 32 31 26 19 33 21 20 14 17 17 19 17 16 15 17 19 20 20 20 19 20 23 26 26 23 24 25 27 28 31 32 33 34 34 34 32 32 32 32 32 33 35 36 37 38
45 39 34 34 33 32 29 21 31 21 18 17 20 18 18 17 18 18 20 19 20 23 25 24 22 27 27 26 24 27 29 31 34 35 36 35 34 32 31 30 31 32 34 36 37 39 41 42 44
41 32 33 31 36 35 31 23 30 21 18 16 16 17 17 18 20 21 20 22 25 28 28 27 24 27 28 25 26 30 34 37 39 38 36 34 33 33 32 32 34 36 38 40 42 43 46 47 49
36 36 36 34 38 33 31 23 28 22 17 17 16 18 18 19 21 23 25 26 25 24 25 26 25 24 24 25 29 33 38 41 40 38 35 34 34 35 36 37 39 41 42 44 46 48 49 50 53
37 38 34 35 35 31 29 23 27 22 19 18 17 17 19 21 24 27 27 21 20 22 24 25 24 24 25 29 32 36 39 39 37 35 35 36 37 38 40 41 43 44 46 47 47 48 50 53 57
38 34 32 35 35 31 27 24 28 23 21 20 18 17 17 20 23 22 20 20 17 19 23 25 26 25 28 31 34 36 34 32 34 36 38 39 40 41 43 43 43 43 44 46 50 54 57 59 61
35 30 34 36 35 29 27 24 25 22 21 23 23 20 21 20 20 19 19 19 19 18 22 24 28 31 32 34 33 33 33 34 37 39 41 42 43 43 43 42 44 47 50 53 57 61 64 67 69
32 33 36 37 32 27 26 23 23 25 22 23 24 23 23 22 21 20 19 21 23 22 24 27 30 32 34 34 34 34 36 39 41 41 43 42 41 41 42 46 50 53 58 63 67 69 71 73 75
34 38 36 32 30 26 23 22 23 20 19 22 23 23 23 24 22 22 23 24 26 27 28 30 31 32 34 34 34 37 39 40 42 43 42 41 41 45 48 52 55 59 63 67 70 72 74 75 77
38 37 34 31 30 23 24 24 17 19 18 22 23 23 21 21 22 23 25 26 29 30 29 30 32 33 34 35 38 39 41 41 40 39 39 42 46 48 51 55 59 64 67 70 72 74 77 79 81
40 35 30 27 24 25 21 22 20 20 20 21 23 22 21 23 25 26 27 28 29 30 30 31 32 34 36 38 39 39 39 39 39 40 44 46 48 52 55 61 65 69 71 72 74 76 78 81 84
37 37 29 26 23 22 20 18 22 18 20 21 23 23 25 28 27 27 27 28 29 31 31 31 33 36 38 37 38 38 39 39 42 44 48 52 56 59 65 69 71 72 74 75 78 80 84 87 91
34 28 34 30 22 20 18 15 20 22 22 23 23 26 27 27 26 26 26 29 31 30 31 33 35 36 37 37 37 38 40 43 46 51 55 60 65 69 72 73 75 76 78 80 83 85 88 93 96
30 33 32 29 25 23 21 18 18 20 22 24 24 25 26 25 24 25 27 28 30 33 35 35 34 36 35 35 37 41 45 49 55 58 62 66 69 72 74 75 76 78 81 84 86 90 94 96 97
35 32 30 30 27 25 23 19 19 22 21 23 25 24 25 24 24 26 29 30 33 35 35 35 33 33 35 39 44 49 53 56 60 64 67 69 71 73 74 76 79 82 85 88 92 94 95 97 100

GFSSGP_500_spd_018.txt.gz
Wind_Speed
24 23 24 22 22 19 20 23 26 26 25 22 21 15 15 15 17 18 19 18 18 18 18 18 17 15 14 14 15 16 16 15 15 17 18 17 15 15 15 14 14 15 16 16 16 18 18 16 18
26 25 23 23 21 19 21 24 25 22 20 20 19 15 13 16 19 21 19 18 17 16 15 15 16 15 14 14 16 16 15 15 14 15 18 17 16 15 16 16 15 16 16 17 16 17 18 19 18
27 27 24 23 21 22 24 25 21 19 16 19 17 14 13 16 18 19 19 18 17 15 14 12 13 13 14 15 16 15 13 14 13 15 18 18 17 17 17 18 17 20 19 19 17 18 19 21 19
28 28 26 24 24 25 26 24 20 19 18 19 15 13 13 18 20 21 18 16 15 10 10 11 12 14 15 15 16 16 14 13 14 15 17 18 18 18 18 19 19 21 22 22 20 19 21 22 22
30 28 28 26 25 27 28 24 21 20 19 18 15 14 16 22 21 18 17 15 13 11 11 12 12 14 16 16 17 17 16 15 13 16 18 19 20 21 21 22 22 22 21 20 20 18 19 20 21
33 30 29 28 28 29 30 26 22 21 20 16 17 15 18 21 22 22 19 18 15 12 12 12 12 13 14 17 17 17 17 16 16 15 15 19 22 24 25 26 24 24 21 20 20 19 21 21 22
35 33 32 30 31 30 30 28 24 21 21 18 17 19 18 19 23 24 18 19 17 13 13 12 11 12 14 16 17 18 18 19 19 19 19 19 19 21 23 24 25 25 24 22 23 24 25 27 27
37 36 34 31 34 34 28 25 25 23 22 18 17 18 17 15 19 23 18 19 18 14 14 12 11 13 14 15 17 19 19 20 22 23 23 22 22 22 21 22 23 24 26 26 27 29 31 33 33
40 40 34 31 35 35 29 23 23 22 20 17 16 17 15 14 15 21 21 20 17 15 15 13 13 12 13 14 16 19 21 22 23 25 27 27 26 26 25 25 25 26 27 29 31 33 36 37 37
44 41 33 32 37 35 32 25 22 22 18 16 15 18 18 16 16 17 17 17 16 17 18 16 15 12 11 12 15 16 19 22 23 25 27 28 28 28 28 28 28 29 29 32 34 36 38 39 42
47 39 33 36 38 33 33 28 22 21 18 17 17 20 19 19 19 18 15 15 17 20 19 18 19 16 14 15 16 18 19 20 22 23 25 26 27 28 29 29 30 31 33 35 37 39 40 44 45
46 38 36 36 36 34 33 29 23 18 20 17 19 24 24 19 18 18 16 16 18 20 20 21 21 20 19 20 20 21 21 22 21 21 22 23 24 24 26 28 30 32 34 37 42 44 46 46 44
47 42 38 38 39 35 32 29 26 17 24 20 21 23 26 18 15 15 18 18 21 22 22 21 21 20 20 21 21 23 24 23 22 21 21 22 24 25 28 31 35 36 39 41 42 41 40 40 40
46 43 40 43 39 36 29 28 22 30 24 20 19 21 25 21 16 16 18 21 22 23 23 23 25 23 23 22 21 22 25 23 23 22 24 26 28 30 33 36 37 39 37 38 37 36 35 35 35
50 48 46 43 39 35 30 26 26 30 22 19 18 19 25 25 21 19 18 19 20 20 22 23 23 23 24 23 24 25 26 26 26 26 28 30 33 35 36 37 37 36 35 35 34 34 33 34 35
53 53 51 40 38 34 33 25 30 30 26 20 17 18 22 27 26 21 20 20 19 21 22 22 22 23 25 25 24 27 29 29 28 29 32 34 36 37 37 36 35 35 35 35 34 35 36 38 40
57 54 47 40 35 37 33 26 29 29 27 23 19 19 23 25 23 21 22 22 23 22 21 22 25 27 27 28 27 28 30 30 30 33 36 39 39 37 36 35 36 36 36 37 39 40 41 42 44
60 56 43 36 38 37 37 28 27 27 24 21 20 21 25 25 24 23 24 24 24 24 25 28 30 29 28 30 29 29 29 30 33 36 39 39 39 37 36 36 37 38 39 41 42 43 45 46 46
57 44 41 36 40 40 37 29 26 27 22 22 22 22 27 27 25 24 25 25 27 29 31 31 25 26 27 26 26 28 31 33 37 40 40 39 37 37 38 39 40 41 41 43 43 43 43 45 48
49 45 41 41 38 37 37 29 30 30 23 25 23 24 27 26 24 24 25 27 30 33 32 26 25 25 25 26 27 32 34 37 39 38 37 37 37 39 40 41 42 43 43 43 43 45 47 51 55
52 47 41 36 34 37 35 29 31 30 24 27 25 26 25 24 23 24 26 29 31 29 26 22 22 24 24 26 29 32 35 36 35 35 36 37 39 40 41 42 43 42 42 44 47 49 51 54 58
47 43 40 37 33 37 34 29 28 30 27 27 27 27 25 24 23 23 25 26 26 26 26 26 27 26 28 30 31 32 33 34 35 36 38 40 40 42 42 42 41 43 46 48 50 53 57 61 65
42 43 39 37 35 34 31 29 27 31 28 27 29 29 27 25 26 26 26 25 26 26 25 26 27 29 31 32 34 34 34 34 37 39 39 40 41 42 41 42 45 48 50 53 56 61 64 70 72
45 44 39 35 33 31 30 28 27 31 29 28 28 29 28 28 29 29 28 27 27 26 26 28 29 31 32 33 35 35 35 37 38 39 39 40 41 42 44 47 49 52 55 59 62 66 70 73 75
47 43 38 35 34 28 28 29 24 31 28 27 26 27 27 28 27 28 28 28 26 27 29 30 30 31 33 34 34 34 36 38 39 39 40 41 43 45 47 51 54 57 60 65 69 73 74 76 78
47 42 38 35 29 28 30 29 27 25 29 26 25 25 25 25 27 28 29 28 28 29 29 30 31 33 33 33 34 36 36 37 38 39 40 42 44 49 53 57 61 64 67 70 73 75 76 78 80
45 43 39 33 29 29 27 28 25 28 28 27 23 23 25 26 28 28 29 29 28 30 31 31 31 31 33 34 35 35 35 35 36 39 43 47 52 55 59 63 65 68 70 73 75 77 79 82 85
37 38 36 34 29 28 24 27 26 23 26 28 24 23 23 25 26 28 28 29 30 30 29 29 31 32 32 33 33 34 35 37 41 46 50 53 57 60 63 66 68 70 73 76 78 80 83 86 90
42 41 40 34 31 29 24 23 24 23 22 22 23 24 26 27 28 28 28 28 28 28 29 31 31 30 31 32 33 35 39 44 48 52 55 58 62 65 67 69 71 73 76 79 82 85 88 91 94
41 39 35 36 33 30 23 22 22 23 21 22 23 25 27 27 29 27 26 27 28 29 30 30 30 31 32 34 37 41 46 50 53 56 60 63 65 68 70 72 74 77 79 82 85 88 92 94 97

GFSSGP_500_spd_021.txt.gz
Wind_Speed
24 25 24 23 22 20 19 25 27 25 27 23 24 19 18 20 22 24 20 21 20 19 20 20 20 21 20 17 16 16 15 17 17 16 18 19 19 18 16 16 17 19 19 18 17 18 18 17 17
26 26 26 23 22 20 19 26 23 28 23 21 22 20 19 24 23 24 22 21 20 20 18 18 18 17 16 15 16 16 16 16 15 15 16 18 19 17 17 17 17 18 19 19 19 20 18 17 18
27 27 29 24 23 21 24 26 30 22 20 19 19 20 20 27 23 24 25 24 22 20 18 17 14 14 15 15 15 16 16 14 14 15 16 19 18 18 17 17 18 19 20 20 20 22 20 20 20
29 27 30 27 26 24 26 24 23 22 19 20 18 18 21 22 25 24 23 20 19 18 16 12 13 13 15 15 15 15 15 15 14 14 16 19 19 20 19 19 19 19 19 20 22 23 22 21 21
32 29 30 29 28 26 27 26 24 22 19 20 18 20 23 21 24 25 23 22 19 15 15 12 13 14 14 15 15 16 17 16 15 16 14 18 21 21 22 22 22 22 22 23 22 21 21 21 20
35 32 30 30 28 31 28 28 26 24 21 21 20 17 24 21 23 24 22 22 19 17 15 12 13 13 14 15 15 16 17 17 17 17 17 17 18 21 24 24 25 25 25 25 23 23 22 22 23
38 35 32 32 33 31 32 28 29 26 23 25 18 20 28 20 24 24 25 25 20 19 15 13 14 13 12 14 15 16 17 18 19 20 20 20 21 21 20 20 22 22 23 24 24 24 26 26 28
41 40 35 35 32 32 35 30 29 29 28 20 22 25 31 17 22 23 25 26 20 18 15 14 15 14 13 13 14 16 17 19 20 21 23 24 24 24 24 24 24 24 24 25 25 27 29 30 31
43 45 40 36 33 34 37 32 26 28 30 28 25 25 24 22 22 22 24 24 19 17 16 16 17 16 14 12 13 15 16 18 19 21 23 25 26 26 27 27 26 27 27 27 29 30 32 33 34
48 46 41 34 36 37 39 33 28 26 31 29 26 26 22 24 25 21 21 24 21 19 20 18 19 19 17 14 12 13 15 17 18 20 22 24 25 25 26 26 27 28 29 30 32 34 36 37 40
46 52 40 38 37 41 39 33 32 26 27 30 29 24 23 26 25 22 21 21 20 21 21 20 22 21 20 19 17 17 18 18 19 20 22 22 23 23 23 24 27 29 31 32 34 36 38 41 43
47 49 43 42 40 42 38 35 29 29 25 31 28 24 23 28 28 24 22 21 20 21 21 22 23 24 23 23 22 22 21 21 21 21 22 21 21 22 23 25 27 29 32 35 37 40 42 45 44
53 44 46 45 43 41 40 35 30 27 28 31 28 26 26 27 25 22 21 20 21 21 22 22 25 25 24 25 24 23 22 21 22 23 22 22 23 25 27 30 32 35 37 38 41 41 41 40 39
56 46 46 48 47 44 42 35 33 26 38 30 28 24 26 27 25 23 19 19 21 22 23 24 25 26 28 29 28 26 24 25 27 26 26 26 27 29 31 33 36 37 39 40 39 38 37 36 35
60 52 49 52 48 45 41 38 28 32 38 29 26 25 22 23 29 24 21 19 21 23 25 26 26 28 29 27 29 26 25 27 29 30 30 29 30 32 35 37 39 39 38 37 37 36 35 36 36
61 58 54 52 48 44 44 33 35 38 33 30 22 25 21 23 29 27 25 21 21 22 22 23 26 28 28 28 28 29 30 28 30 32 32 32 33 36 38 40 39 37 37 36 36 36 36 38 39
60 60 55 55 49 43 47 34 36 36 33 30 27 23 20 25 28 33 30 24 23 23 24 26 28 28 28 30 32 32 34 35 33 32 32 34 36 39 40 39 36 36 36 37 37 38 39 39 40
59 56 58 56 49 44 43 39 36 35 33 29 28 25 22 24 28 32 29 26 25 26 27 28 28 29 33 36 37 33 32 31 29 30 33 38 40 40 37 35 35 36 37 38 38 39 40 40 40
55 62 58 52 45 47 42 41 36 36 31 26 26 27 25 25 30 29 29 28 27 28 29 29 31 33 36 38 32 31 31 31 31 33 37 39 39 37 36 36 36 37 37 38 40 39 40 40 43
61 55 55 50 49 46 42 42 35 36 32 24 24 26 24 26 32 31 30 29 28 30 30 31 33 36 35 30 30 31 31 33 35 38 39 39 37 36 36 37 37 39 40 41 41 41 43 46 49
57 54 50 52 52 41 44 40 34 32 37 24 26 27 25 26 30 32 30 30 30 30 31 33 34 30 28 29 29 31 33 35 38 41 40 38 36 37 39 40 41 41 42 43 45 48 50 51 52
58 53 52 52 47 41 44 39 39 36 35 28 26 28 26 27 29 30 30 30 30 30 30 30 29 28 30 31 32 33 35 38 39 39 37 38 38 40 41 41 42 43 45 47 49 50 52 55 59
56 49 50 48 45 44 43 40 30 34 35 30 27 28 27 27 29 31 31 30 29 29 29 28 28 29 30 31 34 36 37 38 38 38 37 38 40 41 43 43 44 45 46 49 52 56 59 63 67
57 53 48 48 45 43 36 33 31 33 36 31 27 28 28 30 30 31 32 32 31 31 29 28 28 30 31 33 35 36 38 38 38 37 39 40 41 41 42 43 44 47 52 55 59 62 65 68 71
41 51 51 46 46 37 38 33 28 33 32 30 27 27 29 31 32 33 34 32 32 31 28 29 29 31 33 35 36 38 37 37 37 38 39 40 40 41 43 46 50 54 58 60 63 66 69 71 73
43 50 51 47 43 35 31 31 33 29 29 30 27 27 28 30 31 32 33 33 33 31 31 31 31 32 34 36 36 36 36 36 37 38 39 39 42 45 49 52 56 59 62 65 68 70 72 74 77
49 51 43 43 39 32 32 29 30 28 29 27 28 26 28 29 29 30 31 30 31 31 32 33 33 33 33 33 34 35 35 35 36 37 40 43 48 51 54 57 61 63 66 68 71 74 76 77 79
42 48 41 37 33 29 29 27 30 27 28 29 28 29 30 29 28 28 29 30 32 33 33 31 31 30 31 34 34 34 34 36 38 41 45 49 52 55 59 62 65 67 70 73 75 76 78 80 83
41 43 41 38 34 27 24 26 29 26 27 28 29 30 28 28 27 27 29 31 32 32 31 31 30 30 32 33 33 34 36 39 43 47 51 53 57 60 63 67 70 72 75 76 77 79 82 84 86
37 36 36 34 34 33 29 28 27 24 25 25 26 29 29 28 28 29 31 31 31 30 30 30 31 32 33 33 34 37 40 45 48 51 54 58 62 65 69 72 74 75 75 77 79 81 83 86 89

GFSSGP_500_spd_024.txt.gz
Wind_Speed
25 23 22 21 22 21 19 18 23 25 28 21 19 19 17 21 26 24 24 23 23 21 20 19 19 20 21 21 19 17 15 16 15 15 15 16 17 17 16 15 16 15 17 18 18 19 19 20 19
27 25 24 22 22 20 19 20 26 22 25 22 22 19 19 27 25 25 26 25 24 22 20 18 18 19 18 18 15 15 15 16 15 13 13 14 15 17 15 16 16 16 17 17 17 18 19 20 20
30 28 25 24 23 21 21 27 31 24 19 21 22 22 24 29 24 24 26 26 25 23 19 18 18 16 15 14 15 15 15 16 13 12 11 12 13 16 16 17 16 17 18 18 20 20 21 22 22
32 31 28 26 24 22 24 27 22 16 21 21 20 21 28 29 24 25 26 28 25 21 19 17 15 14 13 13 14 15 14 15 14 13 12 12 14 17 19 19 19 19 19 20 20 20 21 22 23
34 34 30 28 24 25 24 27 21 22 21 19 20 25 29 23 21 23 25 27 24 19 18 15 13 12 13 14 13 14 15 15 15 15 13 13 13 16 19 20 22 22 23 23 23 22 22 22 22
38 35 34 29 25 25 30 27 23 23 23 21 22 21 27 22 21 22 23 25 23 22 18 15 12 13 14 14 14 14 14 15 15 15 17 15 15 16 16 18 21 23 24 23 24 23 23 22 22
38 38 35 32 28 28 34 25 24 28 24 23 20 20 32 23 20 22 24 24 24 22 18 18 14 14 14 14 13 15 15 16 16 17 17 18 19 20 20 20 20 20 20 21 23 23 24 25 25
40 42 40 36 32 30 30 29 27 26 26 26 19 24 36 17 22 24 25 24 25 24 19 19 16 16 15 16 14 14 15 16 16 17 18 19 20 22 23 24 24 23 23 24 25 26 27 28 29
40 42 44 38 34 32 32 33 30 27 25 28 26 28 35 24 26 26 25 25 26 24 20 19 19 18 16 17 14 12 13 14 15 16 17 18 20 22 23 24 25 26 26 27 28 29 30 32 33
46 42 38 40 36 37 36 38 29 27 27 29 31 33 38 26 28 26 27 26 25 23 20 21 21 19 18 18 17 15 14 15 15 16 18 19 19 20 21 22 23 25 27 28 29 31 32 34 35
48 43 37 40 40 41 42 37 28 30 28 28 34 38 36 25 23 27 29 27 23 25 22 23 23 21 20 20 20 19 19 20 21 19 19 19 20 21 21 20 22 23 25 27 30 32 34 36 37
46 45 43 36 43 45 44 36 34 31 26 32 34 32 29 26 26 29 29 26 24 23 23 24 24 23 22 23 23 22 22 22 22 21 21 21 21 22 22 22 23 26 28 32 34 36 38 39 41
47 45 46 42 42 48 46 41 32 32 28 35 36 30 29 28 27 26 29 25 25 24 23 24 24 25 26 24 24 24 24 25 25 25 25 26 25 24 24 25 28 29 31 34 35 37 39 40 41
50 49 47 46 45 48 51 43 39 29 31 37 36 27 27 27 26 23 27 27 26 25 23 23 24 25 26 26 26 26 27 29 28 30 32 32 31 29 29 30 32 34 35 37 37 36 36 37 37
54 55 52 47 47 46 51 48 41 29 33 39 35 28 28 27 21 26 26 28 25 22 22 23 24 26 27 27 27 28 28 30 31 32 33 33 34 33 33 34 36 38 39 38 35 34 33 32 32
56 59 56 46 48 48 50 50 37 35 38 37 35 31 27 28 25 24 28 30 27 21 21 22 24 24 25 28 28 28 29 31 33 35 37 36 35 35 35 36 39 41 39 35 33 32 31 32 33
57 57 56 52 50 51 47 50 37 36 39 36 30 32 27 27 27 26 28 33 29 24 21 21 22 24 27 29 30 29 33 36 37 35 36 37 35 35 37 39 42 39 35 33 33 34 34 35 36
51 55 56 54 52 51 48 47 40 39 39 33 33 31 31 27 24 27 29 34 33 27 23 24 24 26 29 29 31 35 38 38 34 33 32 32 34 37 40 43 42 38 36 35 36 35 37 38 38
51 50 53 54 54 52 50 45 42 39 40 37 33 31 33 28 26 27 28 29 30 28 26 25 27 28 30 32 35 37 38 33 33 32 32 33 36 40 42 42 40 39 38 37 38 39 39 40 42
54 55 52 48 54 48 50 46 47 40 38 37 31 31 34 28 30 28 28 27 27 28 26 27 29 31 33 35 35 37 31 32 31 33 35 38 40 42 42 41 38 38 40 41 41 41 41 43 46
55 55 53 49 44 47 52 48 46 38 35 38 32 30 32 27 27 27 28 29 28 27 28 29 29 32 35 37 31 31 32 34 34 36 38 40 41 41 41 41 40 41 43 43 44 45 46 47 51
58 53 45 35 44 51 48 47 44 39 41 41 37 31 33 26 26 26 27 28 28 28 28 29 30 33 34 31 30 31 34 36 36 38 41 41 41 41 40 41 42 42 43 43 44 47 50 54 57
57 54 54 31 35 47 45 50 42 40 41 38 35 32 31 26 28 26 27 26 26 27 28 29 31 32 32 32 33 35 37 38 39 40 41 39 39 40 41 41 40 40 43 46 50 53 57 61 64
51 46 41 49 47 53 51 43 39 39 35 36 36 34 29 25 27 27 26 26 26 28 29 30 32 33 33 34 36 36 38 39 39 40 41 40 40 40 39 40 42 45 48 52 55 59 62 65 68
67 54 39 46 51 50 42 42 34 36 37 35 32 32 28 26 27 27 26 27 27 30 31 33 33 34 35 36 37 37 39 39 39 39 39 40 40 39 40 43 47 51 54 57 61 63 66 69 71
45 38 38 43 46 44 43 45 38 37 30 32 32 30 27 25 27 26 26 27 29 32 32 33 34 34 35 37 37 39 39 38 38 38 39 39 39 41 45 49 52 56 59 62 65 68 71 73 75
58 44 38 42 39 40 38 36 35 30 29 29 28 26 24 25 26 25 26 27 29 31 32 31 32 35 36 37 37 38 37 38 38 39 38 40 42 46 50 53 56 59 62 65 69 71 73 74 76
45 38 52 47 36 31 37 33 34 27 26 27 23 22 23 23 24 25 25 25 27 30 32 33 33 34 35 36 35 36 37 37 38 39 41 43 47 51 54 57 60 64 67 70 72 74 75 76 77
42 42 42 44 38 28 35 35 32 24 22 25 23 23 22 24 27 27 25 26 29 31 31 31 33 34 34 34 35 37 37 38 39 41 45 49 51 54 57 61 65 69 72 73 74 74 75 77 78
42 37 39 40 35 30 27 28 23 20 20 21 22 25 28 28 28 28 27 28 31 32 31 33 33 33 34 34 36 37 37 39 42 45 48 51 55 59 62 67 71 73 73 72 73 73 75 77 81

GFSSGP_500_spd_027.txt.gz
Wind_Speed
26 24 22 20 19 17 16 15 24 23 26 21 16 21 26 25 25 24 24 23 20 20 20 18 18 18 19 19 18 14 12 11 13 14 14 14 15 15 16 15 14 14 13 14 15 15 18 18 19
29 27 25 23 21 16 17 22 27 26 20 19 21 20 26 28 25 23 24 22 21 21 20 18 17 18 19 18 15 13 12 11 12 13 13 13 14 15 16 16 14 15 15 15 16 16 18 19 20
32 31 29 26 23 18 20 21 26 22 19 18 23 21 27 29 23 22 25 23 21 23 21 18 17 18 17 16 14 12 12 11 12 11 11 11 12 14 15 17 16 16 16 16 17 17 18 20 20
35 36 32 29 24 22 22 22 24 20 18 21 18 24 28 28 24 24 25 24 22 22 21 18 18 17 15 14 13 12 13 12 12 10 11 12 11 13 15 18 19 19 19 18 19 19 20 21 20
36 37 35 32 25 24 21 22 22 18 19 19 20 25 26 26 21 22 25 23 23 23 18 18 18 16 14 13 13 13 13 13 13 12 12 13 13 14 14 17 19 20 21 22 23 23 23 24 23
33 39 37 32 27 27 30 26 21 19 24 22 22 24 26 26 22 22 26 23 21 21 20 21 18 17 15 13 13 12 14 14 15 14 14 15 16 16 16 17 17 18 19 20 23 23 25 25 26
37 33 39 35 31 32 32 31 20 23 22 24 20 23 27 27 21 23 23 24 21 20 22 22 20 18 17 16 14 12 13 15 16 16 16 17 17 18 20 21 21 22 22 22 22 22 23 25 26
38 40 33 40 33 30 34 31 21 22 22 23 21 27 28 25 24 21 21 24 23 22 23 23 20 21 19 19 15 13 12 13 14 16 17 17 18 19 20 21 22 24 25 26 26 26 27 28 29
39 41 37 27 35 26 34 33 30 22 21 24 24 28 32 29 29 23 23 23 24 25 24 26 22 22 22 21 17 15 14 13 13 15 16 18 18 18 19 21 21 22 24 26 27 27 28 29 31
38 33 33 29 32 36 35 39 36 23 22 25 26 30 39 33 28 22 26 26 26 26 24 25 23 23 24 21 18 17 17 17 17 17 17 18 18 19 20 20 19 20 21 23 24 25 27 29 31
37 31 32 34 33 35 40 42 35 28 24 26 28 32 40 31 29 23 28 27 27 26 25 25 24 26 26 22 21 21 20 21 20 20 21 21 20 20 21 21 21 21 22 24 25 27 29 31 34
38 38 34 34 37 36 40 46 39 33 28 27 29 33 36 30 28 25 31 26 27 26 24 24 25 26 26 23 24 24 23 22 22 23 24 25 23 23 23 23 23 25 26 27 29 31 33 35 37
42 40 39 35 39 38 39 43 41 37 30 30 31 35 35 29 26 28 30 28 26 23 22 23 25 24 25 25 26 24 24 24 26 27 27 29 29 31 30 27 26 28 29 30 33 34 36 36 37
43 43 42 40 37 38 42 40 41 36 32 34 33 33 35 29 26 26 30 25 26 23 22 24 26 24 25 26 27 26 23 24 26 27 31 33 34 35 34 33 32 32 33 34 36 38 39 38 35
42 43 43 42 43 39 43 37 36 32 37 36 36 34 33 33 25 27 26 26 24 25 23 23 23 26 25 26 25 23 23 25 26 29 30 34 36 37 38 38 36 36 37 38 40 42 39 35 32
46 45 45 47 45 45 47 35 33 31 40 39 35 34 33 31 27 27 27 26 25 25 22 20 21 24 27 23 21 22 23 27 28 30 33 35 35 37 40 40 39 38 38 41 43 40 38 35 33
51 50 51 50 48 47 50 44 34 33 39 42 38 32 33 32 28 28 29 26 27 26 23 21 21 23 23 22 21 23 26 28 31 34 34 32 33 33 32 34 35 37 39 42 41 40 38 38 37
45 44 46 49 43 47 49 48 39 34 40 43 38 33 35 29 29 29 30 29 28 27 28 24 22 24 24 25 25 26 28 31 33 33 30 30 31 30 31 34 37 39 40 40 40 38 39 39 39
43 44 46 46 51 48 51 50 42 40 42 42 38 33 36 28 27 29 28 28 27 26 28 28 25 26 26 27 28 29 33 35 36 30 30 31 32 34 36 39 41 41 41 40 39 39 40 42 42
51 50 46 45 45 46 49 53 44 44 43 40 35 35 38 27 27 31 27 28 27 24 24 25 27 27 28 28 29 32 36 32 27 29 31 35 38 40 40 41 42 43 42 41 42 42 41 42 44
53 51 46 44 42 42 43 48 48 47 46 38 36 35 38 27 26 32 30 30 28 25 24 25 26 27 28 29 31 33 31 28 29 31 35 38 40 42 43 43 42 41 40 42 42 43 43 45 48
55 48 49 47 45 43 40 49 47 47 41 40 39 38 36 29 24 28 29 30 26 26 26 25 27 27 28 30 31 31 30 31 33 34 37 40 42 43 43 42 40 41 41 41 42 45 48 51 54
52 47 48 49 45 41 43 47 46 41 45 44 38 38 34 30 24 27 28 28 25 25 25 26 27 26 29 30 31 32 33 35 36 37 40 40 42 44 42 41 41 41 42 43 46 50 54 58 60
45 51 48 46 45 45 48 45 45 41 44 39 36 38 34 31 25 27 30 27 25 25 25 26 26 27 30 32 34 35 36 36 37 38 41 41 40 39 41 41 41 42 45 48 52 55 58 61 64
46 47 52 51 52 51 47 49 44 43 40 34 37 34 32 28 25 26 30 28 25 25 26 27 28 30 32 34 35 36 37 38 39 41 41 39 39 40 40 41 43 46 50 53 56 59 62 65 67
42 51 54 55 57 64 41 41 46 36 32 36 35 32 30 28 26 28 30 25 24 24 26 28 30 32 33 34 34 36 38 40 40 40 39 40 41 41 42 44 48 51 54 57 60 63 66 69 71
36 56 47 40 41 48 42 36 32 36 30 32 29 28 25 27 26 26 25 24 23 24 27 29 30 31 32 33 34 37 38 40 39 38 41 41 41 43 45 48 52 55 57 61 64 67 70 70 70
45 53 61 59 31 41 36 40 32 32 26 27 24 25 27 25 23 22 21 22 21 23 26 27 29 30 31 33 34 37 38 37 38 40 41 41 43 46 50 52 55 58 62 65 68 70 69 68 68
48 57 56 24 17 32 28 32 30 27 24 21 24 22 22 21 21 22 21 20 21 24 25 27 27 29 32 33 35 36 37 38 40 41 41 43 47 49 52 55 59 62 66 69 70 68 67 68 70
47 42 29 26 15 20 31 29 30 26 21 19 23 22 21 21 19 18 20 23 24 26 27 28 30 32 33 34 35 36 37 40 41 42 44 46 48 52 55 59 63 67 70 69 66 66 68 71 75

GFSSGP_500_spd_030.txt.gz
Wind_Speed
30 28 25 23 21 18 17 19 27 27 25 18 19 22 24 27 26 25 24 25 22 19 18 17 15 15 15 16 17 15 13 13 12 11 10 11 12 15 17 18 18 16 15 15 16 15 16 19 20
34 31 29 26 23 19 20 21 24 24 21 18 22 24 25 25 26 26 24 25 23 20 19 19 18 17 16 17 18 16 14 13 11 10 10 10 11 15 17 19 20 18 17 16 17 17 17 18 20
34 34 33 30 26 22 23 24 24 22 18 19 23 25 26 24 22 24 26 25 25 22 20 20 19 18 17 18 17 14 13 13 13 12 11 11 11 12 15 17 19 19 19 18 19 19 19 19 21
30 34 37 34 28 26 25 26 24 21 19 17 24 27 27 25 23 25 25 24 24 23 22 21 20 20 19 18 15 12 12 14 14 13 12 13 14 13 13 16 19 21 22 22 22 22 23 23 24
34 33 36 36 30 29 29 29 26 22 20 23 24 27 27 26 24 21 21 23 23 23 21 21 20 19 18 17 15 13 13 14 14 14 14 14 16 16 16 15 17 20 23 24 24 25 27 28 28
36 36 34 34 31 32 33 32 28 23 26 26 26 26 24 27 26 22 23 22 22 20 19 19 20 21 20 19 17 13 12 14 14 15 16 16 17 19 20 19 19 20 20 21 23 24 26 27 29
31 34 36 30 36 36 35 34 27 24 27 25 22 25 25 27 25 22 21 21 19 19 17 19 22 25 23 20 18 15 14 14 14 15 17 18 19 20 21 22 23 24 25 25 25 26 26 27 27
32 36 34 34 30 33 37 35 30 26 25 26 22 27 25 28 26 24 20 19 19 21 20 21 23 24 24 22 21 17 16 15 14 14 16 17 19 20 20 21 22 24 25 26 27 28 29 30 30
35 35 31 30 31 28 36 37 37 31 25 24 25 27 28 30 30 26 20 21 23 22 21 22 23 25 24 25 23 20 19 16 15 14 15 15 17 18 18 19 20 21 22 23 24 24 26 28 30
36 31 26 25 30 29 37 44 40 35 26 26 25 28 30 33 30 27 22 23 24 23 24 24 24 27 27 25 25 22 21 19 18 17 18 18 19 19 19 18 18 20 20 21 22 23 24 26 28
35 29 28 27 29 37 37 46 45 38 31 25 27 30 31 31 29 27 27 27 25 24 26 25 24 26 27 26 26 23 23 21 20 22 22 21 22 22 21 21 22 24 25 25 25 26 27 28 31
38 33 30 28 30 37 40 40 45 43 33 29 28 31 33 31 30 29 30 30 26 28 26 24 23 26 27 26 26 24 24 24 24 25 25 26 27 26 27 26 26 26 27 28 29 30 32 34 35
41 37 36 32 33 36 42 42 40 40 42 34 31 32 35 33 29 29 27 30 30 27 26 24 22 24 28 27 27 26 27 27 27 25 25 26 27 29 31 32 33 33 31 31 32 33 35 37 39
42 41 40 41 37 39 42 41 42 36 35 43 35 32 34 36 30 29 26 26 30 27 25 24 23 23 22 24 26 28 28 27 25 26 26 28 30 31 33 37 37 39 37 36 36 37 38 39 41
44 44 42 40 40 39 43 43 38 35 32 41 41 34 36 34 29 27 30 28 31 26 26 24 25 24 24 23 24 25 25 25 25 27 27 29 30 32 34 34 36 39 38 39 40 40 40 41 41
45 44 43 42 43 43 45 37 41 39 35 34 40 38 36 33 29 28 32 28 29 26 26 23 25 27 25 24 22 23 23 21 23 26 26 30 32 31 31 33 33 32 38 41 41 41 41 41 41
49 47 45 45 45 46 46 40 42 43 37 37 34 41 38 35 29 28 32 29 29 27 25 25 25 25 23 20 20 21 21 22 23 26 30 30 30 28 28 29 28 29 31 35 39 40 41 41 41
49 49 47 47 44 49 47 45 44 42 44 39 36 41 42 34 29 29 33 29 28 30 28 25 26 24 20 20 22 23 23 24 27 29 33 35 29 29 28 30 32 35 38 40 42 44 45 43 41
53 51 49 47 48 52 54 52 50 47 45 43 39 37 42 35 32 29 32 31 30 31 30 26 25 27 25 24 25 25 25 27 29 32 31 26 27 30 33 37 38 39 41 42 45 46 45 45 42
53 54 50 49 49 51 53 55 54 51 47 45 43 37 41 36 33 30 30 33 31 30 27 24 23 29 30 28 27 26 26 28 31 32 29 29 32 35 37 39 41 42 43 45 45 42 42 43 44
57 56 51 51 46 50 50 53 56 51 47 49 47 40 43 38 33 30 30 34 31 28 26 24 23 25 28 28 28 27 27 29 31 29 30 33 35 38 40 41 43 45 44 41 40 41 43 44 47
57 53 51 49 50 51 51 56 56 51 53 49 44 41 40 38 33 28 30 33 34 31 27 26 25 26 27 28 29 28 28 30 31 31 33 36 38 39 43 44 44 42 41 41 43 44 46 48 50
49 50 52 52 52 53 49 54 51 46 53 54 45 41 40 37 35 30 31 32 32 30 27 26 27 29 30 29 29 29 30 32 34 34 36 39 40 42 45 44 42 41 42 43 45 47 50 53 57
48 48 51 54 52 58 49 51 51 42 46 48 45 44 41 36 33 30 29 28 26 28 26 25 26 29 31 31 30 31 32 33 35 37 38 41 43 44 44 41 42 43 45 46 48 51 54 58 61
41 45 49 52 55 60 52 50 42 36 36 35 43 42 37 34 31 30 29 30 27 28 27 26 27 28 29 31 32 33 33 35 37 38 40 42 42 42 42 43 44 45 46 49 52 55 59 61 65
32 37 46 48 55 54 51 54 45 40 36 36 40 41 36 31 31 29 30 31 28 28 27 26 27 28 30 32 34 34 35 36 38 39 41 42 41 41 44 45 45 47 49 53 56 59 61 65 69
35 38 30 40 48 50 48 52 47 43 41 38 39 35 33 30 29 29 31 29 26 26 27 27 27 28 30 32 33 34 35 36 38 40 42 42 42 43 45 45 47 50 53 55 59 62 66 70 71
32 30 37 45 43 43 47 47 45 40 41 33 34 29 28 28 28 28 27 27 26 25 25 26 26 28 29 31 33 34 35 37 39 41 41 42 44 45 45 48 51 54 56 58 62 67 70 69 67
41 39 33 41 42 39 45 50 42 32 40 31 25 23 26 29 26 26 26 25 24 24 24 24 25 27 28 30 32 34 37 38 39 40 42 44 45 46 47 51 54 55 58 63 67 70 67 66 67
13 32 35 46 47 36 39 38 27 26 33 27 24 25 26 27 26 26 24 23 22 21 22 23 25 27 29 31 34 36 37 37 39 41 43 45 45 47 52 54 54 58 62 67 67 64 64 67 70

GFSSGP_500_spd_033.txt.gz
Wind_Speed
33 30 29 27 24 21 22 22 24 24 23 21 22 24 26 23 24 27 26 25 21 19 19 17 15 16 18 18 18 18 16 13 13 12 12 13 13 14 15 17 19 19 19 18 18 19 21 22 23
29 33 33 30 28 24 24 25 26 25 22 22 24 25 26 24 23 27 27 25 23 21 19 19 18 18 18 19 19 18 16 14 13 12 11 12 13 14 15 17 19 20 20 20 20 19 19 21 21
26 27 37 35 31 25 27 25 27 25 21 22 25 25 25 25 24 25 26 26 26 22 21 21 20 19 19 19 18 18 16 15 13 13 13 14 14 14 15 18 19 20 21 22 22 21 21 22 22
32 32 31 37 33 30 30 29 29 26 21 22 25 26 27 25 25 24 24 26 24 24 23 21 22 21 20 20 19 18 16 16 14 13 14 15 16 16 16 16 18 19 21 23 24 24 24 24 24
36 36 36 30 33 31 32 33 32 29 24 22 28 29 28 26 26 25 23 24 25 25 24 23 22 21 20 20 18 16 16 16 15 14 15 16 16 16 17 19 19 18 19 22 24 26 27 27 28
40 38 38 31 25 36 37 37 34 30 27 25 27 31 28 24 25 25 24 25 26 24 22 20 21 21 20 20 18 16 16 17 16 14 15 16 16 17 18 20 22 22 22 23 23 23 24 25 27
32 31 30 30 29 33 37 40 34 31 29 29 27 28 28 28 27 24 22 23 25 21 18 18 19 20 21 21 20 19 19 18 16 14 15 15 16 17 18 20 21 22 23 25 27 28 29 29 29
32 33 30 26 26 30 34 42 38 34 34 32 28 28 28 30 29 24 21 21 21 20 20 20 19 21 22 24 22 21 21 19 18 15 15 15 16 16 17 19 21 22 23 25 27 29 30 30 31
34 37 28 22 24 26 34 37 39 38 34 31 30 30 28 29 31 28 21 19 21 22 21 21 20 22 24 24 24 23 22 21 20 18 16 17 16 16 16 17 18 20 21 23 23 23 25 25 25
40 38 27 23 22 26 37 41 40 42 38 33 31 30 29 30 31 27 22 21 22 24 22 21 24 23 24 25 25 24 25 23 22 20 20 19 19 19 18 19 19 20 20 21 22 23 24 25 27
42 38 32 28 27 29 38 45 43 43 41 34 32 34 31 31 30 26 25 24 24 24 22 24 25 25 25 25 27 25 25 25 24 22 21 22 22 23 23 25 26 26 27 27 27 28 28 29 30
47 39 36 31 30 32 35 42 47 42 41 39 35 37 35 32 30 29 28 29 26 25 26 28 26 26 25 24 25 26 25 25 25 24 24 25 26 26 27 29 31 33 35 34 33 32 31 32 33
51 43 40 38 35 32 34 38 43 40 38 42 41 38 38 35 29 28 29 27 25 25 31 29 27 26 25 24 25 24 23 25 26 26 25 26 26 26 28 31 33 34 34 36 36 35 36 36 37
43 44 42 42 40 37 36 35 41 39 43 37 42 41 39 38 33 31 29 28 23 26 30 29 27 27 24 22 24 25 24 25 25 26 27 26 24 27 28 30 33 37 38 36 38 37 36 36 38
38 44 46 46 43 41 40 39 38 37 43 39 37 40 40 40 37 32 28 28 29 26 29 27 27 27 25 22 22 21 21 24 25 27 25 24 26 27 28 32 34 35 35 35 35 34 37 39 40
43 43 45 45 45 45 44 36 37 38 40 42 39 36 41 41 39 34 29 30 30 25 27 28 25 25 27 25 22 22 24 25 26 25 23 25 28 29 31 32 31 31 30 28 28 31 33 37 41
46 44 44 46 46 48 47 42 37 40 42 42 40 38 37 46 41 34 31 33 30 27 27 28 26 24 27 26 24 23 25 24 24 23 25 26 29 31 32 32 31 30 31 33 35 38 39 42 44
45 50 49 49 49 52 50 47 44 40 44 44 39 39 41 43 42 36 33 34 31 29 28 29 26 22 25 26 25 23 25 23 24 26 25 28 30 31 26 27 30 33 36 37 38 40 43 45 46
50 53 57 57 56 55 55 54 50 46 46 46 41 42 41 40 38 40 34 32 31 30 31 29 28 24 24 29 28 26 25 25 26 27 28 30 31 28 29 31 34 37 39 41 42 44 46 46 43
50 52 54 57 57 60 58 59 55 53 49 48 45 43 45 43 38 40 37 31 31 32 32 29 27 26 27 30 32 28 26 27 27 27 29 30 30 29 30 33 37 39 42 44 45 46 45 42 40
51 52 56 56 56 58 61 63 60 54 52 51 48 45 46 47 39 38 38 33 34 32 33 29 27 26 24 25 30 31 30 29 28 29 30 31 31 30 32 35 38 41 45 48 47 44 41 43 44
53 53 57 59 60 60 60 65 59 56 52 48 50 48 49 45 41 36 38 33 33 32 32 30 28 25 25 25 26 28 28 30 31 31 32 33 33 34 36 38 41 44 47 48 44 43 44 45 47
55 55 57 59 61 62 60 65 62 57 52 47 46 49 49 46 40 34 36 33 34 33 32 31 30 28 28 26 26 27 30 32 33 34 35 35 36 38 40 41 44 46 47 46 45 46 48 49 51
55 57 57 55 56 64 61 64 65 55 49 48 47 46 49 45 39 37 37 35 36 32 30 31 30 29 27 28 29 30 33 34 35 36 37 37 40 41 42 43 45 46 45 46 47 48 50 52 56
48 50 50 50 54 67 65 63 63 54 47 49 46 43 48 48 40 38 35 32 33 30 28 30 30 28 27 28 29 30 32 33 36 38 39 41 41 42 43 45 46 46 46 48 49 50 54 58 61
33 40 44 49 53 58 54 62 55 47 41 42 43 42 45 47 43 37 35 32 34 32 30 30 29 28 27 28 28 29 32 34 37 39 40 41 42 44 45 46 46 47 48 49 51 54 57 62 62
33 35 29 38 45 41 51 51 47 44 41 42 40 34 36 38 39 37 36 33 34 35 32 31 29 28 27 29 29 31 34 35 37 38 39 41 44 46 46 46 48 48 49 51 55 58 61 62 65
36 34 34 40 35 34 27 46 44 42 40 37 30 27 30 35 37 36 38 36 34 34 32 29 28 27 28 30 30 32 34 35 35 37 40 43 45 45 47 47 48 49 51 55 58 59 61 65 69
31 38 39 39 44 39 31 41 38 40 34 36 31 26 30 34 36 36 35 35 33 32 30 29 28 27 28 29 29 32 33 34 36 39 41 42 45 46 47 48 49 52 55 57 58 61 64 69 67
22 26 41 39 32 38 38 40 34 36 31 31 26 27 34 33 37 35 33 32 30 29 29 27 27 26 27 29 29 30 32 35 36 38 41 44 46 46 47 49 51 55 55 58 61 65 69 66 66

GFSSGP_500_spd_036.txt.gz
Wind_Speed
30 33 31 29 27 26 24 23 26 23 22 23 23 25 27 24 24 24 22 24 20 18 17 18 17 16 15 15 16 16 17 17 16 15 13 13 12 12 11 12 14 16 17 19 20 20 20 21 21
22 29 34 33 30 27 26 26 26 24 21 22 24 25 26 26 24 24 23 24 23 19 18 18 18 17 17 17 18 17 16 16 15 15 13 12 12 12 12 13 16 17 18 20 20 20 20 21 20
24 24 28 34 33 26 28 28 26 26 22 19 22 25 26 25 25 24 24 25 24 23 21 19 19 19 19 18 18 18 17 16 14 14 14 12 13 12 13 13 15 16 19 20 21 22 22 22 22
29 30 29 29 25 30 30 30 29 29 25 21 22 24 25 25 25 25 27 26 25 25 22 20 21 20 20 20 19 18 17 15 14 14 15 14 13 14 14 15 16 15 16 18 19 22 24 25 25
35 35 36 31 22 24 33 35 32 30 28 24 24 24 25 26 26 27 28 26 24 25 23 23 23 22 21 20 19 18 17 16 15 15 15 15 14 15 15 15 18 18 19 19 19 20 21 23 26
41 37 38 33 25 29 31 36 36 31 30 29 27 26 25 26 26 28 27 26 26 26 25 23 23 22 20 20 19 18 18 16 16 16 16 15 15 16 16 16 17 18 20 23 24 26 25 25 26
41 39 38 33 26 32 32 34 36 35 34 32 32 29 26 27 26 27 27 25 25 25 23 22 22 21 21 21 20 20 19 19 18 17 16 15 14 15 15 15 16 17 20 21 23 25 27 27 29
37 37 32 22 18 24 33 36 35 36 37 36 35 33 27 27 28 28 28 24 22 22 22 21 22 21 21 21 22 23 22 21 20 20 17 16 14 14 13 15 16 18 19 21 22 24 24 24 27
33 36 26 20 19 18 30 37 40 36 37 39 37 35 32 29 29 30 27 23 22 20 21 22 23 22 21 22 22 23 24 24 23 22 19 18 17 15 15 16 16 16 17 17 18 20 21 22 24
36 35 26 23 22 24 32 39 42 41 38 40 38 36 35 34 32 29 27 23 22 22 22 22 23 22 22 22 22 24 25 26 25 24 22 21 20 18 18 19 20 22 22 23 24 24 25 25 26
38 38 32 30 30 30 34 37 42 41 40 37 40 41 39 37 33 29 28 26 26 25 23 25 25 24 25 24 23 23 25 25 25 26 25 23 22 20 22 24 25 27 28 29 31 34 34 32 32
38 40 38 35 35 37 35 38 41 38 36 40 40 44 41 38 35 30 28 28 29 28 26 25 26 28 27 24 22 22 22 27 24 25 27 25 22 22 24 26 27 27 29 30 33 34 35 35 38
34 35 41 42 39 39 39 38 38 37 32 37 40 40 41 40 37 32 29 29 29 27 29 29 30 31 28 26 23 21 20 22 22 25 28 26 24 25 25 26 27 28 31 34 33 34 33 36 37
32 35 35 35 44 43 41 38 40 30 35 35 35 40 39 41 40 37 33 30 28 26 28 30 31 32 31 28 25 21 19 20 23 24 26 26 25 25 25 25 27 29 30 31 31 32 30 30 32
32 34 36 34 33 42 45 45 41 33 37 36 37 35 39 40 41 40 38 32 27 27 31 28 31 31 30 29 25 21 19 20 21 23 24 25 24 24 25 27 27 31 31 30 29 30 29 30 32
35 36 35 35 36 39 47 46 39 39 39 38 39 36 36 37 38 43 41 36 31 30 31 30 29 28 29 28 26 22 21 21 22 23 25 25 25 25 26 28 31 33 31 29 30 30 31 34 37
37 38 38 39 40 42 46 50 46 45 45 44 43 40 36 36 35 40 43 40 35 33 30 32 30 28 28 28 26 23 24 23 23 25 26 26 27 26 29 32 34 31 26 28 32 34 36 37 40
40 42 43 44 44 47 49 51 49 48 49 47 44 42 39 38 37 38 43 43 39 37 31 30 33 27 27 27 26 24 26 26 25 25 26 26 28 29 32 32 33 30 30 33 36 37 38 39 42
45 45 46 46 47 50 53 53 51 49 52 48 44 42 40 38 38 40 40 40 41 38 33 30 33 29 27 26 25 27 29 28 26 25 26 27 29 31 32 32 31 31 33 36 37 38 41 42 43
48 49 49 49 48 51 52 54 56 54 54 50 47 44 39 39 40 41 39 34 42 39 36 32 33 31 28 28 27 27 31 31 28 28 28 29 30 31 32 31 32 33 35 37 39 42 44 46 46
50 51 52 54 54 54 55 53 56 58 57 54 51 47 44 43 43 45 41 35 37 41 36 35 34 32 28 28 26 26 30 33 32 31 30 30 31 32 32 34 36 36 39 41 43 44 46 48 46
51 52 55 57 60 58 57 59 53 54 60 57 53 50 49 46 45 47 42 36 33 41 39 37 34 34 30 26 24 26 29 31 32 34 33 32 33 34 37 38 39 40 42 44 45 47 47 46 46
51 53 55 57 59 62 59 67 54 52 51 57 56 53 51 50 48 49 42 38 34 39 40 38 35 34 31 26 24 27 27 28 29 31 32 34 35 37 39 41 42 43 43 45 48 48 46 47 48
51 52 55 58 60 68 62 66 59 56 48 46 52 51 51 50 50 48 43 40 37 37 37 36 36 34 31 28 28 28 28 28 30 32 33 36 37 38 41 43 43 44 45 47 48 48 49 49 51
36 35 41 44 47 56 63 70 65 57 57 48 49 50 49 50 49 48 43 39 36 36 36 35 35 33 31 30 29 28 28 29 31 32 35 37 38 41 42 43 43 45 47 48 49 50 51 52 54
38 39 42 51 50 48 48 59 71 63 62 52 48 48 48 48 47 45 41 40 38 38 37 36 33 33 31 29 28 29 29 29 32 34 36 38 40 41 41 42 45 46 47 49 50 51 53 55 59
39 44 44 54 48 46 50 45 51 61 63 51 43 48 48 47 44 44 41 39 39 39 37 35 34 31 28 29 29 30 29 31 34 35 36 38 39 40 41 44 45 48 49 50 51 53 56 59 62
38 40 42 48 50 48 44 39 43 36 43 40 45 41 42 41 40 39 41 40 41 39 38 36 35 30 29 30 30 31 31 32 34 34 34 36 38 40 43 45 47 49 50 51 53 56 58 59 63
37 42 41 44 45 48 43 31 25 27 34 36 41 42 38 33 33 35 39 40 40 40 38 37 35 31 30 31 31 31 31 31 31 32 34 37 39 42 45 47 48 49 51 54 56 58 59 62 65
40 36 35 42 42 38 34 27 35 20 26 34 40 37 38 32 30 34 39 41 41 38 37 37 33 31 31 31 31 31 30 29 30 33 35 38 41 44 46 47 49 51 53 56 56 58 62 66 70

GFSSGP_500_spd_039.txt.gz
Wind_Speed
25 29 31 33 31 28 26 24 23 21 20 18 19 23 25 24 24 22 20 18 18 19 18 18 19 18 15 14 13 14 14 14 13 12 11 11 9 9 8 9 10 11 13 15 17 19 20 19 20
22 24 29 34 33 28 26 26 25 23 21 19 18 21 24 25 24 24 22 21 18 17 19 18 19 19 17 16 15 15 16 15 14 13 11 11 11 11 10 10 11 12 14 15 17 19 21 21 20
24 24 25 29 31 27 26 27 27 26 23 21 19 19 22 24 25 23 23 23 23 20 19 20 18 18 17 17 17 17 18 17 15 13 12 12 12 12 12 13 13 13 14 16 17 18 20 22 22
29 29 29 26 18 20 28 33 30 29 26 23 22 22 21 22 24 25 26 26 26 24 23 21 20 20 19 19 19 19 19 18 16 13 12 13 12 12 13 14 16 15 15 15 14 15 17 19 21
34 34 35 29 19 20 24 28 31 32 30 27 25 24 23 22 23 25 26 26 25 26 23 23 23 23 21 19 20 20 19 18 16 15 13 13 13 14 14 15 15 16 18 20 18 18 18 19 20
34 35 37 31 22 25 29 31 31 31 33 32 30 28 24 22 22 24 26 27 27 25 24 25 24 23 22 22 20 20 20 19 18 17 15 14 14 14 15 15 15 16 17 19 19 20 21 23 24
34 34 36 33 25 29 30 36 33 32 33 35 34 31 28 25 24 25 27 28 27 25 26 26 25 23 22 21 20 20 21 21 20 19 17 16 15 14 14 14 14 15 17 17 18 18 20 21 24
34 35 33 30 27 27 34 38 37 36 32 36 36 34 31 28 28 27 26 25 24 23 25 26 25 23 23 21 20 20 21 22 22 21 20 18 17 15 15 15 14 14 16 16 16 18 19 20 21
32 35 27 22 25 23 31 35 37 36 35 35 37 38 35 32 31 30 29 28 26 23 25 24 24 24 24 22 22 21 22 23 24 24 22 21 20 18 17 17 17 16 16 16 17 17 17 19 20
28 29 22 21 24 27 30 32 34 34 34 38 37 38 39 36 35 33 31 29 28 26 26 25 25 26 25 24 24 22 21 22 25 26 25 24 24 21 21 20 20 20 21 23 25 25 26 28 30
25 21 26 25 25 28 29 31 36 35 31 34 38 39 39 40 38 35 32 31 30 28 28 28 27 26 25 25 24 23 22 22 24 26 26 27 26 24 23 22 21 23 24 26 26 27 28 31 32
23 21 23 27 30 30 31 35 37 37 29 32 35 37 39 38 40 36 33 31 31 29 30 31 30 29 28 27 26 24 22 23 23 28 27 27 27 26 24 24 22 23 25 26 26 29 31 30 29
22 20 22 24 28 32 34 34 38 41 33 33 33 35 36 38 37 38 36 33 30 30 31 33 34 32 31 30 29 26 24 24 23 24 28 27 26 26 25 24 23 25 25 27 28 28 28 27 25
23 23 23 23 25 29 33 38 45 37 36 35 35 33 34 33 35 38 37 35 33 31 31 32 33 33 34 33 33 29 25 25 23 24 26 26 24 25 26 24 25 26 27 27 29 30 28 26 26
26 25 25 25 25 27 32 35 41 39 41 40 36 34 35 31 34 32 38 38 35 31 33 33 33 33 33 35 35 30 25 25 25 26 25 25 24 24 22 24 26 28 27 29 32 34 29 27 30
26 26 26 28 30 30 31 31 34 39 43 42 41 39 37 30 31 35 34 40 39 35 32 34 36 34 33 34 33 29 25 26 26 26 25 24 24 22 23 25 27 28 29 32 34 31 28 29 34
24 29 30 31 33 35 35 34 31 39 43 44 45 45 42 37 32 32 36 38 41 41 35 34 36 34 34 34 32 27 26 28 29 27 27 25 24 24 26 26 28 30 31 34 32 31 30 33 37
31 32 33 34 36 37 38 39 33 37 43 47 49 48 44 41 36 35 38 40 37 38 41 36 34 34 36 37 33 28 28 29 30 30 29 26 25 26 27 29 30 32 34 33 32 32 33 36 37
34 37 39 42 44 45 44 44 44 39 40 46 51 52 49 45 42 39 39 42 40 33 39 42 36 34 34 37 33 30 29 31 31 32 29 27 27 28 29 31 32 33 33 32 33 34 37 37 39
41 45 48 51 52 54 54 54 51 45 41 45 49 51 52 48 46 43 41 43 44 36 31 41 38 36 36 35 34 30 31 30 31 31 29 31 30 29 31 32 34 34 34 35 36 39 39 40 41
46 48 50 53 55 57 57 57 52 50 48 46 50 52 50 49 47 43 42 43 45 38 33 38 40 38 36 35 35 30 32 32 30 31 34 34 32 33 33 34 36 36 37 38 41 42 43 43 43
46 46 49 52 54 54 55 61 56 53 50 50 49 53 53 49 49 47 43 43 46 39 36 37 41 39 36 34 34 31 31 32 32 30 33 37 37 36 36 37 37 38 40 43 44 44 44 45 48
44 48 51 53 56 58 57 64 54 57 51 48 52 53 53 52 51 49 45 43 45 40 38 37 38 41 37 35 34 31 32 31 30 29 32 36 37 37 37 37 39 41 44 45 45 45 46 48 49
48 49 49 50 51 58 53 56 55 55 57 54 52 53 52 54 54 52 49 46 45 40 42 40 35 39 38 35 33 33 32 31 30 31 32 34 35 36 36 38 41 44 45 45 45 47 49 50 51
43 38 40 42 45 46 41 44 49 50 53 61 58 54 54 52 56 55 51 49 46 40 41 41 35 36 36 34 35 35 35 32 30 32 34 36 36 36 37 39 44 44 43 45 47 49 51 52 53
33 36 39 45 48 50 50 43 36 40 45 49 58 60 53 54 50 53 51 50 46 41 40 41 37 37 36 35 34 36 35 32 31 32 32 34 35 36 37 41 42 42 44 47 49 51 53 54 56
33 37 40 50 53 57 53 51 45 37 42 48 52 49 55 55 51 49 50 48 43 41 40 42 39 38 37 34 34 35 33 31 31 32 33 33 35 37 39 39 39 42 46 49 51 53 55 56 57
31 36 39 47 55 57 57 47 39 35 32 34 37 36 53 47 52 49 45 44 41 40 42 44 41 40 37 34 32 31 31 31 31 32 33 34 34 35 36 37 41 44 48 51 53 54 55 57 58
31 41 45 44 49 52 52 44 35 26 27 25 25 29 48 45 51 48 44 41 39 39 42 44 40 40 37 34 31 31 32 33 32 32 33 33 33 34 36 40 43 47 49 52 53 55 56 56 58
37 41 42 51 55 51 47 36 23 24 19 26 19 34 47 46 47 44 41 38 40 40 43 43 39 40 38 33 33 33 32 32 33 34 33 32 33 35 39 43 46 49 51 52 54 55 56 58 63

GFSSGP_500_spd_042.txt.gz
Wind_Speed
24 26 28 30 30 30 28 26 24 23 23 19 18 19 20 22 23 24 20 21 19 18 19 20 19 20 20 21 19 16 15 14 14 13 12 13 13 13 12 11 12 12 13 14 16 17 18 19 20
23 23 26 28 31 29 28 29 28 26 24 22 20 20 21 23 21 23 23 22 19 19 18 19 21 21 21 21 20 19 17 16 16 15 14 13 12 13 12 12 12 13 14 16 17 19 20 21 22
24 25 26 26 26 26 29 31 31 29 27 24 22 21 22 21 22 21 21 23 24 20 21 19 20 21 21 21 20 19 18 18 17 16 15 13 13 13 13 14 14 15 16 17 19 20 20 21 22
27 28 27 26 18 21 26 34 33 31 30 27 25 24 22 23 22 23 22 21 25 23 22 23 21 22 22 22 22 21 20 19 19 18 17 15 14 14 14 15 16 18 18 18 18 17 19 19 19
31 30 32 26 20 21 24 27 29 33 34 30 29 28 25 25 24 23 23 24 25 25 22 22 23 24 24 23 22 22 21 20 20 19 17 16 16 15 15 16 17 18 18 19 20 21 22 21 21
33 32 33 27 24 25 28 29 29 30 31 33 33 31 27 25 24 23 23 24 26 25 25 24 24 24 24 22 22 22 23 22 22 20 19 18 17 16 15 16 17 17 18 18 19 20 21 21 22
35 32 33 30 27 31 31 35 31 32 32 33 34 35 32 28 27 26 25 25 27 26 25 24 25 26 24 23 22 22 22 23 23 23 21 19 18 16 16 16 16 16 16 16 18 18 19 19 21
34 34 35 27 25 29 36 37 37 35 36 35 34 36 37 33 30 29 28 28 28 26 25 25 28 28 25 23 22 22 22 22 22 23 23 21 20 19 17 16 16 16 16 17 17 17 17 17 17
35 35 30 25 26 28 36 40 41 38 36 36 37 34 35 36 35 33 32 30 29 27 26 27 28 28 27 25 23 23 22 22 22 24 25 24 23 22 21 19 19 18 18 18 18 19 20 21 23
34 31 24 24 26 32 37 40 40 37 31 31 34 35 34 34 37 37 35 33 30 29 28 28 29 30 29 29 27 25 24 22 21 23 25 27 26 25 24 23 22 21 21 22 22 23 25 27 28
32 25 24 24 28 31 33 35 36 35 30 26 30 33 34 36 35 37 38 35 35 32 30 30 31 32 32 30 29 26 25 24 23 24 26 27 28 28 27 25 23 24 24 23 23 24 26 27 29
30 26 24 24 28 30 30 33 34 35 28 31 31 31 31 34 36 35 38 38 37 33 32 31 32 34 33 33 32 28 27 25 24 24 27 29 30 29 28 27 25 25 25 25 25 25 27 28 28
27 23 22 23 26 30 33 31 33 38 34 35 32 31 30 30 33 35 35 38 37 35 33 32 32 33 35 35 33 31 30 27 24 26 27 29 32 31 27 27 27 27 27 26 27 27 29 28 30
26 23 22 20 22 25 30 33 38 34 35 40 39 35 33 32 31 32 34 34 39 38 36 33 33 32 33 35 35 34 32 30 27 27 29 30 32 29 27 27 28 28 27 27 29 29 30 31 33
27 24 22 21 23 24 28 30 30 32 40 42 41 38 36 35 33 31 31 35 37 40 39 35 35 34 34 35 35 35 34 33 30 29 30 32 31 28 27 27 28 28 28 28 30 31 31 33 32
29 26 24 24 26 26 27 22 27 31 33 35 44 45 41 38 36 32 32 34 37 40 41 39 36 35 36 35 35 34 33 32 32 30 31 34 32 30 28 28 28 28 29 30 30 32 33 34 30
26 27 26 26 26 27 29 29 27 29 30 34 38 44 45 42 39 34 31 34 39 39 42 42 38 37 37 36 36 36 34 31 33 31 32 34 32 32 29 28 29 29 30 31 31 33 35 35 33
27 27 27 26 27 28 31 35 31 32 32 33 35 39 44 45 42 43 38 35 38 41 39 43 42 40 40 38 35 34 36 32 33 34 34 36 35 33 31 30 30 30 31 32 33 35 35 35 36
27 28 31 31 32 37 37 39 40 38 36 36 39 39 43 48 47 46 45 39 39 41 42 38 43 43 42 40 36 34 34 36 36 37 35 35 36 35 33 32 31 32 33 34 35 36 37 36 37
28 31 34 38 39 42 44 42 48 49 49 48 46 46 45 47 52 52 50 45 40 40 44 40 38 45 45 42 38 36 35 37 36 36 33 34 35 37 35 34 33 34 35 37 37 38 39 40 40
31 35 39 43 46 49 53 51 57 57 55 51 49 49 50 50 52 53 54 53 46 44 43 45 40 41 47 46 40 37 37 36 36 36 34 33 36 39 37 37 36 36 38 39 39 41 42 43 44
35 38 44 47 49 50 51 58 55 54 50 49 50 52 54 54 54 55 55 54 51 44 45 47 41 41 43 44 41 39 37 36 36 36 37 36 36 39 40 40 40 40 41 41 42 43 45 45 48
38 40 44 46 48 50 52 57 49 53 52 53 55 56 56 59 58 56 56 54 53 48 44 46 41 42 41 41 43 40 37 36 36 35 34 35 37 37 39 41 41 42 42 43 44 44 46 50 50
39 41 42 46 49 53 51 52 51 51 56 57 56 59 60 60 60 59 56 57 55 52 47 46 39 41 43 39 43 41 37 36 36 35 33 35 36 36 38 39 40 42 43 45 45 45 48 50 49
37 39 44 45 47 50 44 42 27 24 32 35 39 42 52 62 61 60 56 57 57 53 49 45 39 42 42 39 40 41 38 37 38 36 35 35 37 38 39 41 41 43 44 45 43 46 48 49 51
36 39 33 41 41 41 44 42 34 40 39 46 53 51 43 55 61 59 58 55 58 54 50 44 40 41 41 39 38 39 38 38 38 38 37 37 38 37 41 41 41 42 43 43 43 46 49 51 53
32 33 37 39 40 46 50 49 49 45 43 50 56 55 54 45 54 58 56 54 58 56 51 45 41 41 41 39 38 38 37 37 37 38 38 36 37 38 40 41 41 41 41 41 44 48 50 53 56
32 32 31 35 45 52 54 55 56 50 40 46 51 52 53 49 50 51 53 53 55 57 52 45 44 44 42 40 40 39 37 36 37 37 37 36 36 38 39 39 39 39 40 43 47 50 53 56 57
28 27 34 39 43 47 51 48 44 42 39 37 41 48 46 48 44 47 51 53 52 56 50 44 44 45 44 40 39 38 36 36 36 36 37 37 37 38 39 38 38 39 42 46 49 53 55 57 58
30 32 34 37 39 44 44 44 39 37 37 34 36 35 33 35 39 49 50 51 48 50 46 43 44 45 43 40 39 37 37 36 36 36 37 38 38 39 38 37 39 42 45 48 52 55 56 57 59

GFSSGP_500_spd_045.txt.gz
Wind_Speed
27 27 28 29 30 29 27 27 27 25 24 24 20 20 23 22 25 23 24 21 23 22 22 21 19 21 22 23 24 24 23 22 21 19 18 17 16 15 15 15 15 16 15 15 15 16 17 17 18
26 26 27 28 29 29 25 29 28 28 27 24 23 22 21 25 24 24 24 22 22 24 24 23 21 21 22 23 23 24 24 22 21 19 18 17 17 17 16 16 16 17 17 17 17 17 19 19 19
26 26 27 27 25 22 25 34 31 29 29 28 26 24 26 28 23 24 23 23 22 23 25 23 21 22 23 23 24 24 24 23 21 20 19 17 17 17 17 17 17 17 17 17 18 18 19 20 21
28 29 30 29 21 18 23 32 34 31 31 29 28 25 26 24 26 24 24 23 23 24 23 24 25 22 22 24 24 24 24 23 23 21 20 19 18 17 17 18 18 18 19 19 19 18 18 19 21
33 32 32 29 19 20 24 28 28 30 35 32 29 30 30 27 25 25 24 23 23 25 24 24 26 25 24 24 26 26 25 25 25 23 21 21 19 18 18 18 18 18 19 20 20 21 22 23 23
37 35 35 29 21 24 27 29 28 28 31 32 31 33 32 29 29 26 25 25 24 26 25 24 26 26 26 26 25 24 25 26 25 24 23 22 21 19 19 18 18 18 18 19 19 20 21 21 21
38 38 35 33 26 30 30 35 31 32 32 30 30 30 37 34 30 29 28 27 27 27 27 26 25 26 26 26 26 25 25 25 24 24 24 24 22 22 20 19 18 18 17 17 17 19 20 20 21
39 39 37 35 26 29 34 40 35 36 33 38 30 28 33 36 34 33 31 31 30 30 29 27 27 27 27 28 27 25 24 24 24 23 24 24 25 23 22 21 20 19 18 17 18 20 20 20 20
38 42 38 31 29 29 41 36 39 40 37 36 34 33 37 32 33 35 34 33 33 31 30 29 28 28 28 28 27 27 26 25 24 23 23 24 25 26 24 23 22 20 20 20 20 20 21 22 23
40 41 35 31 33 36 40 36 40 42 39 38 34 36 36 36 34 33 36 35 35 33 32 31 31 29 29 29 29 29 28 26 25 24 23 23 25 27 27 26 25 24 23 23 23 24 25 26 26
40 40 33 34 33 35 38 35 41 43 43 36 34 35 33 32 34 34 33 37 37 36 34 33 32 32 32 32 31 31 30 29 27 25 25 25 26 28 30 29 27 26 26 27 28 27 27 27 27
40 38 37 34 31 35 35 35 38 37 38 37 35 34 24 29 31 32 34 35 36 38 36 35 35 34 33 34 34 33 32 30 28 26 26 27 28 29 30 30 29 29 29 30 30 29 28 29 29
38 36 37 32 33 32 34 33 34 37 36 33 32 32 29 29 30 30 31 33 36 36 37 38 37 36 34 34 35 34 33 31 28 29 29 29 29 30 31 32 30 30 31 32 31 31 30 30 30
40 36 34 33 30 31 31 32 33 33 32 35 36 34 32 33 32 33 31 31 33 36 37 40 39 38 37 35 36 36 34 32 30 30 31 31 31 32 32 31 31 31 33 33 33 32 31 31 32
39 37 33 31 30 29 29 30 30 30 34 35 35 35 36 36 37 36 35 32 32 36 39 39 40 39 37 37 37 36 36 35 32 34 33 32 34 33 32 32 31 32 33 33 33 33 33 32 33
40 38 35 33 30 31 28 25 27 29 33 35 38 37 37 37 38 37 36 36 35 34 38 39 40 41 40 39 38 38 38 35 33 35 34 34 35 35 29 36 32 33 33 33 33 34 34 33 33
41 38 35 35 33 32 29 28 28 27 29 31 34 37 38 36 35 38 38 38 37 38 37 39 39 41 43 41 39 39 38 35 33 34 33 35 36 36 36 37 35 34 34 34 34 35 34 35 35
40 40 37 33 32 31 32 32 29 32 33 34 34 35 37 37 34 35 39 40 39 37 38 39 39 41 44 44 42 40 38 35 33 36 36 36 37 37 39 38 37 37 36 36 36 35 35 36 37
36 33 31 30 30 32 33 33 33 33 32 34 36 37 38 39 40 39 38 40 43 42 40 39 41 42 44 45 45 44 41 38 33 36 39 37 36 37 38 40 39 40 38 38 37 37 37 38 39
30 30 30 30 31 34 35 35 38 37 39 41 42 43 43 43 45 46 45 42 44 46 44 43 42 43 44 43 46 48 47 39 37 38 38 38 36 37 37 40 41 40 41 40 39 39 39 40 41
28 30 31 34 35 36 40 39 41 43 44 48 50 52 55 55 55 53 54 51 47 48 48 45 44 43 44 44 44 49 47 41 43 40 38 39 38 39 37 36 38 40 42 43 42 42 42 42 43
28 31 33 36 38 40 41 45 42 47 50 53 55 56 59 60 57 56 57 57 55 50 51 50 48 47 45 46 46 44 46 46 43 41 40 40 39 40 40 37 39 41 44 45 45 45 46 45 45
31 32 35 38 41 44 45 52 43 50 51 53 54 56 56 54 57 57 57 58 58 56 54 55 53 51 50 45 45 45 43 42 42 40 41 40 42 40 38 39 41 41 44 45 46 46 47 47 48
31 34 36 40 44 47 48 52 44 50 51 51 53 49 52 58 58 59 60 58 60 59 56 55 55 51 50 47 45 47 43 38 39 40 40 41 40 40 38 38 40 41 43 44 45 45 47 48 49
33 35 38 42 43 45 48 52 49 47 35 41 44 47 44 44 51 59 61 62 60 60 57 54 54 52 50 47 45 47 42 40 39 41 42 39 39 39 39 38 40 42 44 45 46 47 48 48 49
32 34 34 40 44 45 50 51 41 42 39 47 49 51 51 50 51 51 52 59 62 60 57 54 55 52 51 45 44 46 43 41 39 41 41 40 39 40 41 40 42 43 44 45 47 48 48 48 48
30 32 35 39 40 45 45 44 47 50 49 46 50 54 55 58 57 56 53 47 57 58 58 54 56 53 50 45 44 45 44 42 40 40 40 39 40 40 41 41 41 44 44 46 47 48 47 47 48
32 30 32 35 40 44 46 51 53 54 49 54 54 53 58 58 54 57 56 51 43 48 57 54 56 53 49 45 46 46 44 43 40 37 38 40 39 40 41 41 41 42 43 45 46 46 46 49 51
27 26 29 35 41 45 51 50 52 46 46 48 50 53 54 57 58 56 56 56 45 45 53 52 55 54 49 46 44 46 44 42 39 38 38 39 39 40 40 41 42 43 44 45 45 46 48 51 55
23 22 29 34 36 43 46 46 43 41 42 42 40 42 46 50 42 46 53 50 43 47 51 51 51 52 48 46 46 45 45 42 38 38 38 38 38 39 40 41 42 44 46 45 46 48 51 54 57

GFSSGP_500_spd_048.txt.gz
Wind_Speed
33 32 33 33 33 30 26 23 27 23 22 23 23 19 17 21 28 26 26 24 22 23 23 23 20 21 22 22 24 25 26 26 24 23 22 21 20 20 19 19 19 18 17 16 15 15 16 16 16
33 32 33 34 32 30 23 23 31 25 30 21 22 21 21 26 24 26 23 22 20 22 23 24 23 21 22 22 23 23 25 26 26 25 24 23 22 21 20 19 19 19 18 17 18 18 18 18 18
32 32 32 33 30 23 22 24 31 29 27 26 26 24 27 33 24 23 24 23 22 22 22 23 24 23 23 24 24 24 25 25 25 26 26 25 22 21 20 20 20 20 19 19 19 19 19 19 19
32 34 33 33 24 18 21 30 33 31 27 27 28 26 31 30 25 21 26 23 23 22 22 24 25 26 25 25 25 25 25 25 25 25 26 25 24 22 21 21 20 20 20 20 20 19 19 19 18
35 34 34 33 21 20 22 27 31 24 28 30 27 27 33 28 25 25 27 26 25 23 24 25 25 26 26 26 26 25 26 25 25 25 26 25 24 23 21 22 21 22 22 21 21 21 21 20 21
36 36 36 32 21 22 24 27 29 23 24 26 26 29 37 26 29 27 28 28 28 24 25 26 26 27 26 26 27 27 25 26 27 26 26 25 25 24 23 22 21 21 21 20 20 19 20 20 19
36 36 37 33 26 27 27 27 33 26 26 24 24 27 33 32 29 29 29 30 29 29 26 29 27 27 28 27 27 27 26 25 26 27 27 26 25 24 24 23 21 19 19 18 18 18 18 18 19
37 38 39 36 30 27 29 32 41 32 28 30 29 23 31 36 24 31 31 31 31 32 29 28 28 29 28 28 28 28 27 27 26 26 25 25 25 24 24 23 22 20 19 19 18 19 19 19 20
41 41 39 33 30 27 31 39 48 30 36 35 32 27 36 36 25 27 30 33 33 33 32 29 30 29 29 29 28 28 27 26 26 26 26 24 24 24 25 25 23 22 21 20 20 20 21 21 21
43 40 37 33 29 35 39 45 44 32 37 36 35 33 38 35 32 31 33 32 34 34 34 34 29 31 30 29 29 29 28 27 26 27 27 25 23 23 25 25 27 26 25 25 24 24 25 26 26
44 41 36 33 34 37 37 40 37 39 40 37 39 38 40 36 33 31 32 33 32 34 36 35 34 31 33 31 31 30 29 29 28 27 28 26 27 26 26 26 27 28 28 28 28 28 29 30 29
45 44 38 35 39 36 35 38 41 40 38 41 41 37 37 26 30 29 29 31 32 33 33 35 36 36 33 34 32 32 31 31 29 27 27 27 28 28 27 27 28 27 29 31 32 32 32 32 32
46 46 39 37 38 32 37 39 38 37 38 36 39 35 33 25 28 30 28 28 30 31 31 32 35 36 37 34 35 33 32 33 32 28 27 28 29 30 30 28 28 29 30 31 33 34 34 34 34
47 46 41 38 34 34 38 36 38 37 34 35 35 31 30 31 31 33 30 28 30 31 33 31 36 36 37 35 35 36 33 33 33 32 30 29 30 31 31 30 30 29 30 32 34 35 35 35 35
45 44 43 39 35 36 38 38 37 34 36 32 31 31 29 32 30 32 31 32 32 32 35 34 34 36 35 37 37 38 35 35 34 33 32 33 33 34 33 33 32 31 31 31 33 35 36 36 35
42 45 44 37 37 37 38 33 35 35 33 29 30 30 28 27 28 30 32 34 35 35 37 37 35 32 35 36 37 39 39 34 33 34 34 34 36 36 35 36 36 32 34 33 34 35 36 35 36
44 42 43 40 39 39 37 34 33 32 29 27 29 28 27 26 27 27 28 31 35 37 38 39 37 33 35 34 35 40 42 40 33 34 33 32 35 36 35 35 37 34 32 36 36 36 36 36 36
40 41 42 41 40 40 39 35 33 32 28 29 29 30 30 29 29 29 29 30 32 36 39 40 41 34 38 37 34 38 41 41 37 35 33 33 36 36 36 36 37 37 38 40 38 38 37 38 38
40 41 40 40 40 39 40 38 35 34 32 31 33 34 33 34 35 36 35 34 34 35 38 41 43 38 38 38 37 36 41 42 40 37 36 34 36 36 36 36 37 37 40 43 39 42 40 40 39
38 35 33 36 38 40 40 39 37 34 34 35 34 35 36 38 41 41 41 41 40 38 38 41 45 45 39 41 38 39 43 37 39 39 40 37 36 37 37 38 38 39 40 40 41 42 41 43 42
32 32 31 33 34 34 37 38 35 36 34 35 38 41 43 45 47 48 49 50 49 48 46 44 45 48 49 43 46 43 40 37 40 40 42 41 38 37 39 38 40 38 36 39 37 37 38 42 45
28 29 27 29 30 33 34 38 34 36 38 41 44 47 50 52 53 55 56 57 58 56 53 52 50 50 54 49 49 45 42 40 42 42 40 40 40 40 40 39 40 39 37 40 41 41 41 43 45
25 24 26 27 29 32 32 38 36 38 42 46 52 54 54 55 57 58 60 61 61 61 59 55 55 54 55 54 51 47 44 40 42 44 40 40 41 43 42 39 40 41 40 39 41 42 43 43 44
22 23 26 28 30 33 35 39 34 40 46 51 53 53 52 54 56 58 59 58 58 59 60 59 58 55 53 56 54 50 45 45 43 44 43 40 40 42 39 38 38 39 39 40 41 42 43 44 46
23 25 27 30 31 33 40 41 36 41 47 50 48 46 49 48 46 46 49 49 51 57 60 60 59 56 54 54 54 52 49 49 47 44 44 42 40 41 40 39 38 38 40 41 40 44 44 45 47
23 24 27 32 35 37 40 40 38 43 46 46 45 47 47 49 52 52 50 48 46 42 40 52 61 59 55 52 51 51 50 51 48 45 45 44 40 39 39 39 41 41 41 41 41 42 44 45 47
21 25 28 32 33 38 39 39 41 44 46 47 51 54 55 50 52 50 48 46 49 52 49 47 47 58 54 52 52 51 48 48 48 46 45 44 43 39 39 40 40 41 42 41 41 43 44 46 47
26 26 27 29 34 35 38 38 43 43 43 46 50 55 53 49 46 46 45 45 46 47 52 51 50 49 54 52 51 50 47 46 47 44 44 44 43 40 40 39 39 39 41 41 43 45 46 47 48
23 23 24 28 29 34 35 37 37 38 43 44 45 46 47 50 55 53 47 48 47 49 50 50 44 47 52 52 48 47 45 46 45 43 43 43 42 41 39 39 38 39 40 42 44 45 48 49 48
20 22 24 26 29 30 32 38 36 37 40 46 47 48 45 49 49 46 42 39 43 52 58 56 51 44 49 47 44 46 45 45 44 43 40 41 41 39 38 38 38 38 42 44 46 47 50 49 50

GFSSGP_500_spd_051.txt.gz
Wind_Speed
33 34 34 34 35 33 27 23 29 26 23 22 20 18 16 19 21 24 20 21 22 19 22 21 21 19 20 21 22 22 22 23 24 24 23 24 23 23 22 21 21 20 20 21 20 19 18 19 18
36 36 37 38 36 33 24 27 32 32 27 25 19 20 22 27 23 23 20 21 21 20 21 22 22 22 21 22 23 23 23 23 24 24 25 25 25 25 25 24 23 21 21 21 20 19 19 19 18
38 39 37 38 34 27 20 31 32 33 29 25 27 26 30 32 20 21 19 20 22 20 21 21 22 23 25 25 24 25 25 24 25 25 25 25 26 27 26 26 24 23 22 22 21 21 19 20 21
41 40 38 37 28 23 22 33 35 33 28 28 30 27 32 30 21 24 25 21 22 21 21 22 23 24 25 25 25 25 26 27 26 27 27 27 27 27 27 27 25 24 23 23 23 22 21 21 21
40 39 38 34 24 23 24 31 35 31 24 26 28 30 33 32 25 28 29 25 21 24 23 23 24 24 26 26 27 27 27 27 28 27 27 27 27 27 28 27 26 25 24 24 23 23 23 23 22
40 39 38 31 24 24 25 29 32 29 23 24 25 31 33 29 28 27 31 28 26 25 25 24 24 23 25 26 27 27 28 27 27 27 28 28 28 27 27 27 27 25 24 23 23 23 23 22 22
40 38 35 32 27 29 26 29 33 30 26 22 22 27 32 30 27 29 31 31 29 26 26 27 26 26 25 25 25 24 25 27 28 27 26 26 27 27 27 26 26 26 25 23 23 22 21 22 21
39 40 38 36 29 27 27 30 36 34 28 26 28 27 30 22 20 25 29 29 29 29 30 30 29 28 26 25 24 24 26 25 26 28 27 26 25 24 24 24 25 25 24 23 22 21 21 21 21
42 43 39 32 29 24 28 33 38 41 32 29 32 27 31 27 23 24 25 26 26 27 29 30 30 29 29 28 27 26 25 25 25 26 27 26 25 24 23 23 22 23 23 24 23 22 22 22 22
45 43 37 31 31 29 33 37 41 43 33 28 32 31 32 35 28 26 26 30 29 26 27 29 31 31 31 31 30 29 27 26 25 24 25 25 25 25 24 23 23 23 24 25 25 25 25 25 26
47 44 39 38 36 35 35 38 43 41 34 29 30 35 36 37 34 30 28 28 29 30 29 27 28 30 31 32 32 30 30 28 27 26 24 23 25 26 26 26 25 24 25 26 28 28 28 29 29
47 46 45 40 41 38 35 35 39 38 36 35 32 40 37 36 33 30 26 26 28 28 29 27 27 29 31 32 33 32 32 31 30 29 26 25 25 25 26 27 27 26 25 26 28 30 31 33 32
49 48 47 44 43 42 35 31 35 34 37 35 37 39 38 35 27 31 29 29 28 26 26 27 26 28 29 30 34 34 34 33 33 31 30 28 26 26 27 28 29 28 27 27 27 29 31 33 35
50 49 47 45 43 43 35 31 38 36 36 35 38 38 36 32 24 27 30 31 28 27 27 27 30 30 28 29 31 33 32 34 34 30 31 31 30 29 30 29 29 30 29 30 30 30 30 32 34
48 47 44 43 42 43 40 39 40 33 37 35 34 36 33 29 27 29 31 31 27 30 30 26 28 35 30 29 29 32 31 33 34 33 32 32 31 31 31 33 33 33 32 32 32 31 28 30 33
46 45 45 41 44 44 43 39 34 35 35 36 34 33 33 28 26 27 29 28 27 29 31 31 29 32 33 30 29 31 30 30 32 32 34 31 30 31 32 34 34 32 33 32 32 33 35 32 34
44 44 43 40 44 45 44 40 35 38 36 34 32 31 31 28 26 25 26 27 28 29 31 33 34 32 34 34 32 34 31 29 29 30 32 32 31 30 32 33 32 31 32 32 32 32 35 38 37
40 44 44 43 45 45 44 41 35 36 34 32 32 31 30 28 26 26 29 30 32 32 32 33 34 32 32 34 35 36 36 33 32 28 32 31 32 33 33 33 31 33 33 34 35 35 36 36 38
41 43 42 41 42 42 41 42 36 35 34 34 33 33 33 30 31 32 32 32 34 34 33 32 33 34 33 35 36 35 38 40 36 27 31 30 31 36 36 34 33 33 33 35 36 38 39 38 39
39 39 37 37 39 41 39 40 39 36 37 37 36 35 35 36 36 36 36 37 37 38 38 38 37 36 37 38 39 39 39 42 40 32 33 30 31 36 40 35 35 35 34 34 34 36 37 38 36
34 34 33 34 35 37 37 40 39 38 38 38 37 39 38 38 39 39 40 41 41 41 42 42 42 41 40 42 41 42 43 43 43 35 36 36 34 34 37 37 37 38 37 34 34 34 35 37 41
30 30 26 27 29 32 34 39 36 37 37 37 38 39 39 41 42 43 45 47 48 49 50 51 51 52 50 48 46 47 48 48 47 41 42 38 36 35 35 36 38 39 38 38 35 35 36 37 41
24 22 22 25 27 29 30 36 33 33 35 36 38 39 43 46 48 50 52 53 54 56 57 58 59 58 58 58 52 50 52 52 51 45 44 40 40 39 37 37 38 38 38 38 36 35 36 38 40
20 21 21 22 24 28 26 30 34 32 34 38 42 46 47 50 52 54 56 57 59 59 60 60 59 57 58 58 55 52 51 52 53 49 47 43 42 42 40 39 36 37 38 38 37 38 38 39 38
18 18 19 21 21 24 26 26 27 33 37 41 45 48 50 50 48 50 50 49 49 50 52 53 54 56 56 57 56 53 51 48 50 53 50 47 44 43 43 40 37 37 40 39 39 40 39 39 40
18 18 20 21 22 23 25 24 26 34 40 40 40 40 43 46 48 49 47 48 49 49 49 49 47 48 50 56 56 52 51 47 50 54 52 50 47 46 43 42 38 38 40 41 40 41 40 39 40
17 18 18 21 23 24 25 27 29 32 36 40 42 44 44 43 44 46 48 48 48 52 56 55 52 49 46 39 44 48 48 52 51 52 50 50 51 47 42 43 41 39 41 41 40 40 40 40 41
16 18 19 20 24 26 27 28 29 30 33 37 42 45 47 50 52 50 45 43 47 50 52 55 55 56 51 47 40 40 47 53 51 49 47 49 49 46 44 43 43 42 41 42 41 41 40 41 41
17 16 18 19 22 25 25 26 25 27 33 37 38 42 45 48 53 57 57 53 45 49 48 47 50 55 54 50 44 39 44 49 50 46 46 48 46 45 42 42 43 42 42 42 35 40 44 40 45
15 14 15 19 23 24 28 20 22 31 31 30 37 36 41 43 45 52 50 47 42 39 42 46 51 52 49 47 47 41 43 48 47 44 46 46 44 41 40 41 41 40 41 41 39 39 44 49 50

GFSSGP_500_spd_054.txt.gz
Wind_Speed
37 36 35 33 32 29 25 24 30 26 27 25 21 24 27 26 23 18 20 22 21 19 18 19 21 21 19 20 20 20 20 21 21 22 24 23 22 22 22 22 22 22 22 21 21 21 21 21 22
39 39 37 36 35 30 24 29 30 33 29 28 26 29 29 26 21 21 22 23 19 19 18 20 21 21 22 22 21 21 21 22 22 22 23 24 25 25 25 24 24 24 24 24 23 22 23 24 24
40 41 40 40 38 28 22 34 38 37 34 30 31 33 34 27 24 22 20 20 20 20 18 19 21 22 23 24 25 24 24 24 24 24 24 25 24 25 26 26 26 25 25 25 25 25 25 24 24
43 43 42 42 35 26 26 37 38 37 34 32 36 36 37 31 25 23 22 21 22 22 20 20 22 22 22 24 25 25 25 25 25 26 26 26 27 27 27 27 27 27 27 26 26 26 25 26 26
45 44 44 41 30 26 31 39 37 35 31 29 31 35 35 32 29 28 26 25 24 23 22 22 22 23 23 22 23 25 26 27 27 27 27 27 27 27 27 28 28 28 28 28 27 27 27 26 26
47 46 45 38 28 28 32 38 38 34 30 25 29 35 36 33 30 29 27 28 27 26 25 24 23 23 23 23 23 23 22 25 26 26 27 27 27 28 28 28 28 28 28 28 27 27 25 25 25
48 47 44 37 30 33 30 36 38 34 32 29 30 35 34 33 29 30 29 30 30 27 24 26 26 25 24 24 23 23 22 22 22 22 23 24 26 26 27 27 27 27 28 28 27 26 26 26 25
49 48 45 39 34 30 32 38 37 34 30 30 31 34 33 28 27 27 28 28 28 28 27 28 28 26 26 26 25 24 23 23 22 22 22 22 23 24 24 25 25 25 26 26 26 25 25 25 24
45 47 44 37 36 29 33 34 35 36 34 33 31 30 30 26 26 26 25 25 25 26 28 29 29 29 30 29 28 28 27 26 25 24 22 22 23 23 23 22 22 22 23 24 25 25 25 25 25
45 47 42 36 35 33 35 39 39 40 39 34 30 30 31 28 27 27 27 25 25 25 26 28 29 30 31 31 31 30 29 28 27 26 24 22 23 24 24 23 22 21 22 23 24 25 26 27 27
46 45 42 38 35 37 39 41 41 43 42 33 32 31 34 32 30 29 28 26 27 26 25 27 29 29 28 28 30 30 30 30 30 29 28 26 25 25 25 25 25 24 23 24 24 24 26 28 29
48 47 44 40 40 41 40 42 42 43 39 31 30 31 33 33 31 29 28 27 27 26 27 27 27 27 27 27 27 28 28 29 30 30 29 29 28 27 26 26 25 26 25 25 25 26 26 27 29
51 49 47 44 44 44 41 40 42 41 35 32 27 33 34 34 34 31 29 29 27 26 29 26 25 24 26 27 25 26 28 28 29 30 29 30 30 29 28 27 28 28 27 26 27 28 28 28 28
53 52 51 48 46 45 42 38 40 37 38 36 31 34 35 34 32 31 29 29 32 31 29 27 24 25 25 26 26 27 26 28 28 29 29 30 30 29 29 29 30 31 30 29 29 30 31 31 30
53 53 53 49 46 46 45 40 37 39 44 42 35 33 34 32 31 27 28 32 35 31 29 27 27 28 26 25 25 26 25 26 28 29 29 30 31 29 30 30 30 31 31 31 30 30 31 32 32
51 52 51 47 47 48 48 39 39 41 45 42 35 32 32 30 30 27 30 33 35 30 29 30 29 29 28 27 28 28 28 27 26 25 27 28 28 29 30 31 30 30 30 31 30 30 30 30 32
52 51 48 45 48 48 48 42 39 44 46 41 36 32 31 31 31 26 27 32 35 35 33 32 30 30 29 31 32 32 31 29 28 26 25 26 28 30 32 32 30 29 31 31 32 32 32 32 31
48 48 47 45 46 47 48 45 39 41 44 44 40 35 32 31 32 28 30 34 35 35 35 33 31 29 30 32 34 34 32 31 30 30 26 29 28 30 32 33 32 31 32 31 31 33 33 34 34
43 46 47 45 44 46 45 46 37 38 42 42 40 37 33 32 32 34 34 35 36 37 36 36 36 32 31 31 31 33 35 37 33 34 33 30 29 30 32 33 33 34 33 33 34 34 34 34 33
41 44 41 42 44 45 44 44 39 38 41 42 41 37 33 34 36 36 37 38 38 38 39 39 38 38 37 36 34 35 38 39 37 37 34 30 31 32 34 35 33 35 36 36 35 37 36 35 35
34 34 36 38 40 41 41 43 39 35 38 40 41 40 38 37 38 39 40 40 41 41 41 42 43 42 41 40 40 38 37 40 40 40 39 35 35 37 39 38 34 33 33 34 35 36 37 36 37
33 32 33 34 35 38 37 40 33 35 35 37 40 39 38 40 41 40 41 42 42 42 42 44 45 45 45 45 45 46 42 41 44 46 47 44 43 40 41 41 38 34 34 34 35 35 36 36 37
28 26 27 30 32 33 31 37 26 29 31 33 35 38 38 40 41 41 41 42 45 46 48 49 50 51 53 52 52 52 52 50 48 49 52 50 48 45 44 42 40 40 37 35 35 36 35 35 35
23 22 23 24 25 29 26 32 26 26 27 31 33 36 38 40 41 43 45 47 49 52 54 56 57 57 58 58 58 58 57 57 55 54 55 54 52 50 47 45 43 43 41 39 38 38 38 38 38
21 21 20 21 22 21 20 26 24 22 29 32 35 38 41 43 45 48 50 53 55 57 58 60 62 62 62 62 62 62 61 59 56 54 55 56 54 52 49 47 45 44 43 42 41 39 38 39 39
23 22 20 18 18 17 18 22 25 26 28 32 35 38 41 44 48 50 51 51 51 53 55 57 57 57 59 61 62 62 63 61 56 52 55 55 55 53 51 49 47 46 44 43 42 41 39 41 42
21 20 18 16 18 19 20 22 25 28 28 29 32 35 38 41 44 46 48 50 52 54 54 57 61 62 60 57 53 51 52 54 57 52 52 56 57 53 51 49 49 48 47 45 44 42 41 43 44
18 17 17 16 19 20 21 20 23 26 29 30 31 32 35 39 43 46 49 51 50 53 57 59 60 62 63 63 58 53 49 46 47 51 50 54 56 53 50 50 51 49 48 45 45 43 43 43 44
18 16 16 16 18 19 18 16 17 20 24 28 30 34 35 39 43 47 52 56 55 54 52 56 61 62 61 62 62 58 53 46 42 43 51 53 52 50 50 50 49 47 46 46 44 43 37 44 44
13 12 12 15 16 16 19 16 17 21 23 25 26 29 35 41 46 49 52 54 58 50 50 49 48 56 55 56 56 58 58 52 47 43 46 48 49 49 48 47 45 44 43 43 40 42 42 44 43

GFSSGP_500_spd_057.txt.gz
Wind_Speed
40 39 37 36 36 33 28 26 29 27 26 26 29 29 29 29 27 25 23 24 21 20 18 17 19 19 20 21 21 20 20 20 20 20 21 23 24 23 22 21 20 20 20 19 20 20 22 22 21
43 41 40 38 38 32 26 28 28 30 28 27 27 29 30 29 25 24 26 25 20 18 19 19 19 20 21 22 23 22 21 20 19 21 21 21 22 22 23 24 24 23 22 23 22 22 23 22 22
44 43 42 43 40 31 24 29 35 32 30 31 31 30 30 28 25 26 27 24 22 19 18 19 19 18 20 22 23 23 22 23 22 22 23 23 22 22 23 24 24 24 24 24 24 24 25 24 23
44 45 45 46 38 29 24 33 37 34 34 34 33 34 34 31 29 27 25 22 22 22 20 19 20 21 20 20 20 22 22 22 22 22 22 23 24 24 24 25 25 25 25 25 24 25 25 25 25
47 47 47 46 37 29 27 37 40 37 37 37 38 38 37 33 30 29 29 26 27 27 24 22 22 22 22 21 20 20 20 21 21 22 23 23 24 24 24 24 24 25 25 26 26 25 25 25 26
49 49 49 44 34 30 32 39 42 38 37 36 35 35 35 32 32 30 29 30 29 28 27 25 24 24 24 23 22 21 21 20 20 20 21 22 22 23 24 24 24 25 26 26 26 27 27 26 26
50 49 48 42 35 35 33 42 43 40 37 33 34 38 38 31 31 31 31 30 30 30 28 28 27 26 25 24 24 23 23 22 20 21 21 20 20 20 21 22 22 24 24 25 25 25 24 24 24
51 51 49 44 37 31 37 43 44 42 35 32 36 36 34 31 31 32 30 30 31 30 28 28 29 27 25 26 25 25 25 24 23 22 22 22 21 21 21 21 21 22 23 24 23 24 24 24 24
54 53 49 43 37 32 39 44 45 41 33 36 38 33 31 32 28 28 27 28 29 31 30 31 30 30 30 28 27 26 26 26 24 23 23 23 22 21 22 22 22 23 22 22 23 23 23 24 25
54 53 48 42 38 36 43 45 44 41 38 38 37 33 32 31 27 26 25 26 28 28 31 30 29 29 29 29 29 29 28 28 27 26 26 25 24 23 23 23 23 23 23 23 22 22 22 23 24
47 48 46 43 37 40 42 43 43 42 42 38 35 32 31 30 29 27 26 26 28 29 27 28 29 27 26 27 28 27 27 27 27 27 27 27 26 25 24 24 24 25 25 25 24 23 23 24 23
43 43 44 39 38 42 44 45 45 44 40 39 35 33 31 30 31 30 30 31 31 30 31 29 28 28 27 27 27 26 26 26 26 26 26 27 27 27 27 27 26 26 26 26 26 26 26 26 26
46 44 43 40 40 42 45 46 46 42 40 40 37 34 32 32 34 32 32 32 31 30 31 30 31 30 29 27 26 26 26 25 25 24 24 25 26 26 27 28 28 27 27 27 28 28 28 28 29
51 49 47 44 43 44 44 45 44 38 40 42 37 34 37 38 39 35 32 29 30 31 32 35 34 33 30 28 27 27 26 25 24 23 24 24 25 25 26 27 29 29 27 28 28 28 29 30 30
52 51 51 47 44 45 45 44 40 38 41 43 41 38 40 41 37 30 29 29 29 31 36 37 36 33 29 29 28 28 27 26 24 25 23 24 24 25 27 27 28 28 28 29 28 29 30 30 30
49 50 52 49 46 46 48 43 43 43 42 44 45 42 39 37 34 29 27 26 29 31 34 36 35 33 30 29 32 32 30 27 26 26 23 22 23 23 26 29 29 29 29 29 29 30 29 30 31
51 50 49 47 47 49 48 44 43 46 43 46 48 43 38 38 36 33 27 27 30 34 36 34 33 33 33 34 35 34 31 28 27 29 26 25 25 25 27 30 30 30 32 32 30 29 29 30 31
49 50 48 45 44 46 47 47 44 45 45 45 46 43 40 38 36 38 34 31 33 36 38 36 35 36 37 36 37 34 32 30 31 31 29 30 29 29 29 31 32 32 34 35 33 32 32 33 34
47 49 48 46 45 46 44 47 42 44 45 45 45 43 41 40 38 39 39 34 36 39 39 38 37 37 38 38 36 36 33 35 34 33 34 32 30 32 33 35 35 33 34 34 34 36 36 35 36
42 47 46 44 46 49 46 46 41 41 43 46 47 43 41 41 42 40 40 36 36 40 41 41 41 41 40 38 38 38 37 37 35 35 35 33 32 34 35 38 39 36 36 34 35 37 36 35 35
31 32 32 35 40 45 44 45 41 37 40 43 45 44 41 40 40 41 41 38 38 40 41 42 44 44 44 43 41 39 39 39 38 38 36 37 38 39 40 42 42 40 39 39 37 35 35 34 35
34 31 29 33 37 39 39 43 35 37 37 39 41 42 40 38 39 40 42 40 39 41 42 43 45 46 47 47 45 44 42 41 40 41 43 43 42 42 43 45 45 43 43 43 42 38 36 35 35
29 27 27 30 32 35 34 39 25 31 34 35 38 40 39 38 39 39 40 41 43 42 42 44 46 47 48 49 49 48 48 45 44 46 46 47 47 45 45 46 48 48 48 48 45 42 41 36 38
25 23 23 26 29 33 29 34 22 27 28 30 32 35 37 37 37 39 40 42 44 44 46 47 48 48 49 50 52 53 53 53 54 54 54 53 53 54 53 51 51 52 50 49 48 45 43 39 42
22 22 22 23 26 28 24 28 21 23 23 24 27 29 32 34 35 37 39 42 44 46 48 51 53 55 56 57 58 59 60 60 60 61 59 61 58 55 58 57 53 53 53 52 50 49 46 41 45
23 23 22 22 22 19 19 25 20 17 21 24 27 29 31 35 39 41 42 44 47 50 52 55 58 60 62 62 63 64 66 66 66 67 67 64 60 56 58 59 55 53 52 53 52 52 51 44 46
25 23 20 19 19 18 19 19 19 19 23 25 28 31 33 34 37 39 43 46 49 51 53 56 58 61 63 65 66 66 67 67 67 67 66 66 63 58 55 56 58 56 53 53 53 53 52 49 47
24 23 22 20 20 20 19 18 17 20 23 24 26 29 29 31 35 39 42 45 48 52 55 58 60 60 63 66 67 69 68 67 66 63 61 58 57 58 55 55 57 57 54 54 54 53 53 51 49
22 21 20 20 20 18 15 15 18 20 22 23 24 24 28 32 35 39 42 44 48 50 53 55 57 58 59 61 65 69 70 70 68 62 56 53 52 51 53 54 56 58 56 54 52 52 51 48 49
20 18 16 16 14 14 15 14 18 20 22 23 25 28 29 32 35 38 41 43 46 53 58 61 64 65 61 58 61 67 69 69 68 65 59 56 51 45 51 51 52 53 53 51 50 48 45 46 45

GFSSGP_500_spd_060.txt.gz
Wind_Speed
44 42 40 39 39 37 31 29 30 29 30 30 29 29 28 26 26 25 20 22 23 19 16 17 17 17 19 19 18 18 18 17 18 18 18 17 17 19 21 22 21 21 20 20 20 20 19 18 18
45 44 42 41 41 36 29 31 30 31 29 28 29 29 28 27 26 24 23 23 23 21 18 19 19 18 18 19 20 20 19 19 20 20 19 18 18 18 18 19 21 21 22 22 21 20 20 20 20
46 45 45 45 43 34 27 30 34 31 30 30 30 29 29 26 26 26 25 24 23 21 20 18 19 19 18 19 19 19 18 19 19 20 20 20 19 19 19 19 20 21 22 21 22 22 21 20 21
47 46 47 48 40 32 28 32 36 33 30 32 31 30 28 27 27 25 25 24 24 23 21 20 20 19 19 17 17 17 17 18 18 19 19 19 19 20 20 20 20 20 21 21 21 21 21 22 22
48 48 49 48 39 32 31 35 38 35 34 34 34 31 30 29 26 25 25 26 26 26 24 23 23 22 21 21 19 19 18 19 19 19 19 19 18 19 19 20 20 20 20 21 20 21 20 21 22
50 51 51 48 38 33 34 36 39 37 36 37 36 34 32 30 29 28 28 29 30 30 28 27 25 23 24 24 23 22 22 21 20 20 19 19 19 18 18 18 19 19 20 20 21 20 21 21 21
52 51 50 45 38 37 35 38 40 41 39 37 37 36 32 31 32 32 31 31 30 31 29 28 26 26 26 26 25 24 24 24 22 22 21 20 20 18 18 18 18 17 18 19 19 20 20 20 20
53 53 52 47 41 38 37 41 43 45 41 37 36 35 29 32 34 33 31 32 32 32 30 29 28 27 26 26 26 26 26 25 24 24 24 23 21 20 19 18 18 18 19 19 19 20 19 19 20
54 55 51 46 40 38 38 42 46 45 40 36 36 35 31 34 31 30 31 31 32 32 32 31 30 29 27 27 28 28 27 25 24 24 24 23 23 22 21 20 19 19 20 21 21 21 21 22 22
55 54 49 44 42 42 40 44 46 44 41 36 37 36 32 32 31 27 27 27 29 32 33 31 30 29 29 29 29 28 27 27 25 26 26 24 23 23 23 22 21 20 21 21 22 22 23 23 23
56 52 49 47 44 44 41 44 45 43 40 37 39 37 33 30 30 28 26 25 27 29 28 28 28 29 28 28 27 26 26 26 25 25 25 24 24 23 23 23 23 23 23 23 23 23 23 24 24
50 55 50 48 49 46 43 43 43 42 39 40 39 38 35 32 29 30 28 27 27 29 30 28 29 29 28 28 27 28 29 28 27 26 24 24 23 22 22 23 24 25 25 25 24 24 23 24 24
45 46 47 42 43 46 45 45 45 42 42 42 40 39 36 33 31 31 31 31 32 32 33 33 33 31 31 30 29 30 29 29 29 25 23 23 23 22 22 23 24 25 26 25 26 26 26 26 26
49 46 43 39 36 40 43 45 46 42 44 43 41 38 36 36 33 33 32 34 34 34 32 36 36 37 37 33 33 31 31 30 28 25 24 23 24 24 23 24 25 26 27 27 27 27 27 26 27
50 50 48 42 38 38 42 45 44 42 44 43 42 40 38 38 38 35 34 34 33 33 35 35 37 40 39 38 35 33 32 31 27 26 26 25 24 24 24 25 25 26 26 27 27 27 27 27 27
50 49 50 45 41 39 41 41 45 46 45 42 44 42 40 40 39 37 34 33 34 34 36 39 39 39 42 40 38 36 34 32 28 28 27 25 25 24 23 25 26 26 27 28 28 28 28 27 27
52 49 47 45 44 42 41 42 45 46 46 44 45 44 41 41 38 35 33 35 36 37 39 39 40 41 42 42 41 39 36 32 28 28 28 27 27 26 26 27 28 28 29 30 29 29 29 31 32
52 51 46 44 43 45 44 43 42 44 44 44 45 45 44 41 39 38 39 40 39 37 38 39 39 40 41 40 40 40 36 32 30 32 32 32 32 29 29 30 31 31 31 32 32 30 32 32 34
47 48 47 46 44 45 44 47 43 43 43 43 45 46 47 45 43 43 43 42 40 39 39 39 40 39 39 38 39 40 38 36 36 35 36 36 34 31 32 32 33 34 35 35 34 33 34 34 34
45 45 44 44 45 45 43 44 40 39 41 43 46 47 47 46 44 42 43 43 42 41 41 41 42 39 38 38 39 41 40 39 38 39 39 36 35 35 36 36 36 35 37 36 36 37 37 37 38
38 42 40 42 44 46 44 44 39 35 38 39 42 44 47 45 43 42 44 45 44 40 42 42 44 43 40 40 40 42 43 42 41 40 41 39 40 39 41 41 41 41 40 38 39 39 41 41 43
31 32 35 37 42 44 43 44 36 38 39 38 41 42 43 43 42 43 43 44 43 41 41 43 42 44 43 41 42 44 44 44 43 43 44 44 44 44 43 43 43 43 44 42 43 45 46 45 44
36 32 28 26 31 37 37 40 27 35 38 38 39 38 39 40 38 38 40 42 44 43 42 43 45 44 45 47 47 46 47 46 44 44 46 47 47 45 45 45 44 44 45 45 46 48 48 48 45
23 25 25 26 28 31 30 34 25 30 32 31 33 34 36 36 35 35 37 38 40 41 40 41 42 44 46 48 50 52 52 52 51 49 47 47 48 49 50 51 49 49 50 50 50 49 51 50 48
22 23 24 24 26 29 26 28 24 25 28 27 27 29 31 33 34 35 36 37 38 40 41 42 45 47 48 50 52 54 55 56 57 57 57 55 54 55 55 55 54 54 54 54 53 51 52 53 51
24 22 23 26 26 23 19 24 22 20 23 24 26 27 29 31 31 31 31 33 36 38 42 44 46 48 51 54 56 58 60 61 62 63 63 63 62 61 60 58 57 56 57 56 56 53 53 55 55
29 28 25 21 21 18 19 20 18 18 23 25 27 27 28 29 29 31 34 37 39 41 44 46 49 52 55 58 61 63 66 68 69 70 70 69 68 67 65 61 59 59 55 57 55 56 54 57 54
28 27 24 21 20 18 18 18 16 18 22 23 25 26 25 27 31 33 34 35 37 40 44 48 51 54 57 60 64 66 69 71 72 73 73 72 70 69 68 66 57 59 60 57 58 59 58 57 54
26 23 22 21 20 19 16 15 15 18 20 20 20 22 25 27 29 31 34 36 39 43 47 50 53 55 57 58 61 64 68 71 72 73 74 73 72 69 67 62 57 56 57 57 60 58 58 56 53
23 22 22 20 16 13 13 15 18 18 19 18 20 23 26 27 29 31 33 37 40 43 45 47 49 53 55 56 57 59 62 65 70 71 69 67 68 68 66 60 55 53 53 55 57 56 56 55 52

GFSSGP_500_spd_063.txt.gz
Wind_Speed
46 45 43 42 42 42 37 33 33 34 33 32 30 30 28 25 23 23 20 19 20 19 16 17 18 18 18 17 16 15 16 16 15 14 13 14 14 15 15 16 16 17 19 19 19 19 18 18 17
48 47 45 45 45 40 34 33 34 35 33 32 31 31 29 27 25 23 20 20 21 19 18 18 19 19 19 19 17 16 16 16 17 17 18 17 17 18 18 17 17 16 17 19 19 18 20 20 20
49 49 48 48 46 38 31 33 38 35 33 33 32 32 29 28 26 23 22 21 22 20 19 18 18 19 18 18 17 16 16 16 16 16 17 18 18 19 18 18 18 18 18 18 18 18 17 18 20
49 50 52 52 45 35 32 36 38 35 33 33 31 30 27 27 26 24 23 21 21 21 21 19 18 20 18 16 17 16 15 16 16 17 16 17 17 17 18 18 19 19 19 18 17 16 15 16 17
50 51 53 53 43 35 35 37 39 37 34 34 31 30 28 27 25 24 23 21 20 20 21 21 21 21 20 20 20 20 18 19 19 19 18 19 19 19 18 17 17 17 17 18 18 17 17 18 18
50 53 55 53 41 37 38 38 40 38 37 36 33 31 29 27 25 24 23 24 24 23 24 24 24 24 23 25 24 23 23 23 21 21 21 20 20 20 18 18 17 17 17 17 17 17 18 18 18
51 51 53 48 39 41 38 40 41 40 40 38 35 32 30 28 27 27 26 27 27 26 26 27 27 26 26 27 26 25 24 23 24 23 23 22 22 21 20 19 18 18 18 17 17 17 18 18 18
52 52 53 48 42 42 40 43 41 44 43 41 37 33 32 29 30 31 31 30 29 30 30 29 28 29 28 27 26 25 24 23 24 24 24 24 24 22 21 21 20 19 18 17 17 17 19 19 19
52 55 51 46 42 41 42 44 44 43 42 41 38 33 31 29 32 32 33 31 30 32 33 33 32 31 30 28 27 27 25 24 24 24 25 25 24 24 23 23 23 22 20 20 20 19 19 19 19
56 52 49 45 44 43 43 45 46 45 44 42 39 34 31 31 33 32 31 30 31 34 35 34 33 32 30 29 29 28 27 25 25 25 25 25 25 24 23 23 23 23 22 21 21 21 20 20 20
55 53 48 48 47 46 45 46 47 47 45 42 41 37 33 32 33 32 30 29 30 31 33 33 32 33 32 31 29 28 26 24 24 25 26 25 25 24 23 23 22 22 22 22 21 22 21 21 22
54 53 54 49 48 48 46 47 48 48 44 43 40 38 34 33 32 33 30 29 28 28 27 28 30 30 30 30 28 27 26 27 27 28 28 26 25 24 23 22 22 22 22 21 22 22 22 22 23
53 52 54 54 50 49 48 47 48 47 47 44 41 39 35 33 32 30 29 29 29 28 27 28 29 29 30 30 29 29 30 31 31 29 28 26 25 24 22 22 23 23 23 22 22 24 24 24 25
49 51 51 55 52 49 49 47 48 44 48 45 42 39 37 35 34 32 30 30 30 32 32 34 34 33 34 34 34 34 34 35 33 30 28 26 25 26 24 23 24 24 24 23 23 23 24 24 24
50 52 49 46 43 47 48 48 44 46 49 46 42 41 40 37 36 34 32 30 33 34 35 35 35 35 36 36 37 36 38 38 35 32 28 27 27 28 25 25 25 26 24 24 23 24 24 24 24
53 52 51 45 41 41 39 39 42 48 49 47 46 43 43 39 38 35 33 33 35 35 35 36 37 38 39 39 39 38 40 39 38 34 31 29 29 29 26 26 27 27 26 26 26 25 24 24 25
54 51 49 47 43 41 40 41 39 42 46 48 46 44 43 40 38 35 33 33 34 36 37 39 40 41 41 42 42 43 42 41 38 36 34 31 31 31 29 28 30 30 28 29 28 28 27 26 27
50 51 49 46 44 43 40 39 39 42 44 46 45 43 42 39 38 38 37 37 37 39 40 41 41 43 44 45 44 45 44 42 40 39 37 36 35 34 32 32 32 32 30 31 31 30 28 30 29
49 48 46 43 40 43 43 41 37 41 41 43 44 44 44 43 43 43 40 38 38 40 40 40 41 42 45 45 46 45 44 45 42 42 42 40 38 36 35 34 34 35 34 34 34 32 32 32 32
46 47 46 45 44 42 44 46 41 40 39 41 43 46 47 47 44 41 41 40 39 39 40 39 39 40 44 46 47 46 45 44 44 42 43 41 39 37 38 37 38 39 39 38 36 34 34 35 35
42 44 43 42 41 42 41 43 38 39 40 41 43 43 45 45 44 43 42 42 43 42 41 40 41 42 41 43 45 45 44 43 45 43 43 42 42 43 43 41 41 42 40 41 41 38 38 38 38
37 42 41 40 40 42 44 44 38 37 39 41 42 41 42 43 42 42 42 42 43 43 42 42 42 44 45 44 43 43 44 43 44 45 45 46 46 46 46 46 44 45 45 44 42 43 43 42 41
31 29 35 38 39 40 40 42 37 39 40 40 40 38 38 38 38 37 39 40 41 42 42 41 41 41 43 45 44 42 45 45 44 45 46 47 48 49 49 49 49 48 47 45 43 45 45 44 45
36 31 33 35 39 40 39 40 34 36 36 36 37 38 37 37 37 36 35 35 36 38 40 41 41 41 42 43 44 43 42 43 46 48 49 50 50 51 51 51 50 49 48 48 49 48 49 49 49
29 26 33 31 32 31 31 32 30 30 32 31 31 31 32 34 36 36 36 34 35 36 37 38 39 40 42 43 44 46 47 47 48 48 49 51 53 54 54 54 54 53 53 53 54 53 53 52 51
23 27 26 25 24 24 23 27 25 24 28 28 29 29 30 30 31 33 32 32 33 34 35 35 36 38 40 42 44 46 49 51 52 54 56 57 57 57 57 58 59 59 58 58 58 57 57 55 54
26 21 23 22 23 19 20 22 21 23 24 26 27 28 27 28 29 29 30 31 30 31 32 33 35 38 41 43 47 50 52 55 58 61 63 64 65 66 66 65 64 62 62 60 59 57 58 58 57
25 25 21 19 20 17 19 19 18 19 22 25 27 26 26 26 27 28 30 30 30 31 33 35 38 42 45 49 52 55 58 61 63 65 68 70 71 72 72 71 69 67 63 61 60 60 49 60 59
24 24 23 24 21 20 19 18 19 20 21 22 24 25 25 26 28 28 27 27 29 31 34 38 41 44 47 50 54 58 61 63 65 67 69 71 72 73 74 73 72 68 63 57 55 56 59 60 58
25 26 23 23 20 18 17 18 19 17 19 21 20 21 23 25 25 25 27 28 30 33 33 34 37 39 42 46 50 53 56 57 59 61 65 69 71 73 72 71 69 66 63 59 55 52 52 54 57

GFSSGP_500_spd_066.txt.gz
Wind_Speed
47 47 45 44 44 45 41 36 34 34 33 32 30 29 25 22 22 23 18 20 18 17 16 15 14 14 15 15 16 16 17 16 16 17 16 15 16 15 16 16 15 17 16 17 17 18 18 18 18
46 48 48 47 47 45 41 38 38 39 36 35 33 31 29 28 26 25 20 20 20 18 16 15 16 16 17 17 15 15 16 16 17 18 18 19 19 18 18 18 18 18 17 16 15 17 18 18 18
47 47 50 51 49 45 38 37 43 40 38 37 34 32 30 29 28 26 22 22 21 19 17 17 17 17 15 15 17 16 16 16 16 16 16 17 16 16 18 18 20 19 19 18 17 18 18 17 17
49 48 51 54 49 41 37 37 41 40 37 37 35 34 32 30 28 26 24 23 23 20 19 19 17 17 17 15 16 15 16 17 16 16 16 16 16 17 17 18 18 18 19 19 19 19 18 18 17
49 51 50 54 48 42 39 40 41 41 38 38 36 35 33 31 30 28 26 23 22 20 20 20 18 18 18 17 18 17 17 18 19 19 19 20 20 20 20 20 19 19 19 20 20 20 19 18 18
48 49 55 53 46 43 41 41 44 42 39 39 37 35 34 33 30 28 25 23 22 22 21 21 21 21 21 20 22 21 20 21 22 22 23 23 22 22 21 21 21 21 20 20 19 17 17 16 16
52 50 49 50 44 45 40 41 44 43 41 40 38 36 36 33 30 28 25 24 23 24 23 23 24 25 25 25 25 26 23 23 23 23 23 23 23 22 22 22 22 21 20 19 19 18 17 17 17
54 51 51 50 48 41 42 43 42 46 43 43 40 36 36 33 30 28 27 26 26 27 27 28 28 28 28 27 28 27 25 23 25 25 25 24 24 24 24 23 23 22 21 21 21 21 19 18 18
56 57 53 47 46 43 43 45 45 46 46 44 40 37 35 34 30 29 29 29 31 31 32 31 31 31 30 29 29 28 29 26 26 26 24 24 25 25 25 25 25 24 23 22 22 21 21 20 19
58 58 52 46 45 45 45 46 47 47 47 45 41 38 35 34 31 31 31 32 33 34 35 34 33 32 31 31 31 30 30 29 28 25 25 23 24 25 25 25 25 24 23 23 22 22 21 21 21
57 55 53 48 48 47 47 48 48 47 47 45 42 40 37 34 32 32 33 33 33 32 34 35 35 34 33 33 32 31 31 30 28 26 25 25 25 25 25 24 25 25 24 24 23 22 22 21 21
57 58 57 55 48 48 47 49 48 46 48 46 45 41 39 36 33 32 33 32 32 31 33 34 33 33 34 33 33 32 31 29 28 27 27 27 27 27 26 25 25 24 24 23 23 23 21 21 20
50 57 59 56 50 50 47 49 51 47 48 48 46 42 40 38 33 34 33 32 32 31 31 31 31 31 32 32 31 30 29 29 29 30 30 30 29 28 26 24 24 25 25 24 23 23 23 21 21
50 52 53 55 55 50 47 49 52 49 49 50 47 44 42 38 35 34 34 32 32 32 32 32 31 31 32 32 32 32 32 33 33 33 32 30 30 29 27 26 26 27 27 25 25 24 22 21 21
53 51 51 52 52 53 50 48 47 52 50 50 50 47 44 41 37 35 36 33 33 33 34 33 34 34 35 35 34 34 35 37 36 36 35 33 32 31 29 28 28 29 28 27 27 25 24 24 23
54 54 52 48 47 51 50 44 49 51 51 51 50 49 47 42 38 37 36 33 32 35 35 37 36 37 37 37 36 37 39 39 39 38 35 34 35 33 33 31 31 32 31 29 28 28 27 26 26
58 53 49 49 47 44 46 49 49 49 48 49 49 48 46 43 40 36 35 34 37 38 38 37 38 39 39 39 39 41 41 41 41 41 40 39 36 36 36 35 34 35 33 32 32 31 30 29 29
57 54 51 48 46 44 41 45 48 47 44 48 50 49 47 45 42 38 40 39 38 37 38 38 39 40 41 42 42 42 44 43 43 44 44 43 41 39 39 39 38 36 35 35 35 35 33 32 31
59 56 52 48 46 47 43 42 43 46 42 42 44 47 46 46 44 42 40 38 38 37 36 37 39 40 42 42 43 43 44 45 45 47 47 46 45 44 42 42 41 40 39 39 39 38 36 35 34
59 55 52 50 45 42 45 42 40 42 42 41 41 42 43 43 41 40 39 39 38 38 37 37 38 38 40 41 41 43 44 46 46 46 47 47 47 47 45 44 44 44 43 43 43 41 40 38 37
53 51 50 48 46 44 43 46 46 41 39 39 40 40 39 40 41 41 41 40 39 38 39 39 39 39 40 41 43 45 46 46 47 46 45 47 49 50 48 49 49 48 47 46 46 43 42 42 41
46 48 47 44 43 45 43 44 44 44 40 39 38 39 39 40 41 41 42 41 41 41 41 41 41 41 40 42 44 45 45 45 45 48 48 48 49 50 52 52 52 50 49 47 47 47 46 46 44
32 41 42 40 41 43 43 43 41 39 39 40 41 40 39 38 39 40 41 41 42 42 40 41 42 42 41 41 43 44 45 44 43 45 48 50 50 51 52 53 54 53 52 51 51 48 49 51 48
33 32 35 37 39 41 42 43 42 40 38 38 39 41 40 40 39 40 40 40 40 39 40 41 41 42 43 43 44 44 45 44 43 41 43 47 49 51 53 54 54 55 55 54 54 53 52 52 52
34 30 30 35 37 40 40 41 42 38 38 37 37 38 38 38 39 39 39 39 39 38 37 37 37 39 41 42 42 42 42 44 44 44 44 46 48 51 55 57 57 57 57 56 58 57 54 53 54
37 37 35 36 38 42 40 42 41 37 37 36 35 36 37 37 37 37 38 38 38 37 36 35 35 36 37 39 40 40 42 43 45 47 49 50 51 53 56 57 60 61 62 63 61 59 58 57 57
30 33 33 36 30 29 34 35 32 32 32 33 33 33 33 32 32 32 32 33 33 33 34 34 33 33 33 35 37 39 42 44 47 50 54 56 59 60 62 63 65 66 66 65 66 65 63 60 60
26 25 24 27 25 23 22 24 24 25 27 29 30 30 31 30 30 30 31 32 32 31 31 30 31 31 32 34 37 41 44 48 51 55 58 61 63 65 66 67 68 69 69 69 69 67 67 65 61
26 26 22 23 21 19 21 20 21 23 25 27 28 28 27 27 28 29 29 28 29 30 29 29 30 31 33 35 37 41 44 48 53 58 62 65 67 68 69 70 70 70 68 67 66 66 63 61 59
23 25 25 25 21 19 19 19 21 22 24 25 27 26 26 27 29 28 27 28 28 27 29 30 31 31 31 33 34 36 43 49 54 60 63 63 63 63 63 63 63 63 63 64 64 63 59 58 55

GFSSGP_500_spd_069.txt.gz
Wind_Speed
53 52 50 47 46 46 41 38 37 33 32 35 29 28 29 28 25 25 21 19 17 17 16 15 14 14 14 15 14 15 16 16 17 17 17 17 18 18 17 17 18 18 18 18 19 18 18 18 18
53 54 52 49 50 48 43 39 37 35 39 32 32 30 29 29 27 25 21 20 20 20 18 16 15 15 15 14 14 13 14 15 16 17 18 18 18 19 19 19 19 20 19 19 19 19 19 19 18
49 53 57 54 51 49 43 43 41 41 36 35 34 32 33 34 27 27 22 21 20 19 19 17 16 15 14 14 14 14 15 16 15 15 16 16 16 17 17 18 17 17 17 18 20 19 20 20 19
41 54 55 58 55 48 44 43 46 45 39 38 35 35 34 31 31 29 24 23 23 22 19 19 18 17 16 14 15 14 15 16 16 16 16 16 17 18 18 19 19 18 19 20 20 20 19 18 18
45 44 56 61 56 47 44 46 40 43 42 40 39 41 38 35 33 29 25 25 25 23 21 21 20 19 18 16 16 16 17 18 18 18 18 18 19 20 20 20 21 21 21 21 21 20 19 18 18
54 55 53 62 57 49 45 46 39 44 41 42 39 38 39 36 34 31 28 27 26 25 24 23 22 21 20 19 18 18 18 21 22 22 22 21 21 22 21 22 22 22 23 23 22 21 21 20 18
52 52 52 53 56 49 47 44 41 42 40 40 40 35 41 38 34 32 30 28 27 27 26 25 25 23 22 22 21 22 22 21 24 23 23 22 23 23 23 23 23 22 23 24 23 23 22 21 21
50 53 54 53 57 47 44 45 41 43 42 41 40 38 39 37 34 32 30 29 28 28 27 26 25 25 25 26 25 25 25 24 21 24 23 24 24 25 24 24 23 23 23 24 24 24 24 23 23
54 57 57 51 52 50 46 47 43 44 44 46 39 42 43 36 35 34 32 30 29 30 30 29 28 28 28 28 28 27 27 26 24 24 25 25 25 24 24 23 24 24 24 25 24 24 24 23 23
56 55 54 41 44 49 49 48 41 45 45 44 43 43 39 38 37 34 33 32 31 31 31 30 30 31 31 29 29 28 28 28 27 26 26 26 24 23 23 24 24 24 24 24 25 25 25 24 23
55 55 48 49 55 52 48 45 44 46 48 47 44 43 42 41 39 36 34 33 33 32 31 31 31 31 31 31 30 31 29 29 29 28 28 26 24 23 23 25 26 26 25 25 25 25 24 23 23
54 53 55 58 56 49 45 47 49 43 49 47 50 51 41 42 40 38 36 34 34 32 31 32 32 32 32 32 32 32 31 31 30 29 28 26 25 26 26 26 26 25 25 23 24 25 24 24 23
54 56 58 58 54 54 48 48 50 46 51 49 47 45 45 42 40 38 36 35 33 31 32 33 33 33 33 32 31 32 32 32 31 28 28 28 27 28 27 26 26 26 25 25 26 26 25 25 23
53 56 58 57 56 53 48 49 52 49 46 47 48 47 45 43 41 39 36 34 33 31 34 35 34 32 32 31 31 33 33 31 29 30 31 30 31 31 30 28 26 26 27 28 29 28 27 26 25
57 55 57 58 60 52 54 50 49 50 50 44 47 47 45 43 40 38 36 35 35 34 35 35 35 34 33 32 33 33 33 33 33 33 34 33 33 33 31 31 29 29 30 31 30 29 29 28 26
55 56 58 55 58 58 50 51 47 50 50 49 45 45 45 42 40 39 38 35 36 35 35 36 36 36 35 34 35 35 35 37 37 36 36 36 36 35 35 34 32 32 34 33 33 32 31 30 29
56 57 55 52 52 53 53 50 50 48 50 48 49 46 45 43 43 42 39 36 37 36 36 37 37 36 36 35 36 37 38 38 38 38 38 38 39 40 39 39 38 36 36 36 36 35 35 34 32
46 56 54 52 51 50 47 50 52 48 43 48 48 49 49 46 45 44 41 39 38 38 38 38 37 36 36 38 39 39 39 38 40 40 40 41 41 42 42 42 41 41 39 38 39 39 38 37 35
45 54 53 54 51 47 46 44 50 50 48 47 49 49 48 47 47 45 42 40 38 38 38 38 38 37 37 39 38 40 39 41 40 41 41 41 41 43 43 44 45 45 44 41 43 43 42 41 41
42 55 57 55 50 46 47 45 42 44 45 47 48 46 44 46 46 43 42 41 39 39 39 38 38 37 37 39 39 40 43 43 41 42 42 42 42 43 44 44 45 48 48 47 45 45 46 45 45
31 48 60 59 50 46 48 46 41 39 41 44 45 43 42 40 42 43 43 41 38 38 39 39 38 38 38 40 42 39 44 44 43 43 44 46 46 45 46 47 47 49 49 49 49 49 49 48 48
31 35 54 60 50 47 46 44 46 41 39 40 43 45 42 36 36 37 38 38 38 38 39 39 39 39 40 41 41 42 42 44 44 45 47 48 49 47 46 48 49 50 50 51 52 52 52 52 51
36 29 48 48 47 49 46 45 46 42 38 36 36 39 41 43 42 40 38 36 35 36 36 37 38 39 41 42 43 44 45 43 44 46 46 47 47 48 47 47 48 49 50 52 53 54 54 53 54
28 34 40 41 45 45 46 44 48 40 40 42 41 38 38 38 38 37 36 36 36 36 36 37 38 39 40 42 43 44 44 44 45 46 47 47 46 47 48 49 49 50 51 53 54 56 57 56 56
29 26 33 36 38 41 44 43 49 41 39 38 40 43 40 39 39 39 38 37 37 37 37 37 38 38 38 39 40 42 43 44 44 45 46 46 46 46 47 50 53 55 54 56 57 57 58 58 58
30 33 33 36 39 41 43 43 48 41 43 39 38 38 38 38 39 40 40 40 38 38 38 38 38 38 38 38 39 40 41 42 42 44 45 47 48 49 50 52 54 57 59 61 62 63 64 65 67
32 38 28 31 38 41 40 41 40 39 40 39 39 38 38 39 38 38 38 38 38 38 38 38 38 37 37 36 36 36 37 38 39 41 44 46 50 52 55 58 61 62 64 66 68 68 67 67 67
33 34 36 38 27 30 36 40 43 40 39 38 38 38 38 38 37 37 37 36 36 35 35 35 35 35 33 32 32 33 34 35 38 41 43 46 50 54 59 62 64 66 67 68 68 70 71 70 67
27 34 34 34 37 32 28 30 37 35 33 33 34 35 36 36 35 34 34 35 35 35 34 34 32 31 31 31 31 31 32 33 32 34 37 41 48 55 61 65 65 65 65 67 68 68 67 66 65
22 27 29 23 22 22 20 20 22 27 28 31 31 32 32 32 32 33 34 34 34 33 31 30 30 30 29 29 29 30 29 28 30 33 36 45 49 50 53 56 58 60 60 60 60 60 60 60 60

GFSSGP_500_spd_072.txt.gz
Wind_Speed
58 59 56 53 49 48 41 39 40 37 34 34 28 23 26 22 28 26 21 18 17 16 15 14 13 12 12 12 13 13 12 12 13 14 14 15 16 16 16 16 16 17 18 18 18 18 17 17 17
64 64 57 57 55 51 44 40 40 38 39 32 28 29 27 30 27 23 21 19 20 18 17 16 15 14 14 14 13 13 13 13 13 13 14 15 15 15 16 16 16 16 18 17 16 17 17 17 18
53 61 62 63 59 54 46 41 40 40 39 33 34 32 32 37 28 25 26 22 23 20 19 19 17 17 16 15 14 13 13 14 14 13 13 14 14 14 15 15 16 18 18 18 16 16 17 17 17
52 52 63 65 63 53 47 44 42 48 40 36 36 33 36 33 24 25 27 24 23 22 20 20 19 18 16 15 15 14 13 13 13 13 14 14 15 16 17 17 18 19 19 18 17 18 18 18 18
54 48 47 64 59 54 50 45 51 51 41 39 36 38 38 35 32 31 28 27 26 22 23 22 20 20 18 16 14 15 15 15 15 15 16 17 18 19 19 19 20 20 20 20 20 20 19 20 21
56 44 40 47 58 54 51 42 53 49 44 44 37 41 39 35 33 33 30 29 29 24 23 22 21 21 20 18 18 16 17 17 17 17 18 19 20 19 19 19 20 21 21 21 21 21 21 21 21
50 45 42 34 44 52 51 50 49 46 44 41 42 42 41 38 36 34 33 31 29 26 26 24 23 24 24 21 21 20 17 18 20 20 20 19 20 20 20 21 21 21 21 21 21 21 21 21 21
48 46 47 46 32 38 46 48 48 45 42 37 43 38 45 40 38 36 34 33 30 30 28 26 26 26 25 24 22 21 21 20 19 20 20 20 21 21 21 21 21 20 20 20 20 21 22 22 23
50 53 51 44 42 39 48 48 46 45 43 42 43 42 47 36 37 36 35 33 31 30 31 28 28 27 26 25 24 24 24 23 21 19 20 21 21 22 21 20 20 20 21 21 21 22 23 23 24
53 54 47 40 36 43 44 45 41 49 45 45 44 46 45 36 35 35 35 33 32 31 31 29 28 27 26 25 27 26 25 24 24 22 20 21 21 22 21 20 20 21 22 22 22 23 24 24 24
51 47 41 40 44 50 47 52 47 48 45 44 41 45 38 37 36 35 36 32 32 31 30 30 29 29 28 27 29 27 25 25 24 25 24 22 22 22 20 21 21 22 23 23 23 24 24 23 23
49 43 48 48 55 51 49 50 55 46 39 43 43 46 44 40 39 38 35 34 34 33 31 31 31 30 30 29 29 28 25 26 25 24 26 24 22 22 21 22 21 23 23 23 24 24 24 24 23
49 48 50 51 57 50 51 47 45 43 43 46 50 49 47 40 41 40 38 36 35 33 32 32 32 32 31 29 29 28 27 26 27 26 24 23 23 24 24 24 24 24 25 24 26 26 27 26 25
48 52 53 57 54 47 51 45 43 44 47 49 47 46 42 43 42 41 39 37 36 34 33 34 33 32 31 30 30 28 28 27 27 26 25 25 26 27 27 26 25 26 26 28 28 28 27 28 26
48 51 55 57 55 53 49 48 45 45 46 51 46 44 45 45 43 41 39 38 37 36 34 33 34 33 33 32 30 28 28 28 28 27 27 29 31 30 30 30 28 29 29 29 30 30 30 30 29
46 48 56 54 55 56 51 48 49 43 45 48 45 42 45 45 43 41 40 39 38 37 36 34 34 34 35 33 31 30 29 29 29 30 30 31 33 32 32 33 32 33 34 33 32 32 32 33 32
47 51 49 53 53 54 52 43 47 51 46 46 52 42 43 42 42 41 39 38 39 38 36 35 34 35 35 34 32 31 30 31 32 32 33 34 35 35 35 36 36 36 35 35 35 35 36 36 35
39 43 43 48 50 52 50 50 50 48 48 46 45 50 43 40 39 39 40 39 38 37 37 36 35 33 35 35 34 32 32 32 34 35 35 35 35 37 37 37 37 38 36 36 38 39 40 40 39
37 34 36 45 50 53 47 47 50 49 49 48 42 44 51 44 39 39 40 41 40 37 35 36 36 36 37 36 34 35 34 35 36 36 37 37 38 38 39 39 39 40 39 39 39 41 42 43 44
37 36 34 40 45 52 48 45 47 46 47 48 44 44 44 49 46 43 43 40 40 39 38 37 37 37 37 37 36 35 38 37 39 39 37 40 41 43 42 41 41 41 41 42 42 43 43 43 46
37 31 32 39 43 52 48 46 46 45 42 49 47 45 42 41 43 40 40 41 41 40 39 39 38 38 38 39 41 37 38 39 40 39 40 42 43 44 44 44 42 42 42 44 44 42 42 45 47
32 37 28 34 44 48 44 43 43 39 40 35 48 42 44 42 42 39 36 39 40 41 40 40 39 40 41 41 40 42 39 38 40 42 42 43 45 45 46 45 47 45 45 45 44 44 46 47 48
34 36 27 29 39 48 46 44 42 41 39 33 33 42 47 45 43 40 38 37 39 40 39 39 39 40 39 39 39 40 42 40 40 42 44 45 46 46 47 49 50 50 47 48 49 49 47 49 51
38 38 29 32 36 42 47 43 44 39 36 36 34 32 35 33 36 41 38 35 34 33 34 35 36 38 39 38 39 40 41 43 43 42 43 46 47 46 46 47 49 51 52 52 51 53 53 53 53
30 31 34 31 33 34 39 49 45 41 37 33 34 33 34 34 34 36 37 38 36 36 36 34 33 34 36 37 38 38 39 41 42 43 44 44 44 44 44 46 45 48 51 54 56 56 56 58 60
26 25 29 32 31 31 38 46 44 43 39 34 39 33 34 35 36 35 35 34 34 33 33 33 34 35 35 36 36 37 38 39 40 41 41 41 41 41 42 44 47 50 53 55 58 60 62 62 63
25 31 31 30 25 26 35 43 44 45 41 35 36 36 35 36 40 40 38 37 37 36 37 37 37 37 37 37 37 38 38 38 37 37 37 37 38 39 41 44 48 52 55 58 61 63 64 65 66
19 28 31 22 23 23 29 37 42 39 37 36 38 38 39 36 36 37 37 36 36 37 37 38 38 38 37 36 36 36 35 34 34 33 33 34 35 36 40 43 47 51 54 57 58 60 59 62 65
21 25 34 32 25 21 25 29 34 38 35 36 38 38 38 38 38 38 38 38 38 39 39 38 37 36 35 35 35 33 32 32 31 31 32 31 31 34 36 39 38 41 42 42 45 52 55 55 58
19 29 31 33 33 27 26 21 23 32 35 37 36 37 38 38 38 38 38 39 38 37 36 35 34 34 35 34 32 32 31 30 30 30 28 29 27 33 35 35 34 40 45 45 47 49 49 53 54

GFSSGP_500_spd_075.txt.gz
Wind_Speed
53 58 55 53 51 49 43 40 42 42 41 38 33 27 27 29 30 29 18 18 16 16 14 13 12 11 10 10 10 10 10 10 10 10 11 11 12 12 12 13 14 14 14 14 14 14 15 16 17
63 52 59 57 55 52 44 42 45 43 40 34 28 27 30 30 28 24 18 15 19 17 16 15 14 12 11 11 11 11 11 11 11 11 11 11 12 13 12 12 12 13 12 14 14 16 16 17 18
64 57 51 63 59 53 46 43 42 42 39 34 33 33 37 34 27 23 18 17 19 18 17 16 15 14 14 15 14 14 14 13 12 12 11 11 12 12 13 13 14 14 15 16 16 17 17 18 18
63 67 53 64 62 54 46 44 47 47 40 36 36 36 36 31 26 27 23 21 22 20 19 19 18 18 16 15 16 15 14 13 12 12 11 12 12 13 14 15 16 16 17 17 17 17 17 18 18
57 60 62 55 62 57 50 49 49 49 46 38 39 40 38 34 30 31 27 22 20 22 21 20 20 20 18 16 16 17 14 14 14 12 12 13 14 15 16 16 16 16 16 17 17 17 17 17 17
57 58 66 56 56 56 50 53 52 51 49 41 40 42 40 36 34 31 29 24 23 25 24 24 23 22 20 18 17 16 17 16 15 14 14 15 16 15 15 16 17 18 18 17 16 16 17 17 18
56 53 62 54 51 55 54 50 54 49 50 44 43 45 42 37 37 35 32 28 25 27 27 26 24 23 22 19 18 17 17 17 18 17 17 16 16 15 16 16 17 17 17 16 16 17 17 17 17
52 52 55 55 53 56 56 53 45 43 50 48 45 48 42 39 39 39 33 29 30 30 29 28 27 25 24 22 20 19 18 17 17 19 18 17 16 16 16 17 17 17 16 16 18 18 19 19 19
47 52 49 61 46 45 47 48 47 33 45 53 48 48 45 43 41 39 37 32 32 33 31 30 29 26 25 23 21 21 20 19 19 18 17 17 17 17 17 17 17 17 17 17 18 19 20 21 20
51 48 48 50 41 40 39 45 47 42 41 50 54 51 49 47 42 40 38 35 34 34 33 31 29 28 25 23 22 22 22 22 20 18 17 16 16 17 17 16 15 16 18 18 19 20 21 21 22
47 45 39 48 41 46 39 47 35 40 50 46 55 49 47 46 42 40 37 36 35 34 32 30 29 27 25 25 24 25 23 22 22 21 18 16 18 18 16 15 15 17 18 19 20 21 22 22 22
45 39 39 45 49 51 46 39 43 33 41 51 54 52 44 43 41 42 38 35 37 33 33 31 30 28 27 26 26 25 24 24 23 23 21 19 18 19 18 17 18 18 19 21 22 22 23 24 23
48 43 41 46 54 51 48 49 45 36 40 44 54 55 47 46 45 44 40 38 36 34 33 32 31 30 29 28 27 27 25 24 23 23 23 20 18 20 19 20 20 21 21 23 24 24 25 26 25
44 47 44 47 49 44 47 49 51 40 39 44 48 51 50 48 44 41 40 39 37 36 34 33 32 32 30 28 28 27 26 26 24 24 24 23 20 21 22 22 23 24 25 25 26 27 27 29 28
43 46 46 50 44 50 43 43 41 44 45 49 50 53 52 46 43 43 41 40 37 35 35 33 33 33 31 29 30 29 28 26 26 24 24 24 24 23 24 24 24 26 28 28 28 30 30 30 31
45 47 47 46 49 47 47 40 40 43 42 49 49 49 48 47 45 44 41 40 40 38 35 35 34 32 32 31 30 29 28 27 27 26 26 27 27 26 26 27 27 28 30 29 30 31 32 33 34
46 41 46 45 42 48 45 45 41 46 44 45 44 46 43 45 45 44 43 41 42 40 37 34 33 32 33 33 31 30 29 28 28 29 29 29 29 29 29 30 30 31 31 32 33 34 35 34 35
37 41 40 44 42 39 46 45 49 43 45 44 43 47 48 46 45 41 43 42 41 40 39 36 34 34 34 35 33 31 31 30 30 30 30 29 30 32 32 33 33 34 34 33 34 36 37 36 37
36 37 37 34 40 42 46 47 46 51 43 44 43 41 47 49 42 44 42 41 41 41 40 37 34 32 33 35 34 32 32 33 33 31 32 30 32 34 35 35 36 36 36 36 36 36 37 38 40
31 35 35 33 37 41 40 45 47 47 47 40 42 46 43 50 50 45 44 43 41 40 38 35 36 35 34 35 35 36 35 35 33 33 33 34 35 34 35 37 39 39 39 38 39 39 40 41 41
28 33 30 29 31 33 36 43 45 45 47 45 40 44 43 42 47 49 44 41 38 36 35 36 39 38 36 36 36 36 37 36 36 36 36 36 37 36 39 41 40 40 42 42 41 43 43 42 44
30 29 30 33 27 24 29 34 45 42 41 45 41 41 46 43 41 44 50 45 42 40 41 39 38 39 39 39 38 37 37 37 38 39 40 39 40 40 42 43 43 43 42 44 44 44 45 46 46
31 27 32 28 24 26 31 35 39 46 43 39 39 35 43 44 40 40 40 44 47 44 45 43 42 42 42 40 40 40 40 40 39 39 40 42 43 45 46 45 45 45 45 45 46 47 47 48 49
31 31 29 30 27 30 30 31 35 43 37 37 33 35 35 47 44 42 40 40 42 39 39 44 44 42 42 42 42 41 41 40 40 40 40 41 44 45 46 46 45 45 46 46 46 47 49 51 53
31 34 30 29 32 27 29 32 29 41 41 37 34 35 30 35 45 44 42 41 43 40 33 33 36 38 39 41 41 40 40 40 40 41 40 40 42 43 42 41 41 41 41 43 45 47 50 53 57
30 27 31 33 33 30 29 27 25 37 41 37 34 32 30 31 32 32 33 35 40 42 39 35 36 37 36 38 37 38 39 40 40 40 40 40 40 39 38 37 36 38 40 42 45 48 51 54 56
32 34 28 38 37 33 30 29 26 37 42 39 34 33 34 31 31 33 31 31 32 34 37 36 34 35 34 35 36 37 38 38 39 40 41 39 37 36 35 35 36 37 38 42 43 36 32 40 41
27 30 28 23 25 30 25 19 24 29 38 38 36 34 32 37 30 30 31 33 34 33 34 35 37 38 37 38 38 39 40 40 39 38 36 35 35 34 33 34 33 36 39 37 30 35 39 42 43
25 27 30 28 26 33 23 16 15 26 30 36 36 36 37 35 36 34 33 34 35 37 37 37 38 38 38 39 39 39 38 36 35 34 35 35 33 32 32 31 32 36 36 30 32 37 38 39 41
27 23 27 31 32 22 18 15 13 18 25 30 32 35 34 39 37 37 37 37 37 37 38 38 38 39 38 38 36 35 34 34 34 34 34 32 32 31 30 32 34 31 29 32 34 37 37 38 40

GFSSGP_500_spd_078.txt.gz
Wind_Speed
60 59 58 55 51 49 45 40 42 44 42 41 38 40 39 37 36 31 25 22 20 19 18 17 15 13 12 10 8 8 8 7 7 8 8 8 9 10 10 10 10 11 11 11 12 14 14 14 15
58 62 58 58 57 52 44 41 44 44 42 42 39 40 37 36 35 30 22 21 23 21 20 17 15 13 11 9 8 7 7 7 7 8 9 10 11 11 10 11 11 12 13 13 12 14 15 15 15
65 61 63 58 60 55 45 44 47 46 44 43 40 39 37 35 32 27 22 19 19 20 19 18 16 13 11 11 10 9 9 10 11 11 12 12 11 11 11 11 12 12 14 14 14 14 16 15 15
63 63 68 63 59 54 45 48 51 48 45 42 39 42 40 37 32 30 25 22 21 21 19 18 16 14 13 12 12 11 12 12 12 13 12 12 12 12 11 11 13 14 13 13 14 14 16 15 16
64 67 68 68 59 54 47 51 54 50 48 44 41 43 41 37 32 30 27 25 24 23 20 19 17 16 15 13 13 15 12 13 13 13 13 12 12 13 12 12 12 13 13 14 14 14 15 15 17
60 69 69 71 61 52 49 53 56 53 51 49 45 44 42 39 35 34 29 28 26 24 22 20 19 18 17 15 15 15 16 14 14 13 13 14 15 14 13 12 13 13 13 13 13 14 15 16 16
56 62 68 68 61 51 55 56 57 59 55 50 48 47 45 42 37 35 33 30 28 27 25 23 21 20 19 18 17 16 16 17 16 15 14 15 16 15 14 14 14 14 14 14 14 15 15 16 17
53 57 65 70 67 60 57 55 62 62 59 55 51 51 47 42 38 35 34 33 30 28 27 25 24 22 21 20 19 17 17 16 17 17 17 17 17 16 16 16 15 15 15 15 15 16 16 16 17
50 55 61 70 63 60 50 55 58 63 60 60 52 52 46 46 42 38 36 34 32 30 28 26 26 24 23 23 21 19 18 18 18 17 17 18 18 18 18 17 16 16 15 15 16 17 17 17 17
50 55 52 55 48 50 62 56 61 62 62 62 60 53 50 48 44 40 37 35 34 33 31 30 29 27 25 24 22 21 20 19 18 17 17 17 18 18 18 18 17 16 15 16 17 17 18 18 18
47 47 44 49 46 54 62 51 56 59 60 62 63 54 52 49 47 42 39 37 37 36 34 32 31 29 26 25 24 23 22 21 20 18 17 18 19 18 17 17 17 16 17 18 19 18 19 20 20
48 44 48 49 51 52 59 53 54 46 52 60 64 58 56 51 47 45 41 39 38 37 37 35 32 29 28 27 26 24 23 21 21 20 19 19 20 20 18 17 17 18 19 20 20 20 22 23 23
50 46 49 49 55 47 67 54 60 51 47 55 59 62 57 55 49 45 45 45 41 38 36 36 34 32 30 28 27 26 24 23 23 23 21 20 21 20 19 18 18 20 21 22 23 22 22 24 25
46 49 47 52 52 50 57 62 49 43 50 50 55 63 56 56 54 45 44 45 43 40 38 38 35 33 32 31 30 27 25 25 25 24 23 21 22 23 22 21 22 23 23 23 23 24 24 26 28
46 48 48 48 48 46 50 57 50 47 46 54 52 54 52 51 53 51 44 45 46 42 39 36 36 34 34 33 31 29 28 27 26 25 24 23 23 24 24 24 25 26 26 26 26 28 29 29 31
48 48 50 47 45 43 53 58 52 47 47 38 42 52 49 51 50 49 48 46 46 46 43 41 38 37 35 33 33 31 29 28 27 26 26 26 27 26 25 26 27 28 29 28 29 30 31 31 32
50 46 42 45 42 39 42 49 41 45 46 43 35 42 47 52 50 44 47 49 46 45 45 43 41 39 37 37 35 34 31 29 29 28 29 29 27 26 28 29 29 29 29 29 30 31 31 32 33
48 46 44 41 38 40 36 43 43 40 47 43 46 44 44 45 49 46 44 47 48 45 44 45 43 41 40 38 36 33 32 32 32 31 30 29 27 29 30 31 32 32 30 29 30 32 33 34 36
45 42 40 40 41 39 37 40 41 47 43 44 43 42 43 49 49 51 49 48 50 50 45 43 41 39 41 40 38 36 33 35 33 31 31 29 30 32 32 33 33 34 33 32 32 34 35 36 39
38 39 38 34 35 38 37 37 45 48 48 43 38 44 43 46 52 51 51 48 48 46 45 41 39 38 37 39 39 37 35 34 31 31 31 33 34 34 33 34 35 35 35 36 36 37 38 38 41
35 36 32 35 36 34 35 41 41 45 49 46 46 38 42 42 44 49 48 48 46 45 44 42 40 38 40 40 40 38 34 32 33 33 34 35 35 35 35 35 36 38 38 38 40 41 42 41 43
30 30 32 34 34 33 32 35 40 38 43 49 45 43 38 42 40 40 46 48 49 46 44 43 44 44 43 39 37 36 35 34 34 34 36 36 37 37 37 38 39 39 40 41 42 43 43 43 42
30 26 28 28 28 27 29 33 38 41 40 41 43 42 41 39 38 38 38 45 49 50 49 43 43 43 42 41 38 35 35 36 38 38 39 39 40 40 40 40 41 41 43 43 43 43 42 40 41
33 25 25 27 26 30 26 28 32 34 35 38 41 38 45 42 40 40 38 40 45 51 47 49 52 47 42 42 42 43 41 41 41 42 42 41 42 43 43 44 44 44 43 42 42 40 38 38 40
34 29 28 31 30 27 27 30 24 24 34 40 43 38 38 43 38 38 42 41 40 42 49 52 50 50 53 53 52 45 43 42 42 42 41 41 42 43 44 45 45 44 44 43 39 38 36 39 43
32 32 34 32 30 26 26 21 18 20 26 39 45 42 40 37 37 37 43 43 42 41 42 44 46 42 41 44 47 48 47 44 42 41 39 40 41 41 42 43 43 44 42 38 37 36 38 43 44
33 31 30 28 25 28 23 15 16 18 24 34 44 41 38 34 33 35 38 45 47 43 42 41 45 41 37 35 37 39 40 39 39 40 40 40 41 42 42 42 41 39 36 36 35 36 39 37 34
34 25 24 22 19 26 30 23 15 13 26 33 41 40 37 39 36 35 32 35 39 39 40 41 43 44 43 39 39 39 39 39 40 41 41 42 42 42 41 39 37 35 34 33 35 36 37 35 37
35 25 30 27 28 27 24 26 17 19 25 32 40 37 37 36 39 38 34 34 36 36 36 37 37 38 39 38 38 38 40 41 41 42 42 42 41 39 38 36 35 34 33 34 37 37 35 34 36
29 26 27 30 27 31 26 22 15 12 17 25 36 39 37 36 37 39 37 33 34 35 36 36 37 37 38 39 41 40 40 41 41 41 40 39 37 36 36 35 34 34 33 35 38 39 34 33 36

GFSSGP_500_spd_081.txt.gz
Wind_Speed
56 58 58 56 53 53 48 42 42 41 39 38 42 41 40 39 36 32 28 25 24 22 21 19 17 16 14 14 12 11 9 7 5 4 5 6 6 8 8 10 11 11 12 12 12 12 12 12 13
58 62 62 61 58 55 48 40 43 44 44 42 41 41 40 40 36 34 31 26 23 21 22 21 18 17 15 13 11 8 6 5 4 5 5 7 8 9 10 11 12 13 12 11 11 12 12 13 14
56 62 64 64 63 58 48 43 46 46 45 45 43 41 40 40 38 36 31 25 22 22 23 22 18 16 15 13 11 8 6 6 6 6 7 8 9 10 11 13 12 12 12 11 11 12 13 13 14
54 62 60 66 64 56 48 46 45 47 47 49 46 43 41 41 39 37 30 25 23 19 22 20 17 16 15 14 11 8 7 7 7 7 8 9 11 12 13 13 14 13 12 12 12 13 14 13 14
53 60 63 64 66 57 48 48 48 48 49 50 48 46 45 42 40 35 30 28 26 22 22 22 19 17 15 12 11 10 9 8 8 9 10 11 11 13 14 14 14 14 13 14 13 14 14 14 14
52 56 64 70 66 60 53 52 54 51 49 50 47 47 45 43 40 35 34 30 27 25 24 22 20 18 15 12 12 13 12 10 10 10 11 11 12 14 15 15 15 15 15 15 14 14 14 15 15
46 52 60 67 62 61 58 56 60 55 52 52 51 49 47 43 41 37 36 33 31 27 25 24 22 20 17 14 13 13 14 13 12 12 12 13 14 15 15 16 16 15 15 15 15 15 15 15 16
46 49 55 64 66 60 58 57 58 61 57 56 54 51 49 45 41 40 38 35 33 31 28 26 23 20 18 17 15 14 14 14 15 15 15 15 16 17 17 17 16 16 15 15 15 16 16 16 17
48 44 53 61 65 60 63 52 58 62 62 60 56 54 50 47 44 42 41 36 33 31 29 26 23 22 21 19 18 16 16 15 15 16 17 19 19 19 19 18 17 17 16 16 17 18 19 18 18
49 42 34 51 59 62 59 56 56 61 64 62 58 55 52 50 47 46 42 37 34 33 32 29 26 24 23 22 20 18 18 17 17 17 17 19 20 20 20 20 20 19 18 18 18 19 19 19 19
46 34 38 47 57 62 60 64 61 58 60 62 63 57 53 51 49 46 44 41 38 38 34 30 28 27 25 24 22 21 21 21 20 19 18 18 19 19 20 19 20 20 19 19 20 21 21 20 20
45 43 42 44 54 57 58 64 57 50 56 62 63 59 56 54 50 48 45 42 41 37 35 33 31 29 28 26 25 25 24 24 22 19 18 19 19 19 19 20 20 20 20 20 20 21 22 23 23
47 47 45 47 51 54 53 54 58 59 53 56 60 62 59 56 55 52 49 46 43 40 38 35 34 32 31 29 28 28 27 25 23 20 20 21 21 20 20 20 22 22 22 22 23 23 24 25 26
49 48 49 47 50 50 52 54 59 64 54 57 58 59 64 58 57 54 50 46 43 41 39 36 34 34 33 32 31 29 27 26 25 23 22 23 23 22 21 22 23 23 23 24 25 25 25 27 27
51 48 51 47 48 49 52 55 50 59 53 53 59 58 62 63 59 53 50 48 49 44 41 38 37 36 35 35 33 30 29 27 26 25 24 24 25 25 24 24 24 24 25 25 25 26 27 27 27
54 49 48 49 46 48 49 51 46 58 62 54 48 60 63 64 60 54 51 46 46 46 44 41 38 37 38 37 35 32 30 29 28 27 26 27 28 27 27 26 26 26 27 26 28 28 29 29 29
57 49 46 49 46 46 48 51 46 59 64 53 50 54 60 54 54 61 54 50 46 46 46 43 41 39 38 38 36 34 33 31 30 30 30 30 29 29 28 28 28 29 29 29 30 30 31 31 33
54 49 45 46 46 43 47 48 46 48 69 63 43 60 57 53 48 47 52 53 50 48 48 47 44 42 41 39 38 36 35 34 33 33 33 32 30 29 29 30 30 30 30 31 32 31 32 33 35
50 46 45 42 46 44 40 43 37 53 55 64 62 37 45 51 51 48 49 52 52 50 49 48 46 45 43 41 41 40 38 38 36 35 34 31 30 31 31 31 32 31 32 33 33 33 33 35 37
48 46 44 39 38 42 45 42 40 40 51 58 58 44 38 34 49 47 51 51 53 52 48 48 47 47 45 45 45 44 42 40 38 37 35 33 33 34 34 33 31 33 34 35 34 36 38 39 40
50 43 39 36 34 35 36 43 43 38 42 47 42 44 41 40 41 43 42 47 52 50 47 45 45 46 47 47 46 45 44 41 38 37 37 36 36 36 34 35 35 36 37 37 38 39 41 40 41
49 40 39 38 36 32 38 38 42 38 42 41 42 31 38 39 43 39 41 47 47 50 47 47 48 47 45 45 46 46 45 41 38 38 38 36 36 36 38 38 38 38 39 39 40 41 42 42 41
37 35 36 37 37 36 34 32 38 42 39 39 41 41 38 35 35 40 39 43 50 52 53 49 47 47 47 46 45 45 44 42 39 38 37 37 38 39 40 40 39 40 41 41 42 42 42 41 41
34 33 32 32 32 35 32 32 30 33 39 38 36 42 46 45 40 38 41 39 41 49 51 54 49 47 48 46 45 45 43 41 39 38 39 40 41 42 42 42 41 42 43 43 43 43 41 41 38
37 30 29 30 33 35 31 29 17 30 31 38 40 38 43 49 48 47 41 41 42 41 48 51 53 53 52 47 47 48 46 42 39 39 40 43 45 45 44 43 43 44 45 44 43 42 41 39 34
38 32 34 35 36 32 31 28 20 21 28 31 34 39 41 45 49 51 47 49 46 43 43 45 52 51 51 52 53 54 55 54 54 53 47 46 45 46 45 45 43 44 45 44 43 43 39 36 35
39 36 32 32 32 28 27 19 18 21 27 27 32 38 42 43 45 47 49 45 47 48 46 44 44 48 54 56 55 53 53 50 47 47 48 48 47 43 41 43 43 43 44 44 43 40 38 38 36
34 31 30 28 27 25 24 19 18 15 17 27 32 37 42 43 43 43 43 45 44 45 47 46 44 45 46 47 49 47 42 41 41 41 42 42 42 41 42 43 43 44 44 41 39 38 37 36 37
39 35 34 29 28 26 25 23 24 21 20 26 32 35 41 44 45 45 43 41 39 39 45 48 45 46 45 44 43 47 44 42 42 42 42 42 42 42 43 44 44 43 40 37 37 36 35 36 37
33 31 27 24 24 26 25 17 14 19 22 27 27 28 39 45 44 43 46 46 41 37 36 40 43 45 44 44 44 46 47 43 43 43 42 43 44 44 43 43 41 38 37 36 35 34 34 36 38

GFSSGP_500_spd_084.txt.gz
Wind_Speed
45 46 48 51 52 52 49 44 41 39 38 41 43 43 40 36 34 33 29 25 23 20 19 19 16 14 13 12 11 10 10 9 6 4 3 3 3 5 6 7 8 9 10 12 13 11 12 11 11
47 46 48 51 54 55 50 44 42 42 41 40 42 44 42 39 36 32 30 29 26 23 21 21 18 16 15 13 11 10 9 7 4 3 4 4 5 6 8 9 10 12 12 11 11 11 11 12 12
50 49 49 52 54 53 50 43 44 43 43 43 44 43 42 40 37 36 34 32 27 23 22 20 20 18 16 14 11 9 7 5 5 6 5 5 5 7 10 11 12 12 12 12 11 12 12 12 13
51 52 53 55 55 53 49 47 46 45 44 46 44 43 41 39 37 37 36 32 28 22 24 20 19 19 18 14 12 10 8 8 7 6 6 6 8 9 10 10 11 12 12 12 12 13 14 14 13
55 56 55 50 55 54 52 50 49 47 46 47 46 44 40 40 38 37 35 32 29 26 24 22 20 20 19 16 13 11 10 8 7 7 7 8 8 9 10 11 12 12 13 13 14 14 15 14 15
58 59 58 49 50 57 55 51 53 50 49 49 49 46 45 42 40 38 36 31 30 27 27 25 23 21 18 16 14 12 10 9 8 8 8 9 9 10 11 12 13 14 14 14 15 15 15 15 16
59 60 53 47 43 57 59 52 56 53 53 52 50 49 47 45 42 39 38 33 32 29 28 26 24 21 19 16 14 13 12 10 10 9 10 10 10 11 12 13 14 15 15 15 15 15 15 16 17
59 60 56 50 45 52 58 56 56 53 56 54 52 50 47 46 44 41 38 36 35 31 29 27 24 22 21 18 15 13 13 13 12 12 12 12 11 12 13 14 15 15 15 15 16 15 16 17 18
60 59 54 47 43 47 59 58 58 54 55 58 55 52 49 47 45 42 39 38 34 31 30 27 24 23 21 19 17 15 13 13 14 15 16 15 14 14 14 15 15 15 16 16 17 16 17 17 19
61 58 50 46 42 43 59 54 62 58 56 59 59 55 51 49 46 44 42 41 38 33 31 28 26 25 23 21 19 17 15 15 14 16 17 17 17 17 17 18 18 17 17 17 17 18 19 19 19
59 55 48 44 40 44 61 61 59 61 60 62 60 59 54 52 50 48 45 44 42 37 34 31 30 28 25 24 22 19 18 17 17 17 18 18 18 17 17 18 18 18 17 17 19 20 21 21 20
58 55 50 45 42 43 55 67 63 60 52 59 58 61 58 53 50 48 46 44 44 40 38 35 32 30 28 27 24 22 21 20 20 19 19 19 19 18 18 19 18 18 18 18 20 21 22 22 22
58 56 51 48 45 43 51 60 66 63 50 61 61 59 60 53 51 48 49 48 46 44 40 37 35 33 31 29 26 25 24 24 22 21 20 20 20 19 19 19 19 20 19 20 21 22 23 23 24
57 56 53 51 47 41 46 55 64 66 58 62 60 57 57 57 53 50 50 48 46 44 43 40 37 35 33 30 29 28 26 26 24 23 22 22 21 20 20 21 21 21 21 22 22 22 23 24 25
56 57 54 51 48 42 42 53 56 64 68 56 55 55 57 57 58 54 51 52 48 44 40 41 40 38 35 34 32 30 29 28 27 26 24 24 23 23 22 23 24 23 24 24 24 24 24 25 26
55 56 54 50 48 43 41 45 51 62 63 63 54 53 54 59 59 57 51 54 52 47 43 42 41 39 38 36 35 33 31 31 30 28 27 27 27 25 25 25 25 25 25 26 26 26 26 26 28
54 55 53 49 47 44 38 43 47 52 62 62 62 56 53 55 57 59 58 54 51 49 47 45 43 41 40 40 37 35 34 33 32 31 31 30 29 27 27 27 28 28 27 28 28 28 28 29 30
64 57 52 48 45 42 38 41 45 49 56 55 55 59 53 56 59 58 60 63 58 53 47 46 45 44 43 42 39 36 34 34 35 34 33 32 30 29 29 30 31 29 29 29 29 30 30 31 33
55 54 51 46 42 42 40 39 43 49 56 55 58 62 49 54 57 56 58 56 64 60 50 45 44 44 44 42 40 38 37 38 37 35 32 30 32 32 32 33 33 31 30 32 32 32 33 34 36
55 51 44 42 40 40 39 39 42 45 53 49 52 49 60 51 52 55 60 62 58 59 57 53 50 48 44 42 42 42 41 41 38 37 35 35 34 35 36 34 32 32 32 33 35 37 36 37 38
55 49 43 41 40 39 37 40 39 43 51 57 48 54 49 41 52 54 60 57 49 53 56 54 54 52 49 47 46 45 43 42 40 39 40 40 39 37 37 36 35 36 37 37 38 40 40 40 39
51 45 37 39 39 36 33 41 38 42 46 48 43 45 44 52 44 52 57 55 48 48 49 57 54 52 50 49 48 47 46 44 43 44 42 40 41 41 39 38 37 39 39 39 41 43 42 41 41
43 46 38 39 40 38 34 33 38 43 43 41 38 36 44 56 52 41 39 50 51 46 46 50 52 54 53 53 51 50 49 48 46 45 43 43 43 43 41 39 39 39 41 43 43 43 41 41 42
36 46 43 37 37 37 34 29 27 35 39 40 38 39 35 40 39 50 46 41 43 44 43 46 48 48 50 52 51 49 50 50 48 46 45 44 44 44 41 41 41 43 45 45 45 44 42 42 42
31 32 43 38 38 40 34 32 25 29 33 37 39 35 35 39 40 40 44 44 45 41 39 43 49 51 50 49 50 51 51 50 48 47 47 47 46 44 44 43 44 46 48 46 45 43 42 42 41
31 28 34 40 41 38 33 33 25 24 32 29 31 35 36 31 38 41 38 39 40 41 41 39 44 49 51 53 51 48 48 49 48 46 45 44 43 44 44 47 47 48 46 44 45 42 43 42 42
34 30 30 30 35 36 33 33 22 22 21 28 30 28 32 37 35 40 45 49 49 46 40 41 43 45 50 53 52 53 53 51 49 47 47 48 50 54 55 53 51 50 47 45 43 43 43 44 40
34 31 29 28 32 34 33 31 24 23 27 31 30 30 32 35 40 42 45 48 51 55 52 52 50 49 48 50 54 54 52 52 53 54 54 52 53 50 49 49 49 48 45 43 43 45 44 41 38
31 35 31 28 27 28 29 29 24 23 27 27 29 34 36 36 37 42 47 47 50 52 55 52 50 51 52 52 51 51 53 56 56 55 53 49 44 42 43 43 43 42 42 43 44 44 41 38 37
31 32 33 31 29 28 27 26 20 18 25 27 24 25 28 33 42 41 45 48 48 47 46 50 48 50 51 52 49 48 48 49 48 44 47 47 44 44 44 43 43 43 43 44 43 41 38 37 36

GFSSGP_500_spd_087.txt.gz
Wind_Speed
51 51 52 54 54 54 51 45 42 40 39 41 42 41 39 36 33 30 26 24 19 18 16 15 15 13 12 11 10 10 9 9 8 6 5 2 1 3 4 5 7 9 11 12 12 10 11 10 11
53 54 54 54 55 54 50 47 42 42 41 41 42 42 41 38 34 32 31 28 25 21 18 18 18 16 14 12 11 10 9 9 8 6 4 2 3 4 5 6 8 10 11 11 11 10 11 12 13
55 57 56 55 52 51 49 46 44 44 44 42 42 41 42 41 36 33 32 30 29 25 22 20 19 18 14 13 12 10 8 7 6 5 4 4 4 4 6 7 9 9 9 10 10 11 11 13 13
57 60 59 56 50 46 47 48 46 45 46 44 42 43 41 41 38 35 34 32 28 26 22 20 20 19 16 14 13 11 9 7 6 5 5 5 4 5 6 7 7 8 9 9 10 11 12 13 13
59 62 61 55 50 46 45 47 51 49 46 45 45 44 41 40 39 36 36 35 32 28 23 21 21 19 17 15 14 12 10 8 7 7 7 5 6 6 6 6 7 7 9 10 11 12 13 13 14
59 63 62 55 49 48 45 43 48 52 51 46 46 44 43 42 39 38 38 37 34 29 26 23 21 21 19 18 16 14 12 10 9 8 7 7 7 8 7 7 7 8 9 10 11 13 14 14 14
57 63 59 52 47 48 43 42 47 50 50 52 47 46 46 45 42 40 39 37 32 28 26 25 23 23 21 19 18 16 13 11 11 10 9 8 9 9 8 7 8 9 10 11 12 13 14 15 16
57 60 61 56 50 42 40 39 46 52 51 53 50 48 49 48 45 42 39 38 33 29 26 27 27 24 22 20 18 16 15 13 12 11 10 10 9 9 9 9 9 10 11 12 12 14 15 16 17
58 61 60 53 49 39 41 41 46 54 56 52 54 49 48 47 46 42 39 38 34 30 27 27 27 24 22 20 19 18 16 15 14 13 11 11 10 11 11 10 11 11 11 12 13 14 15 17 18
57 61 60 54 49 46 46 45 46 55 57 57 53 53 49 48 48 45 41 40 38 34 29 28 27 25 24 23 21 20 19 17 16 14 13 12 12 13 13 13 13 13 13 13 14 14 15 17 18
64 62 60 56 52 51 49 48 47 59 62 60 57 54 52 50 49 47 45 45 42 39 34 31 30 28 26 25 24 23 21 19 18 16 15 14 14 15 15 15 15 15 14 14 15 15 15 17 19
64 64 60 56 55 54 52 47 46 58 60 60 60 55 55 51 50 49 46 44 43 42 39 36 34 31 30 28 27 25 22 20 18 18 18 16 16 16 16 16 15 15 15 15 16 17 18 18 19
69 60 58 57 55 53 52 47 47 56 59 62 60 58 54 56 52 50 47 45 45 43 42 40 38 35 32 30 30 27 24 23 20 20 20 19 18 18 18 17 17 17 16 17 18 19 20 20 20
62 61 59 57 57 55 51 47 46 55 65 61 61 59 55 52 56 51 47 46 45 44 45 43 41 38 36 33 32 30 28 24 22 21 21 21 20 20 20 20 19 18 18 19 19 20 21 21 22
66 61 57 57 57 55 50 47 42 54 66 63 62 64 59 55 53 54 50 48 46 47 49 45 43 41 39 38 35 32 29 25 25 23 23 23 23 22 22 22 21 20 21 21 21 22 22 23 24
62 62 58 56 56 56 49 43 40 46 65 69 57 59 58 55 55 56 53 50 49 50 51 47 48 44 41 39 37 35 32 29 27 25 25 26 26 25 25 24 23 23 24 23 23 24 24 25 26
64 64 62 56 54 53 49 43 41 40 55 68 63 54 58 55 53 54 55 54 52 49 49 48 45 47 43 43 41 38 35 32 30 28 29 29 29 28 28 28 26 25 26 26 25 26 27 27 28
50 63 59 53 51 51 47 44 41 40 47 60 67 62 54 55 54 52 54 57 56 53 48 53 48 43 46 46 44 40 37 34 33 33 33 33 32 31 30 30 30 29 28 28 27 28 28 29 30
52 54 59 51 49 47 45 42 38 39 41 53 63 66 60 53 56 52 52 55 57 56 50 52 52 52 48 48 46 44 40 39 38 36 35 34 33 33 34 34 33 31 30 30 30 30 31 30 33
50 54 56 49 45 44 42 38 37 38 40 47 53 61 62 59 52 52 47 49 56 59 59 52 51 49 48 49 48 46 43 41 38 38 37 37 37 35 33 32 33 31 30 31 32 32 33 35 37
44 49 52 45 43 42 37 36 37 36 38 44 49 53 60 59 64 57 46 52 51 54 58 61 60 50 52 50 47 45 45 42 41 41 42 41 38 35 35 36 36 35 35 34 34 37 36 37 39
39 46 50 43 43 43 38 35 34 34 35 38 42 49 52 54 54 51 52 48 57 52 52 57 57 67 60 52 51 47 46 43 43 42 43 42 42 41 41 41 40 39 38 37 36 38 40 41 43
31 40 44 44 41 41 39 36 30 32 31 37 37 42 48 41 43 51 57 50 51 55 59 55 56 63 65 64 54 49 49 47 46 46 45 45 45 45 43 42 41 40 40 39 38 40 41 44 44
26 32 38 39 42 45 38 35 26 31 34 30 34 36 41 35 48 47 45 52 53 51 52 48 50 56 58 61 57 54 49 48 48 47 46 46 45 45 44 44 43 43 42 42 41 41 43 46 46
31 33 38 39 41 44 37 34 23 25 28 33 34 35 36 34 36 47 49 40 48 57 57 52 54 49 45 49 56 56 51 49 49 48 48 48 47 48 47 46 45 45 44 43 42 43 45 48 45
31 30 32 42 41 40 35 36 28 24 19 24 28 33 36 32 32 34 32 40 45 46 47 46 45 43 46 47 48 49 51 54 57 57 52 51 51 50 49 50 48 46 46 47 48 49 53 47 45
26 25 25 32 37 34 32 35 25 21 25 23 25 24 30 35 34 33 35 40 47 55 51 47 45 44 46 49 48 48 49 49 50 50 50 49 49 48 47 46 46 47 49 51 53 52 47 46 43
32 24 24 23 33 34 30 32 25 21 26 25 23 24 25 26 32 37 37 38 48 42 47 48 46 48 47 45 47 50 51 51 51 51 51 48 47 46 47 48 50 52 52 50 47 45 42 41 40
29 25 23 24 27 29 28 34 23 24 27 28 27 25 24 23 25 28 34 39 39 42 44 44 45 45 44 45 45 46 47 50 51 51 51 51 52 53 53 53 52 52 46 43 43 42 40 42 42
24 26 24 23 23 23 24 26 25 24 29 30 31 28 24 22 24 27 30 34 38 45 47 49 51 51 51 51 49 51 53 53 51 52 53 54 55 54 54 54 50 44 42 43 42 42 42 44 44

GFSSGP_500_spd_090.txt.gz
Wind_Speed
54 52 51 51 53 53 49 47 44 43 43 45 42 40 38 33 32 32 24 23 21 20 17 17 16 14 13 13 13 12 11 10 9 7 7 6 4 1 2 3 4 5 7 7 8 8 8 9 10
55 54 54 54 53 53 51 47 45 45 44 44 44 42 40 38 35 32 29 27 24 21 19 17 16 16 14 13 12 12 12 10 9 8 6 5 3 3 4 4 5 6 6 7 7 7 8 8 10
56 57 56 57 56 51 50 49 48 46 45 44 45 44 43 40 37 33 31 31 29 25 22 18 17 15 15 13 13 11 11 10 9 8 7 6 3 4 5 5 5 6 6 7 7 7 8 9 10
59 59 59 59 54 49 52 51 49 47 46 44 44 45 44 41 38 35 33 33 31 29 25 21 19 16 16 15 13 12 11 10 9 8 7 5 4 4 5 5 5 6 6 7 7 8 8 9 10
57 61 60 58 54 53 51 52 52 49 47 46 44 46 44 42 40 37 35 34 32 31 25 22 20 18 16 17 14 13 12 11 9 8 6 5 6 5 5 6 6 6 6 7 7 8 8 9 10
54 60 62 59 52 54 54 51 53 53 52 46 46 45 45 44 42 39 38 37 34 32 27 22 20 19 18 18 17 16 14 13 10 9 7 7 6 6 7 6 7 6 6 7 7 8 8 9 11
53 54 59 54 56 57 52 50 51 54 52 54 46 47 45 45 44 41 39 39 37 34 30 25 23 20 20 19 19 18 16 15 12 11 9 9 7 7 7 7 7 7 6 6 7 8 9 11 12
61 54 58 59 60 55 54 50 48 49 52 49 52 47 47 46 45 43 40 40 39 36 31 27 24 24 22 22 21 19 17 16 14 13 11 10 8 8 7 7 8 7 6 7 8 10 11 12 13
58 60 57 59 59 52 54 52 48 48 48 50 48 51 46 47 46 43 41 40 38 35 32 28 26 25 24 24 22 20 19 17 16 15 14 12 11 9 8 8 8 8 7 8 9 11 12 13 14
63 57 52 54 58 61 59 53 49 48 49 49 49 48 49 48 48 45 43 42 40 37 33 30 28 27 26 25 23 22 21 19 18 16 15 14 12 11 10 9 9 9 8 9 10 12 13 14 16
62 52 51 58 64 64 60 57 52 48 48 49 51 50 50 50 49 48 46 44 43 41 36 32 30 29 28 27 26 25 24 22 20 18 16 15 14 13 13 11 11 10 10 10 12 13 15 16 18
58 53 62 58 60 64 62 55 52 48 44 48 54 54 53 51 51 49 47 46 44 43 40 37 32 32 31 30 29 28 26 23 21 20 18 17 16 15 15 14 14 13 13 13 13 14 15 17 18
59 52 62 59 59 63 62 57 53 49 46 43 50 56 56 54 53 51 49 47 46 43 42 39 36 35 35 33 32 31 29 26 24 22 21 19 18 18 18 17 17 16 15 15 16 16 17 18 19
56 56 58 62 60 60 60 54 57 49 47 45 44 55 60 58 55 54 50 48 46 45 43 42 39 39 39 37 35 35 33 29 26 25 22 21 20 21 20 20 19 18 18 18 18 19 19 20 20
52 53 57 60 61 60 59 56 53 53 50 47 44 50 59 61 58 54 54 49 46 46 44 43 43 43 42 41 40 37 36 31 28 26 23 23 22 22 22 22 21 21 21 21 21 21 22 22 23
45 50 57 54 64 62 58 52 55 52 51 48 44 49 58 61 60 54 55 54 50 47 46 44 43 44 46 45 44 42 39 35 32 28 26 25 25 25 25 25 23 23 23 23 23 24 24 24 26
49 51 54 56 64 60 57 52 52 51 49 47 45 51 58 63 63 58 55 57 54 49 48 46 44 45 50 47 46 46 43 39 35 32 30 30 29 29 28 28 26 26 25 26 26 25 25 27 29
57 46 53 60 57 60 56 53 48 49 47 46 43 47 63 61 62 57 55 51 53 52 51 49 46 46 47 48 50 48 46 41 37 35 34 35 34 32 31 31 29 28 28 28 27 27 28 30 31
44 45 43 54 60 61 55 50 48 47 48 44 40 38 59 66 62 60 59 54 50 50 52 50 49 47 47 49 49 58 50 45 42 42 41 38 36 34 34 34 32 31 30 30 30 30 31 31 32
41 41 45 53 57 54 51 49 44 47 46 44 39 36 50 68 65 62 60 55 53 51 54 57 52 50 47 49 44 48 55 50 47 46 42 40 40 39 38 34 33 33 32 31 30 31 33 33 33
40 42 46 46 49 53 49 45 43 45 46 42 40 37 42 56 67 52 61 55 54 53 51 52 59 55 53 46 50 53 47 48 50 48 48 46 42 39 35 34 36 36 35 33 35 35 36 35 35
35 44 44 46 45 46 44 42 39 39 42 41 38 39 41 48 56 66 52 55 56 54 54 50 51 57 56 49 53 58 54 50 57 54 51 47 43 41 39 38 38 38 39 39 39 37 38 39 38
23 35 37 37 44 44 45 41 39 39 39 40 38 37 40 45 50 56 59 59 54 58 54 54 45 50 52 55 52 56 54 52 50 50 46 42 41 43 41 41 42 41 42 42 39 40 40 40 40
23 26 31 28 40 44 43 47 42 37 36 36 35 31 35 39 43 51 53 56 60 53 46 47 52 49 49 50 51 56 58 53 55 48 49 45 46 43 43 44 44 44 42 42 42 42 41 41 40
27 28 35 38 36 43 44 44 40 38 36 33 30 31 34 38 41 44 49 45 55 54 57 50 47 50 53 50 49 62 61 68 63 59 53 49 48 45 46 45 44 43 44 46 45 44 44 44 44
36 30 33 39 43 40 41 41 40 34 33 28 25 31 30 33 35 36 42 40 41 48 53 50 54 50 52 52 54 56 55 55 62 64 54 48 47 46 47 45 46 47 47 47 46 45 44 44 49
38 28 27 31 34 36 37 40 34 30 28 23 22 23 31 34 34 36 42 34 38 50 45 53 63 56 54 59 54 51 52 53 49 48 50 48 47 50 52 52 47 48 52 52 49 48 48 50 52
37 27 27 29 30 31 30 34 29 27 27 27 23 20 21 26 32 34 35 36 35 32 34 41 45 57 61 61 56 54 52 48 48 47 50 53 53 53 52 50 51 50 50 48 47 48 52 51 46
31 26 27 25 26 28 30 30 26 24 27 25 23 22 18 21 24 27 34 35 34 34 38 45 51 54 52 52 51 49 48 49 50 51 53 53 53 52 51 51 50 50 50 50 52 52 51 45 42
29 24 19 20 19 25 27 26 22 24 28 28 27 26 23 19 17 17 19 23 30 37 36 35 45 45 58 57 53 50 50 50 50 47 48 49 51 51 52 51 51 50 49 49 51 53 47 44 42

GFSSGP_500_spd_093.txt.gz
Wind_Speed
59 58 56 55 54 52 49 47 47 47 48 47 43 40 38 37 33 34 28 24 23 21 21 18 16 16 15 14 13 11 11 10 9 8 7 7 6 4 3 2 3 4 4 5 5 6 6 7 8
61 59 59 57 57 56 49 47 51 44 46 46 43 41 36 38 34 34 29 27 25 23 22 19 18 17 16 14 13 12 12 11 10 10 8 7 6 4 4 3 4 4 4 4 5 5 6 7 8
62 62 61 60 58 57 52 48 51 49 44 44 45 44 44 43 37 35 32 29 27 25 23 21 19 18 17 15 13 13 11 10 10 9 8 8 6 5 4 4 4 4 4 5 5 6 6 7 8
64 64 63 64 60 51 53 47 52 47 46 45 47 47 46 38 38 36 33 32 30 29 25 22 20 19 17 16 13 13 10 9 9 9 9 8 6 6 4 5 5 4 5 5 5 6 6 7 8
65 66 65 63 58 53 55 59 56 48 49 47 46 50 48 44 40 38 36 34 32 31 29 26 23 20 17 16 16 13 12 10 10 10 9 8 8 5 4 5 5 5 5 5 5 5 6 7 8
64 66 62 65 58 56 58 58 50 52 50 48 47 51 49 45 42 41 38 36 34 32 30 29 26 23 19 17 17 16 14 13 12 12 10 9 7 5 6 6 5 5 5 4 4 5 6 7 8
64 63 60 59 57 61 59 56 52 53 52 50 50 50 46 47 44 41 39 37 36 33 31 29 25 24 21 18 18 18 17 15 14 13 11 10 7 7 7 6 5 5 5 4 4 5 5 7 9
62 62 60 57 62 58 62 56 55 55 57 52 54 50 47 46 46 43 41 39 37 36 34 30 27 26 24 21 20 20 19 18 17 16 13 11 9 9 8 7 6 6 6 5 5 5 6 8 9
61 65 63 61 58 53 58 61 58 59 57 56 52 55 46 47 45 45 43 41 40 38 35 31 28 29 27 24 22 22 21 20 19 18 15 13 12 10 9 8 7 6 7 6 6 6 8 9 11
60 61 57 51 55 51 48 60 60 57 57 57 55 51 54 48 47 44 44 43 40 38 36 32 29 29 30 27 24 24 24 23 21 20 17 15 13 12 10 10 8 8 8 8 8 8 10 11 12
65 53 45 56 50 54 55 59 61 58 57 55 57 57 50 52 48 47 44 43 41 40 37 34 30 29 31 28 26 26 26 24 22 20 18 17 15 14 12 11 9 10 10 10 10 11 12 13 14
64 60 61 57 54 60 54 56 61 60 57 57 55 54 52 48 50 47 45 42 42 41 39 37 32 30 31 30 29 28 27 26 23 21 19 18 16 15 14 13 12 12 12 13 13 13 15 15 16
64 60 64 57 55 48 57 53 61 61 59 59 54 51 51 47 49 50 46 45 44 42 42 41 35 32 32 33 32 31 30 29 26 24 23 20 19 17 16 16 15 15 14 15 15 15 17 18 19
66 67 61 63 62 52 48 62 65 64 63 57 53 51 50 48 47 48 51 47 46 45 44 43 39 35 32 34 36 34 34 32 29 26 25 22 22 21 20 19 18 18 18 17 17 17 18 19 20
69 72 65 64 64 67 60 64 63 63 63 56 54 52 51 49 48 48 49 53 48 47 45 43 42 40 38 36 37 38 37 35 32 29 27 26 25 23 23 22 21 21 21 21 20 20 21 21 21
58 64 69 58 63 64 58 60 63 62 62 58 54 50 47 46 47 49 51 51 54 47 47 46 44 43 42 40 38 39 40 38 36 33 30 30 27 26 26 25 24 24 24 23 23 23 23 23 23
54 55 59 57 51 64 61 52 51 59 62 57 54 49 46 45 46 46 50 52 51 53 48 47 47 46 44 42 42 41 43 42 40 39 34 33 32 30 31 30 28 27 26 26 25 24 25 25 25
48 46 52 56 55 51 61 55 52 56 61 57 54 51 47 45 45 44 49 53 53 53 52 51 48 48 45 43 43 43 46 45 43 42 39 38 38 35 35 33 31 30 29 28 25 26 26 26 26
53 43 40 48 49 50 54 55 52 53 55 54 53 50 46 41 41 46 46 54 54 53 54 54 53 50 46 44 44 43 44 49 44 44 45 45 43 41 39 37 35 33 30 28 28 28 27 26 25
42 49 40 36 44 50 44 56 51 54 53 53 52 50 45 41 39 46 46 50 55 55 53 54 55 55 53 49 43 44 44 44 48 48 51 50 48 46 43 42 37 34 31 30 30 30 28 28 29
41 40 48 37 36 44 39 44 56 52 51 52 52 48 44 42 41 47 48 50 60 56 56 53 52 49 56 54 50 47 44 46 48 51 56 55 51 47 48 46 40 37 34 32 31 32 32 32 33
36 36 40 41 41 43 51 40 49 51 51 50 49 45 43 42 41 45 43 54 60 61 58 57 55 48 40 52 55 50 51 49 43 43 49 58 55 57 54 52 47 43 41 37 34 33 35 35 35
31 32 37 38 39 38 45 48 42 44 47 48 44 45 45 43 43 44 42 47 62 58 58 59 55 52 47 51 51 54 56 50 49 47 53 54 51 54 58 48 37 41 40 38 36 35 36 37 36
27 27 27 28 34 33 36 46 41 43 45 44 44 44 43 43 42 42 40 41 49 63 55 59 58 53 55 53 47 51 43 53 54 57 53 58 56 57 55 54 50 41 41 36 37 37 37 37 38
25 25 31 34 33 32 32 44 48 43 46 43 41 40 43 43 39 39 40 39 42 48 58 55 56 55 55 56 53 49 50 48 55 54 48 53 53 57 54 52 47 47 41 38 39 40 40 41 41
29 29 29 31 29 32 37 41 46 47 38 37 35 38 39 39 35 34 38 39 42 44 50 54 57 54 56 60 49 52 53 47 47 48 53 58 60 57 58 67 50 46 41 41 41 42 45 42 42
28 28 32 34 29 26 35 41 41 45 38 36 32 30 30 33 32 30 33 33 36 39 44 47 54 57 57 54 49 49 52 50 52 53 62 55 52 51 57 50 49 45 46 42 43 46 44 46 50
27 27 29 26 32 29 26 37 35 36 38 35 32 30 27 23 25 30 30 32 30 36 36 36 42 50 53 56 53 54 53 51 54 54 50 47 48 45 42 43 45 46 45 48 51 48 48 46 48
28 29 24 24 22 18 21 27 32 26 29 31 28 25 21 19 21 26 32 33 32 36 37 34 32 42 41 51 59 61 60 59 56 56 57 51 53 47 44 46 46 46 46 45 47 45 46 47 49
34 28 22 21 18 20 18 24 23 27 28 27 28 25 22 20 18 24 25 31 34 33 33 36 35 34 41 43 55 52 50 60 60 50 51 52 49 48 49 50 52 51 51 50 50 51 51 50 49

GFSSGP_500_spd_096.txt.gz
Wind_Speed
61 61 58 56 56 55 56 48 44 43 44 42 43 43 35 36 28 35 30 26 23 22 19 17 16 16 15 14 13 13 11 10 7 6 5 5 5 4 3 2 2 4 5 4 4 4 5 6 6
64 63 61 60 59 58 48 48 45 45 49 51 44 40 42 35 37 38 32 28 27 24 21 19 18 17 16 15 13 11 10 10 8 8 7 6 5 5 3 2 3 4 4 4 3 4 4 5 6
64 63 64 64 62 61 52 45 47 50 51 48 42 42 46 42 39 25 28 29 26 24 23 21 20 18 17 16 14 11 10 10 9 9 8 7 6 5 3 3 4 4 4 4 3 3 4 5 6
63 65 65 68 66 55 52 45 49 53 47 42 44 44 45 41 40 34 29 29 27 25 24 23 21 19 18 17 15 12 12 11 9 8 9 8 6 5 4 4 3 4 4 3 3 3 4 5 6
63 66 66 67 63 55 53 48 39 50 50 42 46 50 47 40 38 36 34 32 30 28 26 24 21 19 19 18 16 14 13 12 10 9 9 8 7 6 5 4 3 4 4 3 3 3 4 5 6
63 66 69 67 62 57 55 57 46 57 50 50 46 51 48 43 42 39 37 35 33 31 28 27 25 23 20 18 17 16 14 14 12 12 10 9 8 6 6 4 4 4 4 3 2 3 4 5 6
68 66 69 64 57 60 57 55 52 58 54 51 49 51 52 48 44 41 39 39 35 34 30 28 27 26 23 20 18 16 16 15 14 13 12 11 9 8 6 4 5 5 4 3 3 3 3 5 6
66 66 68 65 59 59 58 59 57 58 57 50 55 55 48 48 45 44 40 42 34 35 33 30 27 26 25 22 20 18 17 17 17 15 14 13 11 10 6 6 6 5 4 3 3 2 3 5 7
64 70 57 69 64 58 54 58 56 61 58 52 53 51 51 44 47 45 43 42 37 37 36 32 27 25 26 24 22 20 19 19 18 18 16 14 13 11 8 8 8 6 5 5 4 3 4 5 7
68 70 64 60 58 55 51 49 59 60 62 54 53 51 50 46 45 47 45 42 39 40 36 34 29 26 27 26 25 23 21 21 20 20 18 17 15 13 11 10 9 8 6 6 5 5 5 6 8
69 63 57 62 57 58 52 51 49 60 59 55 53 53 48 50 48 46 46 45 43 40 36 34 32 28 27 28 27 26 24 23 22 22 20 18 16 15 14 12 11 9 8 7 7 8 8 8 10
63 58 63 62 62 57 58 41 52 63 57 57 56 57 51 46 51 50 46 47 43 39 37 36 33 29 27 29 28 27 26 25 24 23 21 19 18 17 16 15 13 12 10 10 9 10 10 11 12
54 65 63 61 65 65 50 63 45 56 51 59 61 57 56 53 49 53 49 46 44 42 40 37 34 30 28 28 28 27 27 27 26 25 23 21 20 19 18 17 15 14 14 13 13 13 13 14 15
61 69 68 64 63 69 57 51 48 37 51 56 62 59 57 55 53 47 54 48 45 42 40 39 34 37 31 27 28 30 27 29 28 27 26 25 23 21 21 19 19 18 17 16 16 16 16 17 17
62 66 72 63 58 55 61 61 46 60 50 57 61 59 58 55 53 50 48 53 45 43 40 40 35 37 33 31 28 29 29 30 29 30 29 28 27 24 24 22 22 22 21 20 20 19 19 19 19
49 69 71 66 66 54 46 67 57 43 45 58 63 59 57 52 50 48 47 48 50 43 41 42 44 38 38 35 34 31 31 29 30 32 32 31 31 29 28 26 27 26 24 24 23 22 21 21 22
42 60 70 70 68 50 53 56 71 63 33 50 63 59 57 53 50 46 44 44 45 45 46 44 44 45 43 38 37 36 35 34 32 33 35 35 34 34 33 31 30 28 28 27 25 24 23 23 22
52 57 69 66 64 65 59 53 54 69 60 54 59 59 59 55 50 46 44 43 43 45 46 45 45 44 43 43 42 41 38 35 35 36 36 38 39 38 39 35 33 33 32 30 28 28 26 25 24
43 51 53 68 68 55 53 55 60 49 59 62 57 57 58 54 49 45 41 42 42 43 45 46 45 46 47 45 45 44 40 38 38 37 39 41 42 42 41 41 40 39 36 33 32 31 29 28 26
46 40 45 52 65 61 53 54 57 52 51 56 56 55 56 52 48 45 41 42 42 41 44 47 48 48 48 47 49 47 45 44 42 41 38 37 47 46 45 47 45 44 40 39 37 34 33 30 28
47 43 37 33 44 45 53 50 43 51 54 46 60 56 57 54 48 46 44 38 42 43 43 44 50 50 50 51 49 51 50 46 42 41 40 41 39 42 47 49 49 47 44 44 41 38 37 35 31
41 49 37 28 28 28 42 42 42 42 54 49 57 60 59 52 49 46 44 41 39 41 46 47 48 52 50 52 54 52 49 54 52 48 44 43 38 38 41 42 48 51 47 46 45 43 41 35 35
37 44 36 35 29 38 29 36 38 28 49 51 48 52 51 53 48 45 44 40 38 36 42 49 49 51 53 52 49 46 47 48 55 53 52 50 48 45 38 42 44 50 53 55 52 50 48 47 40
37 33 32 36 31 32 30 26 23 31 42 48 49 45 49 49 46 46 46 39 36 40 45 48 55 55 54 54 52 51 49 44 44 47 52 49 51 50 51 49 47 50 55 56 45 35 30 32 33
36 37 30 27 40 38 34 30 34 37 32 44 44 45 44 44 47 46 42 37 35 39 42 44 50 57 55 57 57 55 53 50 54 47 50 45 53 46 52 55 55 48 53 57 60 51 50 45 40
25 34 33 27 35 33 27 27 29 41 39 42 49 49 49 47 46 43 40 36 38 40 41 45 46 52 58 54 56 59 60 51 49 53 53 44 48 46 48 55 48 47 47 51 58 61 50 51 42
23 27 27 29 24 26 29 29 31 37 40 41 42 42 40 38 38 36 37 38 39 41 42 41 43 47 52 57 58 58 60 60 57 56 47 48 47 46 46 47 49 53 47 47 52 47 39 37 37
28 28 22 25 25 20 25 28 28 32 36 32 37 34 32 34 33 32 33 36 37 37 37 35 35 37 41 45 48 55 58 57 56 50 51 52 51 50 50 49 46 42 43 44 42 41 40 40 42
25 33 21 29 26 26 19 13 24 30 33 33 28 27 27 26 25 23 27 30 34 28 28 31 29 28 31 35 42 43 49 52 53 56 52 51 53 52 50 52 51 46 48 46 47 42 41 40 40
28 24 23 20 20 18 14 16 17 21 25 33 33 25 23 27 28 29 26 24 21 23 31 30 30 33 34 33 32 39 41 48 55 56 56 58 56 56 55 52 49 47 47 46 45 45 44 46 46

GFSSGP_500_spd_099.txt.gz
Wind_Speed
63 65 67 66 65 68 60 54 45 43 42 44 42 41 40 34 34 34 30 31 25 23 22 20 18 17 15 14 12 11 11 10 8 7 6 5 5 5 4 2 2 3 4 4 4 3 3 4 5
63 67 66 67 69 65 64 52 48 43 46 44 42 44 46 38 36 29 29 31 29 26 23 20 19 17 16 14 13 13 12 11 9 8 7 6 6 6 4 3 4 3 4 3 3 3 3 4 5
64 66 68 69 69 67 52 56 47 47 50 49 49 49 43 39 40 39 35 32 30 26 23 21 19 18 16 14 13 13 12 11 10 9 8 7 7 6 5 4 4 4 4 3 2 2 2 3 4
65 64 68 73 70 57 58 50 48 49 52 51 53 43 43 43 34 40 23 28 30 26 25 23 20 20 16 14 14 13 12 11 11 10 10 9 8 7 5 4 4 4 3 3 2 1 1 3 4
69 65 67 72 68 60 55 52 53 56 51 53 52 48 42 41 39 31 31 33 30 27 25 22 21 20 17 16 15 14 13 12 11 11 10 10 9 7 6 5 6 4 3 3 2 1 1 3 4
69 62 71 65 67 61 57 49 61 55 58 51 50 50 48 42 45 38 30 28 27 28 26 23 22 20 18 17 15 15 13 12 12 11 11 11 10 9 7 7 6 5 3 3 2 1 1 2 3
73 73 58 66 65 66 57 53 55 53 55 54 49 52 53 45 44 43 35 32 33 32 28 26 24 22 20 18 16 14 15 13 12 12 12 12 11 10 9 8 6 4 4 4 3 2 1 1 2
69 54 73 68 58 65 55 55 51 55 57 54 52 51 51 50 46 46 39 38 35 33 30 28 26 23 22 21 18 16 15 15 14 14 14 13 12 11 10 8 7 5 6 5 4 3 2 1 1
67 74 61 70 75 51 57 54 52 54 59 55 54 57 50 47 48 45 40 37 35 34 33 32 28 24 22 22 20 19 17 16 16 15 15 15 14 13 12 10 9 8 8 7 6 5 4 3 2
68 78 32 69 68 62 57 60 51 62 59 53 55 48 55 48 47 48 43 37 36 35 35 34 29 26 24 22 22 20 19 18 17 17 17 17 17 15 14 12 11 10 9 9 7 7 5 5 5
68 74 62 53 67 70 59 61 64 47 57 59 52 57 48 51 45 46 45 42 39 39 39 37 33 29 26 25 24 22 21 20 19 19 19 19 18 17 17 15 13 13 12 10 9 8 8 8 8
67 70 78 46 63 68 65 61 66 66 51 56 56 47 49 49 50 46 45 45 43 41 39 37 36 31 29 26 26 24 22 21 21 21 21 21 20 19 18 18 16 15 15 13 11 11 11 11 12
67 72 69 77 64 61 61 63 46 50 61 62 61 57 48 49 50 52 47 44 45 44 41 38 35 33 30 26 26 26 23 23 22 22 23 23 23 22 20 19 18 17 17 15 14 14 14 14 15
66 70 70 69 61 53 65 69 62 52 46 61 60 58 57 49 49 48 48 47 44 43 42 40 37 35 32 26 25 24 23 23 23 23 24 25 24 23 22 20 20 20 19 18 17 16 17 18 18
66 65 73 64 60 48 54 63 61 58 59 61 63 60 58 54 50 49 49 49 51 43 44 42 39 35 33 27 25 24 22 23 22 22 25 25 25 24 24 24 24 23 22 21 20 20 20 21 20
60 63 68 63 63 54 58 60 62 52 52 50 61 62 59 56 54 52 51 50 49 52 44 45 43 38 33 28 32 27 26 24 21 23 25 26 26 26 28 27 27 25 26 25 24 24 24 24 23
63 65 63 66 66 58 55 58 59 63 41 44 47 67 58 60 55 54 52 49 45 44 47 46 44 38 34 33 31 32 30 28 26 27 26 27 27 29 30 30 30 30 30 30 27 27 27 28 26
57 58 60 60 57 64 59 71 41 73 67 52 45 52 58 57 57 55 53 51 46 43 44 44 44 40 36 40 40 34 33 32 30 31 29 30 29 32 33 34 34 35 33 33 33 30 30 30 29
49 51 57 56 58 63 56 67 56 60 44 55 42 53 49 49 56 55 53 50 47 42 42 42 42 38 36 41 41 39 37 38 38 36 34 32 34 35 37 38 39 38 37 38 37 36 34 33 32
46 51 34 56 58 61 59 54 38 64 55 49 51 43 62 59 54 54 52 48 44 40 40 39 40 40 39 39 39 39 40 40 44 43 39 35 37 38 37 40 35 43 43 43 41 39 39 38 35
42 54 38 40 58 61 65 57 49 47 66 59 57 46 39 53 54 54 53 48 45 41 38 39 41 40 42 41 43 44 44 45 44 46 45 43 42 40 41 42 38 38 40 45 46 48 45 42 38
36 34 40 42 40 51 58 64 54 48 51 65 63 60 50 42 50 54 52 47 44 42 40 39 40 41 41 41 44 47 48 48 47 43 45 48 45 44 42 41 40 33 34 41 44 39 44 44 40
37 36 32 36 32 34 44 42 52 45 40 43 44 47 52 54 50 53 51 44 43 41 39 37 36 36 38 43 46 50 52 51 52 46 48 49 47 49 49 47 46 46 42 34 30 30 38 39 42
40 32 30 27 23 27 29 29 37 46 36 36 38 46 46 52 56 48 48 46 44 41 39 37 37 38 40 43 47 52 53 53 51 48 49 48 49 52 43 45 47 44 46 47 41 36 39 42 45
42 33 37 32 24 31 27 26 21 35 39 33 40 40 46 43 53 50 49 48 46 43 41 38 37 40 44 46 48 49 50 52 54 52 52 46 49 43 43 51 44 45 50 43 47 51 48 50 42
30 34 39 31 28 30 25 24 17 20 37 35 35 43 46 42 47 51 52 47 47 46 43 37 38 40 43 47 48 48 53 58 55 56 56 53 47 56 50 47 46 50 50 45 47 45 47 40 40
33 33 32 39 30 22 26 27 22 20 30 33 32 43 49 44 45 48 51 47 46 42 39 38 40 42 42 43 44 46 49 57 61 62 62 58 52 48 48 61 43 47 46 45 44 47 44 44 40
39 29 32 27 26 31 29 26 25 21 26 33 34 42 40 40 39 35 35 38 42 40 38 37 41 43 44 45 46 43 46 51 53 57 53 59 61 62 60 60 52 46 45 48 47 42 42 41 41
28 30 20 29 23 19 26 29 27 26 24 27 35 35 46 39 38 37 39 39 36 34 35 38 42 44 46 45 42 43 45 47 46 46 48 57 56 56 52 49 47 48 47 49 51 50 47 44 44
25 24 18 26 25 24 23 20 16 18 24 22 32 27 32 31 29 29 29 31 33 35 33 35 39 40 37 33 34 33 33 36 38 39 45 46 52 57 54 52 53 51 49 51 47 48 48 45 44

GFSSGP_500_spd_102.txt.gz
Wind_Speed
66 68 69 69 68 71 69 59 50 47 45 48 47 48 45 42 39 38 32 29 27 25 23 21 21 19 17 14 12 12 11 10 8 8 7 6 7 6 6 4 3 4 4 5 5 4 2 2 2
67 69 71 73 74 74 69 60 53 47 47 48 47 52 46 43 39 37 31 32 33 29 27 25 22 19 17 15 14 13 13 11 10 9 8 7 7 7 6 5 4 4 4 5 4 4 2 1 2
69 66 71 75 77 76 61 61 51 49 49 53 49 52 48 42 37 34 36 32 33 29 28 26 22 20 17 15 14 13 13 12 11 10 9 8 8 7 6 5 4 5 5 4 4 3 2 1 2
68 67 66 77 77 70 62 56 55 51 53 56 54 47 49 44 42 31 35 34 34 32 30 25 24 21 18 16 15 13 13 12 11 11 11 10 9 8 7 6 5 6 6 5 4 3 2 2 3
69 73 64 73 75 68 64 59 56 56 55 54 57 52 44 46 42 39 36 32 36 35 32 27 25 21 19 17 15 14 13 11 11 11 11 10 10 9 8 7 7 6 6 5 4 3 3 2 2
69 72 68 68 73 69 66 61 60 58 58 58 57 57 48 42 43 47 45 39 41 34 31 29 25 21 19 18 15 14 13 12 11 11 11 11 11 10 9 8 7 7 7 5 4 4 3 3 3
69 72 74 62 64 73 66 62 67 64 57 61 59 57 54 47 48 45 35 34 32 38 34 29 25 21 20 19 16 15 14 13 13 12 12 12 12 11 10 10 9 8 7 7 6 5 4 3 2
70 71 76 52 61 76 63 63 57 58 64 61 62 60 56 53 46 44 34 31 36 35 32 29 25 23 20 19 17 15 14 15 14 13 13 13 13 13 12 11 10 10 8 8 7 7 6 5 3
70 72 80 49 62 58 64 65 58 60 68 66 64 62 57 58 54 48 40 38 35 37 30 28 27 24 21 21 20 18 15 15 15 15 15 15 15 14 13 12 12 11 9 8 9 9 8 7 6
72 74 63 51 73 57 62 65 61 59 63 68 68 62 59 59 58 49 40 37 40 27 29 29 28 25 23 21 21 20 17 16 16 17 17 17 17 16 15 14 13 12 11 10 10 10 10 9 8
64 72 75 76 56 52 61 70 63 54 54 53 53 66 54 59 54 51 43 39 25 28 31 32 29 26 25 24 22 21 20 18 17 18 18 19 19 18 17 15 14 14 13 13 12 12 12 11 11
50 68 70 59 69 74 54 65 65 55 56 52 54 54 57 52 53 45 48 42 30 33 30 30 29 29 28 26 23 22 21 20 19 18 18 19 19 19 18 18 18 17 16 16 15 14 14 14 13
61 70 81 64 51 64 71 56 67 57 58 58 56 56 57 56 56 48 46 43 42 38 37 34 34 33 32 29 26 25 23 21 20 19 20 20 20 21 20 20 20 19 19 19 19 17 16 17 16
66 72 84 86 49 69 61 65 63 68 45 62 60 54 52 56 57 57 55 44 42 43 41 38 35 34 33 29 27 26 25 22 20 20 20 21 21 21 21 21 22 22 20 20 19 19 19 19 19
62 71 78 71 48 45 74 80 56 70 66 52 61 66 59 51 55 54 52 51 44 42 41 38 39 36 34 32 29 24 23 22 21 20 19 19 20 21 21 22 22 23 22 22 21 21 22 22 23
53 70 76 69 72 56 63 59 73 49 69 59 55 59 63 58 49 48 52 50 50 45 41 40 39 38 36 34 29 25 23 21 20 20 21 20 19 21 23 24 25 25 25 24 24 24 24 25 26
45 66 75 71 77 63 47 55 51 70 60 70 69 62 60 59 56 47 47 50 50 47 44 42 39 35 33 35 29 28 24 26 25 23 23 22 23 24 26 27 27 28 28 28 28 27 27 29 29
39 64 72 65 65 60 47 51 47 67 71 51 56 59 66 61 54 53 49 47 48 49 48 49 47 43 41 41 38 32 30 26 28 27 29 27 27 27 29 29 30 32 32 33 33 32 32 34 33
39 56 62 63 73 62 52 47 44 65 66 64 54 50 57 60 59 55 54 51 49 46 46 43 41 38 40 46 36 36 42 34 40 32 31 33 34 32 33 34 33 33 34 35 37 38 38 38 36
42 49 55 56 53 57 65 47 52 61 64 66 53 48 63 61 65 58 57 55 52 49 46 42 41 38 35 38 32 36 34 40 38 35 34 35 36 36 38 39 37 34 34 35 34 38 40 39 39
35 50 53 48 47 44 55 54 57 55 65 54 49 39 65 54 50 64 61 57 53 50 47 45 41 37 35 36 35 37 41 41 42 42 38 36 37 38 41 42 42 40 39 40 35 35 33 34 39
33 44 36 36 43 43 48 59 68 43 62 63 52 43 43 49 46 48 54 57 54 50 48 45 43 39 36 35 34 39 40 38 40 40 38 40 42 40 39 40 45 44 43 39 34 35 30 28 28
30 37 40 33 40 46 40 60 56 44 43 50 56 45 45 46 47 44 44 49 51 49 46 45 45 43 39 37 36 39 37 37 38 38 39 47 47 44 47 42 40 44 42 43 39 31 28 21 26
26 36 35 27 22 30 43 54 58 50 45 44 40 50 43 33 33 32 52 53 51 49 46 45 44 42 40 35 37 39 37 37 37 41 45 47 48 48 46 48 46 42 36 42 40 41 37 40 42
28 29 29 27 27 24 21 37 50 52 48 35 34 39 51 44 41 36 38 47 47 44 44 43 43 41 40 38 39 38 37 37 39 43 47 49 52 52 50 48 41 45 50 41 40 38 40 41 41
26 27 27 27 25 20 21 19 26 42 44 40 34 31 28 35 46 42 42 41 42 45 44 45 44 43 41 39 38 36 38 41 45 47 49 51 53 56 58 56 52 50 51 52 46 49 47 47 45
27 29 23 35 27 22 23 24 18 18 26 34 33 35 30 36 38 37 35 45 46 46 46 46 46 44 41 39 39 38 39 43 46 47 50 54 54 58 61 61 59 56 53 53 53 55 52 51 43
32 34 34 26 20 27 23 20 19 15 14 29 35 34 32 34 38 37 40 41 51 46 44 43 44 45 42 39 39 41 44 46 50 52 52 50 53 56 60 62 63 63 60 55 58 51 49 44 45
20 21 26 25 25 21 13 21 18 21 17 22 29 36 40 33 37 42 42 44 52 51 48 46 43 44 44 40 43 47 48 49 52 55 53 51 52 53 53 58 62 59 58 61 58 55 49 52 48
24 27 25 21 23 24 22 21 22 23 24 28 34 34 34 36 36 42 40 39 45 44 41 42 43 43 43 44 44 47 50 53 53 47 44 44 44 45 49 49 49 53 58 58 61 50 49 48 48

GFSSGP_500_spd_105.txt.gz
Wind_Speed
68 71 71 71 73 74 73 69 59 53 54 57 57 56 47 44 40 39 35 34 31 26 25 22 21 21 19 17 14 12 10 9 7 7 7 6 6 6 4 4 3 4 5 6 6 6 5 4 2
65 69 71 75 78 79 74 65 62 51 52 54 53 54 54 46 45 40 37 33 31 28 25 24 23 22 20 19 16 14 12 11 9 8 7 7 6 6 6 4 4 5 5 5 6 6 5 3 2
64 72 72 75 80 80 73 66 55 53 52 57 51 54 52 50 44 42 40 36 32 31 28 25 24 23 21 19 18 16 13 12 11 10 10 9 8 7 7 5 4 5 6 6 7 5 4 2 1
62 73 71 76 79 74 67 64 56 56 53 57 61 48 51 48 46 41 38 37 33 34 30 28 25 24 21 19 17 16 14 13 12 11 11 10 10 8 7 6 5 6 6 6 6 5 3 2 1
59 71 77 68 77 70 67 65 61 63 56 59 61 54 48 48 46 43 40 37 35 34 33 29 27 25 20 20 17 17 15 13 12 12 12 11 11 10 9 7 6 6 6 6 6 5 3 3 2
58 69 76 79 63 67 68 68 67 68 60 62 61 64 49 52 47 43 42 39 41 38 35 31 29 26 22 20 17 17 16 13 13 12 12 12 12 11 9 8 8 7 7 7 6 5 4 4 3
58 66 73 81 57 61 72 69 69 69 64 64 63 62 52 46 53 46 43 41 41 42 39 33 30 27 23 21 18 17 16 14 14 13 13 12 11 11 9 9 8 8 8 8 7 6 6 5 5
56 59 71 76 71 54 72 70 70 67 64 63 66 65 58 57 55 50 50 44 45 42 40 36 32 29 25 22 20 18 16 15 14 14 14 13 12 12 11 10 9 9 9 8 8 6 7 8 7
52 61 67 74 84 45 63 73 68 61 64 68 67 66 59 54 47 48 47 52 53 50 43 37 33 29 25 23 21 18 16 14 15 15 15 14 14 14 12 11 10 11 10 9 8 8 9 9 9
59 62 56 67 73 61 63 68 66 65 72 68 71 68 62 57 53 49 47 50 46 45 43 39 33 29 25 22 21 20 18 16 15 16 16 16 15 15 14 13 12 12 11 10 10 9 10 11 12
59 63 56 60 73 80 46 69 66 69 71 75 72 70 67 60 59 53 49 44 43 55 46 37 32 27 25 23 21 19 19 18 16 15 16 17 17 16 16 15 15 15 14 13 12 12 12 12 13
41 65 61 58 72 74 57 57 66 72 67 64 67 70 69 64 57 58 53 55 32 47 45 33 28 27 25 22 21 19 19 19 19 17 16 17 18 18 18 17 17 16 16 15 15 15 14 14 15
35 42 62 63 78 66 57 44 68 72 61 58 60 66 69 64 58 57 55 51 46 35 29 29 30 29 27 24 21 20 20 19 19 20 19 17 18 18 19 19 19 19 18 18 18 17 17 16 16
37 45 57 71 72 79 51 39 76 77 69 57 57 63 68 72 60 59 55 52 50 32 33 29 36 30 27 23 23 23 22 21 21 21 20 20 19 19 19 20 20 20 20 20 20 19 19 20 19
37 59 46 73 74 63 48 34 66 72 67 55 61 60 67 72 61 63 55 46 39 47 37 35 22 30 26 26 26 24 22 22 22 22 21 20 20 20 21 21 22 21 22 22 22 22 21 22 22
29 54 47 71 80 49 53 39 52 75 71 67 60 63 59 56 62 62 58 52 43 45 34 46 36 31 27 29 29 25 23 23 23 22 22 21 20 21 22 23 24 24 24 23 24 25 24 26 27
27 44 57 71 78 52 52 34 46 72 74 61 61 61 58 54 53 59 60 59 52 46 51 42 37 32 28 29 34 30 27 26 26 23 23 23 22 23 23 24 24 25 26 26 27 28 28 30 31
28 46 59 52 72 67 44 35 51 58 70 70 58 57 59 56 53 52 55 56 58 54 47 49 41 37 39 38 36 33 31 27 26 24 25 25 24 23 24 25 26 27 28 29 30 30 30 32 35
31 50 53 41 59 71 52 45 42 70 71 73 51 66 63 61 57 51 46 51 57 50 43 47 42 40 38 35 35 34 29 26 30 24 26 26 27 27 26 28 29 30 30 30 32 33 32 34 37
31 43 52 49 47 60 60 46 39 56 65 65 72 59 59 54 56 58 58 51 41 55 46 42 41 41 39 38 44 39 39 39 37 36 31 33 33 30 30 32 32 33 33 33 34 34 35 39 44
30 34 44 47 46 59 63 46 47 52 73 47 62 69 63 57 55 54 55 53 55 41 41 42 43 44 42 35 32 31 33 35 44 38 33 33 35 34 33 33 34 36 37 39 39 40 41 39 35
28 27 40 40 49 52 37 56 46 44 52 71 55 68 64 65 63 62 61 56 49 45 41 37 39 36 35 34 31 34 34 29 28 29 27 31 34 35 37 36 38 38 37 36 37 37 40 40 36
28 29 29 43 19 42 44 45 50 45 37 67 66 50 50 53 57 56 53 61 60 52 47 42 38 38 41 38 37 37 34 35 36 30 29 28 31 34 38 41 42 42 44 40 35 33 31 32 31
22 32 26 30 36 34 37 36 48 42 23 41 61 61 56 48 57 52 57 58 55 53 52 50 46 44 39 41 41 40 40 39 37 35 31 32 31 33 33 35 38 40 39 40 36 36 33 37 40
21 30 33 30 29 30 36 29 43 48 34 32 50 51 50 49 49 46 48 46 53 58 54 50 48 47 45 44 42 41 41 40 36 33 35 35 36 39 42 45 45 50 51 51 51 47 47 49 46
24 37 32 28 21 16 27 36 28 47 42 31 48 58 54 31 41 45 42 41 43 44 50 52 50 48 45 44 42 41 40 38 37 33 35 37 38 41 44 47 49 51 52 52 54 54 53 52 49
28 22 21 22 13 15 15 26 29 33 38 39 35 39 46 44 41 34 39 33 33 39 44 46 47 47 47 46 45 43 41 39 36 35 36 39 42 45 47 49 52 54 55 57 57 58 56 58 56
27 25 19 22 19 16 19 18 24 24 32 40 41 32 27 23 39 43 38 38 32 37 42 48 47 46 48 47 46 43 39 38 39 39 39 41 45 47 51 53 56 57 58 58 58 58 58 57 58
10 20 15 26 21 26 27 25 24 18 21 26 37 31 29 24 23 23 31 30 33 35 40 43 45 45 44 46 47 45 43 44 43 41 40 45 49 53 55 58 60 60 58 58 56 56 54 55 53
19 16 16 22 15 23 16 17 20 21 20 20 19 19 22 24 24 25 30 32 33 35 38 44 46 44 47 49 47 48 45 43 41 43 44 47 53 56 58 56 51 49 48 51 49 49 49 48 51

GFSSGP_500_spd_108.txt.gz
Wind_Speed
45 50 62 68 72 81 81 74 66 61 54 51 53 56 52 47 43 41 37 33 32 29 27 24 22 21 20 19 15 13 11 8 5 3 3 4 4 4 4 4 2 3 5 6 7 7 6 5 4
51 52 63 70 76 83 84 72 69 59 55 56 57 53 55 51 48 43 39 36 34 30 27 27 25 23 22 20 18 16 13 12 8 5 5 5 5 5 5 5 3 4 4 6 7 7 6 4 3
52 54 61 70 76 85 82 71 64 60 58 61 61 65 63 57 49 44 40 39 34 33 31 28 26 24 22 21 19 18 15 14 12 9 8 6 6 7 7 6 5 4 5 5 6 6 4 2 1
55 59 61 73 74 80 74 66 63 63 63 64 65 59 63 60 55 47 43 39 36 33 32 30 27 25 24 22 21 19 17 15 14 12 10 9 8 8 8 7 6 5 5 4 5 5 3 1 0
60 62 63 69 77 69 70 63 67 64 62 64 67 62 55 63 59 52 46 40 38 36 34 31 27 26 24 23 21 19 17 16 15 13 12 11 10 9 9 8 6 6 5 5 5 5 3 2 2
62 64 66 66 72 65 66 68 69 64 61 62 69 69 63 55 63 52 46 43 41 40 36 32 29 27 25 23 21 19 19 16 16 14 14 12 11 11 10 8 7 6 6 6 5 5 4 3 3
61 64 69 59 63 59 61 70 72 66 62 64 63 72 62 61 56 52 47 44 43 42 37 38 32 30 27 24 23 21 19 17 16 15 15 13 13 12 11 9 8 6 6 6 5 6 5 5 5
55 60 66 62 63 65 57 68 70 70 64 63 63 67 64 60 47 60 51 49 43 41 41 37 35 31 28 26 24 22 20 19 17 16 16 15 14 12 11 10 9 7 7 7 7 7 6 7 7
50 58 65 63 58 70 58 73 65 68 69 68 63 68 65 58 59 33 44 44 48 45 44 43 39 34 30 27 25 23 21 19 19 16 16 15 14 12 11 11 10 8 8 8 7 7 7 7 8
48 56 57 56 54 61 86 58 72 71 72 70 70 68 65 64 58 46 51 53 46 44 45 46 42 38 33 29 27 25 21 20 17 17 17 15 15 14 13 12 11 10 10 9 9 9 9 9 10
42 49 43 49 53 57 79 73 63 73 70 74 68 69 65 65 57 65 40 53 48 47 50 48 44 40 36 32 29 26 22 20 18 17 17 16 17 15 15 14 14 13 13 12 12 11 11 11 12
39 38 41 44 52 56 75 84 56 67 75 64 68 70 66 69 66 61 48 54 42 54 51 49 49 42 38 34 30 25 22 20 19 18 17 17 18 16 16 16 16 16 15 15 14 14 13 14 14
37 38 42 44 53 55 67 68 61 70 68 65 71 70 67 67 65 60 56 55 42 39 56 64 53 44 37 32 28 23 21 19 19 19 20 19 18 17 17 17 18 18 17 16 16 16 16 16 17
34 38 42 51 54 58 64 70 73 58 61 68 66 68 70 66 66 58 52 53 56 57 42 55 57 48 38 31 28 24 22 20 19 19 21 21 21 20 19 19 20 20 20 19 18 19 19 19 19
32 39 37 44 58 62 53 75 68 46 59 69 66 69 69 69 66 62 49 55 54 44 35 52 51 39 35 31 28 26 23 20 20 20 20 22 22 23 22 22 22 22 22 22 22 22 23 22 21
35 38 37 29 61 64 65 80 59 37 61 63 75 61 67 70 68 66 63 56 55 54 54 36 40 38 38 34 30 26 23 23 22 23 23 23 23 24 24 24 24 24 24 24 23 23 23 25 26
25 30 40 33 59 58 72 77 74 25 47 71 69 63 65 70 70 63 66 60 62 54 50 47 37 40 36 34 31 27 25 25 24 23 23 24 25 26 25 24 23 23 22 22 23 23 24 26 27
31 31 22 43 44 62 74 75 70 27 46 67 74 70 67 70 65 65 52 59 55 58 53 49 56 44 35 29 27 30 30 28 26 24 25 26 25 24 24 24 23 23 22 22 22 24 25 26 27
25 19 22 32 34 55 67 74 49 35 59 67 72 73 66 72 64 63 64 51 48 43 39 40 43 47 47 38 29 35 28 28 26 26 27 25 25 25 24 23 24 23 24 25 27 27 27 28 28
17 23 30 32 29 40 68 64 48 41 64 71 71 74 62 65 62 65 64 51 49 49 46 48 43 50 49 40 41 38 33 32 30 28 31 28 25 27 26 26 25 26 26 28 31 30 30 33 33
22 18 30 32 34 43 65 57 44 49 49 71 80 75 74 60 59 53 50 52 52 49 52 46 38 40 41 43 44 48 44 42 37 34 34 31 32 31 27 24 27 30 31 32 33 33 35 36 35
21 18 28 32 39 32 44 58 52 28 48 67 68 69 69 63 61 50 47 45 36 39 51 49 50 37 36 39 43 44 36 46 37 37 37 38 38 35 32 35 31 30 34 35 36 35 34 32 30
16 22 28 31 37 35 21 39 43 35 61 61 69 68 62 58 58 58 55 51 53 50 39 39 42 40 31 47 39 44 26 27 33 33 31 20 31 20 24 23 27 31 33 38 33 28 32 35 33
15 20 29 30 29 27 37 27 35 37 31 47 62 72 57 62 60 60 58 54 52 51 49 43 45 49 47 36 31 31 30 31 26 27 23 24 25 25 25 29 29 39 30 33 35 41 42 45 43
12 15 21 28 18 22 24 28 26 35 26 22 64 50 70 60 56 53 51 51 49 49 47 52 33 32 34 34 32 31 34 33 32 28 25 28 28 29 32 33 33 35 37 39 42 45 44 45 48
12 15 15 13 22 20 23 18 19 26 30 14 35 52 45 65 60 56 52 52 54 54 47 49 52 43 43 40 39 33 34 33 33 32 31 33 33 33 32 32 34 36 38 40 43 45 49 50 49
20 25 16 21 12 18 24 24 21 22 29 26 11 46 53 45 44 55 50 44 54 54 50 48 46 51 51 49 46 45 45 39 39 37 36 37 33 32 32 33 35 38 41 44 47 50 52 53 54
21 21 18 14 9 13 11 16 26 20 22 30 18 26 53 47 47 40 46 44 47 45 45 47 53 55 54 51 48 47 45 44 42 41 39 38 35 35 35 36 40 43 46 48 53 56 59 58 55
16 14 12 13 10 7 12 14 17 17 20 27 30 18 19 34 39 41 48 42 42 47 46 49 54 57 54 50 49 48 47 45 43 43 42 41 38 37 39 39 44 49 50 52 54 59 59 54 49
10 13 16 20 14 16 15 14 14 17 22 19 19 20 26 20 27 30 33 35 39 42 37 37 44 48 47 46 45 45 45 44 44 44 42 42 40 42 41 42 45 51 52 53 53 49 43 41 42

GFSSGP_500_spd_111.txt.gz
Wind_Speed
51 50 48 47 51 54 55 57 70 67 59 53 51 54 54 51 48 44 40 36 34 31 30 28 25 21 20 19 19 18 15 12 10 8 7 6 4 3 3 3 2 2 3 5 6 7 6 5 4
57 57 56 53 57 60 60 62 71 67 62 57 56 57 58 57 52 48 44 39 34 32 30 29 26 23 22 21 21 20 18 15 11 8 7 6 5 4 4 4 3 2 3 4 4 5 5 3 2
61 61 62 61 61 66 66 66 73 65 62 62 60 62 60 60 56 51 48 44 39 34 30 30 28 25 24 22 21 20 18 16 14 11 8 6 5 4 4 5 4 3 3 3 4 4 4 1 1
65 64 65 64 65 63 67 69 65 64 64 65 65 64 65 63 57 55 50 48 43 38 35 33 30 28 26 25 23 21 19 17 16 15 12 9 7 5 6 6 5 5 3 4 3 4 3 2 1
67 69 68 69 66 63 67 66 63 67 67 67 68 64 67 62 61 59 52 49 45 41 37 36 34 30 27 26 25 23 21 19 17 16 16 13 10 8 9 8 7 6 5 3 4 4 4 3 2
68 69 70 68 64 60 64 56 61 67 71 69 70 68 66 60 60 56 54 52 46 42 38 37 36 33 29 27 26 25 23 21 19 18 17 15 13 12 11 10 9 7 5 4 4 4 4 4 3
65 66 67 65 64 57 62 55 61 66 73 71 67 70 69 68 65 54 57 55 50 44 41 39 37 34 31 28 26 25 24 22 20 19 18 16 15 14 13 11 9 7 5 5 4 4 5 5 5
61 62 64 65 61 53 54 56 52 70 70 69 68 71 73 69 71 53 58 55 55 49 46 42 39 36 32 30 28 26 25 23 22 20 19 17 15 14 13 12 10 8 6 6 5 5 5 6 6
55 57 59 56 52 42 50 56 65 57 70 75 71 70 68 63 61 55 59 60 56 53 49 46 42 37 35 33 30 28 26 24 23 22 21 18 16 15 13 13 11 10 8 7 7 7 6 7 7
48 49 45 39 40 45 51 57 65 73 67 74 70 70 68 65 66 61 62 56 63 58 52 48 44 42 38 35 32 29 28 25 25 24 22 19 17 16 14 13 12 13 10 9 9 8 7 8 9
41 37 34 37 38 43 50 54 72 71 76 76 70 73 71 67 70 69 60 44 62 57 55 50 43 42 39 37 33 31 29 27 25 24 23 20 18 17 15 15 14 14 12 11 11 10 9 9 10
38 31 31 28 38 44 49 57 67 77 66 70 69 72 71 64 67 66 72 49 61 59 54 50 48 45 42 40 37 33 30 29 27 25 24 22 19 18 16 16 15 15 15 13 13 13 13 13 13
36 33 35 33 37 41 49 60 60 66 63 59 73 73 74 67 58 54 65 62 56 60 58 53 50 46 44 42 39 35 33 31 29 27 24 22 20 19 18 18 17 18 17 17 16 16 16 16 17
40 39 37 37 38 41 48 59 58 64 65 65 72 72 76 66 68 55 70 73 41 63 67 62 56 52 47 43 41 38 36 34 32 29 25 23 22 20 18 19 18 20 20 19 19 19 19 19 18
43 45 45 37 34 42 45 59 59 55 75 63 77 72 77 70 69 50 63 56 65 45 57 59 56 54 52 47 44 40 37 34 31 30 27 24 24 23 22 21 20 21 21 20 21 21 21 21 20
36 38 42 34 34 38 46 50 54 57 71 61 61 67 75 67 64 49 43 50 60 48 37 49 60 55 56 52 44 39 37 35 32 30 28 25 24 25 25 24 24 23 22 22 22 22 21 22 22
28 30 34 32 33 34 47 50 53 54 71 55 68 75 68 69 65 55 53 48 30 43 46 55 57 65 62 52 47 40 36 36 35 33 30 27 26 26 26 24 23 23 23 21 22 22 22 23 23
24 28 27 27 30 21 50 51 50 59 68 52 69 71 69 71 67 55 57 49 47 39 46 39 29 64 57 51 43 42 41 39 36 32 29 28 28 29 27 23 22 22 22 22 21 22 22 21 21
18 20 15 19 31 29 43 51 49 53 59 26 57 69 71 68 67 68 51 50 54 40 44 46 46 44 44 34 49 46 40 35 32 30 29 28 27 26 25 24 23 22 22 22 24 24 23 23 24
16 4 14 22 27 28 36 32 46 60 56 33 62 67 70 65 64 64 64 45 44 54 49 51 49 46 41 47 41 37 34 35 37 34 31 30 28 27 27 25 26 25 25 27 26 26 25 26 27
14 3 15 24 13 17 32 26 38 59 62 28 53 70 69 65 63 63 62 61 48 52 54 52 56 55 52 44 44 45 46 48 44 41 35 34 32 28 27 25 26 25 26 26 28 28 30 28 30
13 9 25 15 17 16 22 41 39 52 73 30 49 65 67 67 60 60 60 55 58 44 65 48 44 49 56 50 55 53 47 45 44 42 38 37 34 30 29 28 31 32 27 29 32 30 31 31 30
15 14 16 19 15 22 27 28 39 49 56 34 28 66 68 66 60 59 56 57 50 62 49 35 46 60 63 64 61 51 53 53 53 49 44 40 37 34 32 30 34 24 27 34 35 30 23 24 24
13 22 22 21 18 7 13 27 36 46 46 30 30 51 67 68 64 61 61 50 46 48 47 48 46 42 43 40 46 50 43 47 36 36 42 34 34 27 29 31 27 25 30 27 29 29 32 31 34
14 17 22 17 20 15 16 23 25 44 34 10 41 51 70 65 62 62 51 51 40 46 37 41 33 31 43 41 42 49 38 52 42 32 34 41 37 29 24 25 23 21 23 25 26 28 31 34 36
9 17 19 17 13 3 12 12 6 21 30 13 43 39 55 59 63 58 54 45 46 46 33 31 37 41 29 38 32 28 33 40 39 35 22 27 25 24 23 22 24 25 28 27 29 33 37 40 42
17 16 19 12 10 6 6 5 6 3 4 10 38 43 58 59 60 60 55 55 48 52 48 38 40 41 45 28 34 22 36 25 21 24 19 25 23 19 23 26 28 28 30 33 34 36 40 42 45
22 24 22 17 14 10 4 6 6 3 3 8 39 48 52 56 56 55 57 55 55 53 51 47 44 43 39 39 48 48 40 40 34 39 33 28 22 24 28 29 30 30 33 34 35 37 41 44 46
18 14 16 14 13 17 9 6 3 4 6 6 12 34 34 49 53 49 50 51 49 49 49 43 45 47 44 43 40 43 47 46 42 42 41 36 32 31 32 32 33 34 36 36 38 41 46 45 46
10 13 15 12 16 11 10 11 9 8 3 13 6 7 30 38 47 50 59 53 52 47 44 41 42 46 45 46 47 47 48 48 46 45 42 39 38 37 36 35 36 37 37 39 41 44 47 44 42

GFSSGP_500_spd_114.txt.gz
Wind_Speed
37 36 37 41 45 49 48 47 51 48 47 54 56 54 53 52 51 50 46 41 39 36 32 32 29 25 23 23 21 17 15 13 12 12 11 10 9 8 6 5 3 2 1 2 3 4 4 3 2
41 42 43 44 48 50 49 52 59 50 49 56 57 57 58 56 55 51 49 44 42 37 35 33 30 27 25 25 23 21 18 15 14 12 11 10 10 9 7 6 5 4 2 2 3 3 4 3 2
45 47 48 51 52 52 54 59 58 57 48 54 60 62 60 60 57 54 51 47 44 39 37 35 32 29 28 26 25 22 20 18 16 14 12 11 10 8 7 6 6 4 3 2 2 3 3 3 0
48 52 55 58 54 53 56 61 67 55 46 54 63 68 66 62 60 58 53 50 46 42 40 37 34 32 30 28 27 25 23 22 20 18 16 14 12 9 8 7 6 5 5 4 3 2 3 2 1
53 56 61 61 57 61 64 64 65 56 47 55 65 70 69 67 64 58 58 54 49 45 42 39 36 34 32 31 30 28 26 25 22 21 19 17 15 12 10 9 7 6 6 5 4 2 2 2 3
59 62 65 66 67 68 70 68 67 60 50 57 66 73 72 71 67 65 65 58 52 49 45 42 38 36 34 32 31 29 28 25 23 22 22 19 16 15 12 10 8 7 7 7 5 3 3 3 4
63 69 70 70 71 74 72 66 67 56 51 56 68 74 75 73 68 76 60 62 58 53 50 45 42 38 35 33 32 30 28 26 24 23 22 20 18 16 14 12 11 9 9 8 7 6 4 5 6
68 74 75 75 74 68 67 58 61 54 53 58 69 77 78 75 75 74 68 71 61 56 52 49 44 42 39 36 33 31 29 27 26 25 23 21 19 18 17 15 13 11 11 9 9 9 6 6 7
72 76 78 71 60 58 57 58 53 52 57 62 72 77 79 82 79 77 76 62 66 61 54 52 49 44 42 38 35 32 30 28 28 27 25 24 22 20 18 17 15 13 12 10 10 10 8 7 8
75 78 70 57 56 58 59 52 51 55 61 64 73 77 79 80 78 76 76 58 77 60 56 54 52 48 45 41 37 34 31 30 29 28 27 25 24 22 20 19 17 16 14 12 11 10 9 9 9
70 68 56 48 50 56 54 47 50 56 64 65 76 79 77 79 79 76 72 57 60 58 59 57 55 51 48 43 39 36 33 32 30 30 28 26 25 23 21 20 18 17 15 13 12 11 11 11 11
62 52 48 41 46 48 44 41 54 56 63 62 71 72 73 77 81 72 73 66 56 54 63 63 58 54 50 46 42 39 36 33 31 30 29 28 26 24 22 22 20 17 17 15 13 13 14 14 15
52 47 46 43 44 41 41 42 46 58 60 71 77 71 79 77 79 76 69 70 62 51 58 67 61 56 50 46 43 41 38 35 34 32 30 29 27 25 24 22 21 19 19 18 16 16 17 17 18
48 48 46 46 45 42 41 38 49 52 63 72 79 67 79 75 81 80 71 67 67 57 53 75 66 58 54 50 46 41 40 38 35 33 31 29 28 27 26 24 23 21 21 20 19 19 20 20 20
41 42 45 45 46 44 42 43 44 43 63 62 76 67 76 72 83 82 71 58 68 59 59 74 68 65 55 51 48 44 42 39 38 36 34 31 29 28 27 26 24 23 23 22 21 20 21 22 22
39 45 46 43 45 44 43 33 35 46 62 57 77 64 81 76 77 80 82 41 73 67 54 73 68 63 59 53 49 47 44 43 41 38 36 33 32 30 29 28 28 26 25 24 23 22 23 24 24
39 37 29 29 34 36 39 32 39 45 52 51 76 70 87 76 78 79 74 49 59 65 55 69 65 64 59 56 53 51 48 46 43 40 38 36 35 33 33 31 29 27 25 25 25 24 25 25 23
24 21 19 21 21 28 31 32 38 42 47 51 76 77 91 80 73 76 82 50 51 55 54 51 66 59 60 58 56 53 54 50 45 41 38 37 35 33 31 30 29 27 26 27 25 25 26 23 22
8 10 12 19 21 26 25 32 36 42 45 51 75 80 87 81 72 78 82 54 50 46 65 49 50 58 62 62 59 58 55 51 46 43 41 38 36 34 33 31 29 28 29 28 27 27 27 23 24
4 4 6 10 16 22 20 18 36 39 44 53 62 78 80 77 73 74 69 72 41 52 50 56 61 52 60 65 61 62 55 50 48 43 39 35 34 34 34 33 32 30 28 28 27 29 29 24 26
1 4 5 12 11 20 13 11 32 36 42 49 61 60 75 76 70 66 70 53 43 47 38 40 49 64 45 61 68 69 63 56 47 41 38 38 35 35 35 34 31 28 28 28 31 29 29 27 27
4 5 14 20 15 11 18 13 18 28 35 51 59 63 62 68 65 63 62 64 49 42 42 39 42 44 44 59 57 51 49 49 45 41 39 38 38 41 41 37 30 29 28 31 30 29 26 26 28
13 7 11 13 15 18 26 16 13 25 53 59 53 55 60 73 60 59 65 62 42 35 54 46 44 43 55 60 49 49 52 50 47 43 43 44 45 44 38 34 33 30 25 29 30 25 34 23 13
12 11 9 11 16 29 19 19 12 16 50 45 48 27 58 68 63 54 57 53 46 36 48 50 41 49 39 49 47 49 51 50 50 51 50 51 53 47 41 40 35 34 32 33 27 28 11 17 21
7 10 9 22 30 31 23 14 9 9 41 39 24 25 57 70 61 54 55 52 49 42 47 38 49 43 40 44 44 40 57 58 53 49 48 55 54 50 43 38 33 36 36 28 11 10 16 17 21
10 14 13 24 25 34 32 20 18 17 37 27 14 27 56 70 63 57 55 50 46 50 45 38 41 53 41 49 54 62 54 58 57 57 59 41 45 41 40 33 35 43 28 11 14 16 19 22 26
12 13 10 14 16 29 30 25 14 18 30 18 21 30 37 56 55 51 55 48 43 37 39 34 30 26 47 41 38 48 42 67 40 59 55 56 52 55 47 36 34 20 15 15 19 21 24 28 29
24 19 9 10 18 24 22 21 15 12 23 22 29 37 38 43 48 58 54 46 42 33 36 32 23 28 22 31 28 31 21 25 37 51 39 44 29 31 29 22 14 16 21 23 24 26 28 29 31
19 17 17 20 18 24 26 22 17 6 10 21 38 44 37 44 59 53 50 49 47 44 41 31 25 24 22 28 31 36 39 32 30 25 23 23 23 27 24 28 22 23 26 27 27 28 30 30 32
22 22 21 24 21 15 17 22 19 14 8 18 31 36 38 35 50 51 49 49 47 42 44 37 29 30 30 34 34 36 35 31 32 34 24 26 30 33 33 31 27 28 28 29 30 31 32 32 31

GFSSGP_500_spd_117.txt.gz
Wind_Speed
36 36 36 36 41 41 42 32 36 38 37 38 32 29 43 49 50 45 54 48 44 39 38 35 32 29 27 23 20 19 19 16 16 15 14 12 11 10 10 8 6 4 2 0 2 3 4 3 2
39 40 40 43 44 45 34 37 39 41 45 43 37 32 37 46 57 60 33 51 44 43 40 38 35 32 29 26 23 22 21 18 16 16 15 13 11 11 10 9 6 4 3 1 1 2 3 3 2
43 44 45 47 49 41 40 41 44 44 52 46 44 36 34 44 59 60 50 54 47 43 41 40 38 34 32 28 26 24 23 19 17 16 15 15 12 12 11 9 7 6 3 3 1 1 2 1 2
44 47 49 52 52 41 45 45 48 51 54 50 51 45 39 48 60 63 55 53 51 45 44 42 40 37 35 31 29 27 25 23 20 18 17 15 13 12 12 10 8 7 5 4 3 1 1 1 2
46 47 52 55 51 49 49 50 49 54 58 61 57 52 44 50 62 61 58 56 56 50 47 46 43 40 37 34 32 31 29 27 24 21 20 18 15 14 12 11 10 8 7 6 5 3 2 3 3
52 51 55 55 54 54 54 55 56 55 61 67 63 61 51 54 61 63 64 62 58 53 50 48 46 43 40 37 35 34 32 30 28 26 24 22 19 17 15 14 12 10 8 7 6 5 4 4 4
52 55 54 55 56 56 58 62 64 62 64 68 72 61 53 59 61 65 68 73 64 60 52 53 49 46 43 40 37 36 35 32 31 29 26 24 22 20 19 17 14 12 10 9 8 7 7 6 6
53 58 55 54 57 62 66 69 70 69 70 75 72 67 57 62 66 65 71 76 64 62 56 54 52 48 46 43 40 38 36 35 33 30 27 25 24 23 21 19 17 14 13 11 9 7 8 7 7
56 58 58 59 63 69 73 74 77 80 77 80 76 65 65 69 67 65 75 76 76 58 62 56 56 51 48 45 42 39 38 36 34 32 30 27 25 24 22 21 19 17 14 13 11 9 9 9 8
59 62 64 66 72 76 79 80 83 85 84 78 77 72 69 67 72 69 76 76 71 63 66 57 60 55 52 48 44 42 40 38 34 32 29 28 27 26 24 23 20 17 16 14 12 11 10 10 10
63 65 69 74 78 82 85 86 83 79 80 74 75 67 70 73 71 76 76 77 74 71 65 49 60 60 56 52 48 45 42 38 35 32 31 29 28 26 24 23 21 19 18 16 14 13 12 12 12
69 71 75 79 82 85 85 81 75 75 72 69 65 64 68 66 75 80 80 78 86 75 75 54 60 62 60 55 52 48 44 38 36 34 32 30 29 27 27 24 23 22 20 18 16 15 15 15 15
74 75 78 79 79 77 72 71 63 65 63 54 58 62 80 80 81 85 85 81 78 86 69 62 56 69 63 58 54 50 44 41 38 36 34 32 32 31 29 27 25 24 22 19 19 18 17 17 18
75 77 75 70 67 64 61 61 58 59 45 47 54 66 78 77 82 86 88 86 47 74 71 77 50 71 64 59 55 51 47 43 40 38 36 35 34 32 31 29 27 25 23 21 21 21 20 20 21
67 65 61 59 56 54 55 61 58 40 44 47 56 65 74 73 80 84 89 85 79 78 67 49 52 66 62 61 58 53 49 45 42 39 38 37 36 34 32 30 28 26 25 24 24 24 23 22 22
57 55 52 43 48 47 53 59 46 44 45 45 52 61 72 77 71 84 88 88 84 37 50 72 55 67 67 63 57 52 48 45 42 40 40 38 36 35 34 32 31 29 28 27 27 25 24 22 22
44 42 41 44 46 50 53 51 42 44 44 40 50 57 67 81 74 85 94 89 87 56 39 84 52 64 71 66 59 54 52 49 46 44 42 40 38 37 35 33 32 31 29 28 26 24 23 22 23
30 27 25 27 19 19 27 34 32 38 37 37 46 57 66 86 74 84 93 83 81 64 60 63 68 61 72 68 63 59 56 52 49 46 45 43 42 40 38 36 35 32 30 29 26 24 24 25 25
9 11 11 13 15 22 18 18 25 32 31 35 44 58 61 87 70 80 80 79 81 85 48 46 57 53 79 76 67 62 56 52 50 49 47 46 43 42 41 38 34 33 33 28 26 25 27 26 25
12 12 8 2 7 14 13 16 21 27 25 33 41 57 60 83 73 80 77 83 81 75 50 57 52 36 70 73 61 61 56 53 51 49 49 46 45 45 39 35 36 36 31 30 27 28 27 26 22
13 11 10 10 7 12 10 4 16 21 25 31 40 51 52 76 76 74 77 78 76 62 42 45 46 59 58 68 61 60 58 57 55 55 53 49 47 40 40 40 39 35 32 29 30 29 26 24 25
5 7 7 10 10 14 7 4 6 16 20 30 37 45 48 70 73 72 74 71 82 75 50 44 45 44 65 60 62 61 58 54 57 55 52 48 46 44 45 40 40 37 34 30 31 28 28 29 27
4 2 9 10 11 10 13 10 12 9 15 25 31 35 44 66 67 67 72 67 65 61 57 42 48 49 48 61 62 63 62 62 60 56 55 54 50 48 44 42 41 40 33 32 31 35 31 28 27
8 7 9 1 10 10 5 11 11 9 6 16 21 25 40 56 58 70 67 73 75 61 43 43 48 49 53 54 59 64 65 63 60 61 62 56 52 49 46 43 44 41 38 38 34 26 30 27 14
10 11 15 10 16 12 8 12 15 11 16 14 25 25 28 39 57 72 68 68 79 62 48 44 34 53 60 56 61 62 60 58 61 63 61 58 54 53 51 47 45 46 41 37 34 32 29 9 3
10 15 26 25 19 14 9 13 18 18 13 14 20 17 24 35 52 69 62 57 48 66 40 40 43 55 57 40 63 58 53 62 52 63 60 58 60 55 50 46 42 33 34 34 34 40 9 5 8
10 16 22 32 24 20 20 22 25 23 8 16 27 12 22 28 49 57 52 44 49 63 51 25 28 46 46 45 62 58 56 53 47 58 59 49 47 47 56 52 51 47 36 33 42 18 8 10 15
17 14 16 25 29 30 29 28 27 10 12 15 10 7 28 34 47 48 48 44 47 52 51 35 25 35 35 40 49 52 59 47 58 58 55 56 54 48 45 45 51 52 37 30 27 14 15 14 18
15 19 19 23 24 28 33 30 24 20 22 22 19 14 27 41 44 52 42 37 37 56 37 29 25 22 27 30 37 44 51 52 67 53 49 47 45 58 56 55 39 53 45 32 28 23 22 22 25
17 21 18 20 23 24 30 31 24 17 12 19 24 26 26 21 43 52 49 43 43 46 43 21 27 21 21 23 29 24 23 39 30 22 40 21 24 22 31 24 26 20 19 26 25 25 25 26 27